[[{"header":{"parameterUnit":"m.s-1","parameterCategory":1,"la1":31.0,"la2":29.5877,"lo1":-88.7671,"lo2":-86.6584,"dy":0.0162,"dx":0.0185,"nx":115,"ny":88,"refTime":"2024-04-08T06:00:00:Z","depth":0,"parameterNumber":2,"parameterNumberName":"U-component_of_WINDS"},"data":[0.0,0.0,0.0,0.0,0.0,0.0,0.0,0.0,0.0,0.0,0.0,0.0,0.0,0.0,0.0,0.0,0.0,0.0,0.0,0.0,0.0,0.0,0.0,0.0,0.0,0.0,0.0,0.0,0.0,0.0,0.0,0.0,0.0,0.0,0.0,0.0,0.0,0.0,0.0,0.0,0.0,0.0,0.0,0.0,0.0,0.0,0.0,0.0,0.0,0.0,0.0,0.0,0.0,0.0,0.0,0.0,0.0,0.0,0.0,0.0,0.0,0.0,0.0,0.0,0.0,0.0,0.0,0.0,0.0,0.0,0.0,0.0,0.0,0.0,0.0,0.0,0.0,0.0,0.0,0.0,0.0,0.0,0.0,0.0,0.0,0.0,0.0,0.0,0.0,0.0,0.0,0.0,0.0,0.0,0.0,0.0,0.0,0.0,0.0,0.0,0.0,0.0,0.0,0.0,0.0,0.0,0.0,0.0,0.0,0.0,0.0,0.0,0.0,0.0,0.0,0.0,0.0,0.0,0.0,0.0,0.0,0.0,0.0,0.0,0.0,0.0,0.0,0.0,0.0,0.0,0.0,0.0,0.0,0.0,0.0,0.0,0.0,0.0,0.0,0.0,0.0,0.0,0.0,0.0,0.0,0.0,0.0,0.0,0.0,0.0,0.0,0.0,0.0,0.0,0.0,0.0,0.0,0.0,0.0,0.0,0.0,0.0,0.0,0.0,0.0,0.0,0.0,0.0,0.0,0.0,0.0,0.0,0.0,0.0,0.0,0.0,0.0,0.0,0.0,0.0,0.0,0.0,0.0,0.0,0.0,0.0,0.0,0.0,0.0,0.0,0.0,0.0,0.0,0.0,0.0,0.0,0.0,0.0,0.0,0.0,0.0,0.0,0.0,0.0,0.0,0.0,0.0,0.0,0.0,0.0,0.0,0.0,0.0,0.0,0.0,0.0,0.0,0.0,0.0,0.0,0.0,0.0,0.0,0.0,0.0,0.0,0.0,0.0,0.0,0.0,0.0,0.0,0.0,0.0,0.0,0.0,0.0,0.0,0.0,0.0,0.0,0.0,0.0,0.0,0.0,0.0,0.0,0.0,0.0,0.0,0.0,0.0,0.0,0.0,0.0,0.0,0.0,0.0,0.0,0.0,0.0,0.0,0.0,0.0,0.0,0.0,0.0,0.0,0.0,0.0,0.0,0.0,0.0,0.0,0.0,0.0,0.0,0.0,0.0,0.0,0.0,0.0,0.0,0.0,0.0,0.0,0.0,0.0,0.0,0.0,0.0,0.0,0.0,0.0,0.0,0.0,0.0,0.0,0.0,0.0,0.0,0.0,0.0,0.0,0.0,0.0,0.0,0.0,0.0,0.0,0.0,0.0,0.0,0.0,0.0,0.0,0.0,0.0,0.0,0.0,0.0,0.0,0.0,0.0,0.0,0.0,0.0,0.0,0.0,0.0,0.0,0.0,0.0,0.0,0.0,0.0,0.0,0.0,0.0,0.0,0.0,0.0,0.0,0.0,0.0,0.0,0.0,0.0,0.0,0.0,0.0,0.0,0.0,0.0,0.0,0.0,0.0,0.0,0.0,0.0,0.0,0.0,0.0,0.0,0.0,0.0,0.0,0.0,0.0,0.0,0.0,0.0,0.0,0.0,0.0,0.0,0.0,0.0,0.0,0.0,0.0,0.0,0.0,0.0,0.0,0.0,0.0,0.0,0.0,0.0,0.0,0.0,0.0,0.0,0.0,0.0,0.0,0.0,0.0,0.0,0.0,0.0,0.0,0.0,0.0,0.0,0.0,0.0,0.0,0.0,0.0,0.0,0.0,0.0,0.0,0.0,0.0,0.0,0.0,0.0,0.0,0.0,0.0,0.0,0.0,0.0,0.0,0.0,0.0,0.0,0.0,0.0,0.0,0.0,0.0,0.0,0.0,0.0,0.0,0.0,0.0,0.0,0.0,0.0,0.0,0.0,0.0,0.0,0.0,0.0,0.0,0.0,0.0,0.0,0.0,0.0,0.0,0.0,0.0,0.0,0.0,0.0,0.0,0.0,0.0,0.0,0.0,0.0,0.0,0.0,0.0,0.0,0.0,0.0,0.0,0.0,0.0,0.0,0.0,0.0,0.0,0.0,0.0,0.0,0.0,0.0,0.0,0.0,0.0,0.0,0.0,0.0,0.0,0.0,0.0,0.0,0.0,0.0,0.0,0.0,0.0,0.0,0.0,0.0,0.0,0.0,0.0,0.0,0.0,0.0,0.0,0.0,0.0,0.0,0.0,0.0,0.0,0.0,0.0,0.0,0.0,0.0,0.0,0.0,0.0,0.0,0.0,0.0,0.0,0.0,0.0,0.0,0.0,0.0,0.0,0.0,0.0,0.0,0.0,0.0,0.0,0.0,0.0,0.0,0.0,0.0,0.0,0.0,0.0,0.0,0.0,0.0,0.0,0.0,0.0,0.0,0.0,0.0,0.0,0.0,0.0,0.0,0.0,0.0,0.0,0.0,0.0,0.0,0.0,0.0,0.0,0.0,0.0,0.0,0.0,0.0,0.0,0.0,0.0,0.0,0.0,0.0,0.0,0.0,0.0,0.0,0.0,0.0,0.0,0.0,0.0,0.0,0.0,0.0,0.0,0.0,0.0,0.0,0.0,0.0,0.0,0.0,0.0,0.0,0.0,0.0,0.0,0.0,0.0,0.0,0.0,0.0,0.0,0.0,0.0,0.0,0.0,0.0,0.0,0.0,0.0,0.0,0.0,0.0,0.0,0.0,0.0,0.0,0.0,0.0,0.0,0.0,0.0,0.0,0.0,0.0,0.0,0.0,0.0,0.0,0.0,0.0,0.0,0.0,0.0,0.0,0.0,0.0,0.0,0.0,0.0,0.0,0.0,0.0,0.0,0.0,0.0,0.0,0.0,0.0,0.0,0.0,0.0,0.0,0.0,0.0,0.0,0.0,0.0,0.0,0.0,0.0,0.0,0.0,0.0,0.0,0.0,0.0,0.0,0.0,0.0,0.0,0.0,0.0,0.0,0.0,0.0,0.0,0.0,0.0,0.0,0.0,0.0,0.0,0.0,0.0,0.0,0.0,0.0,0.0,0.0,0.0,0.0,0.0,0.0,0.0,0.0,0.0,0.0,0.0,0.0,0.0,0.0,0.0,0.0,0.0,0.0,0.0,0.0,0.0,0.0,0.0,0.0,0.0,0.0,0.0,0.0,0.0,0.0,0.0,0.0,0.0,0.0,0.0,0.0,0.0,0.0,0.0,0.0,0.0,0.0,0.0,0.0,0.0,0.0,0.0,0.0,0.0,0.0,0.0,0.0,0.0,0.0,0.0,0.0,0.0,0.0,0.0,0.0,0.0,0.0,0.0,0.0,0.0,0.0,0.0,0.0,0.0,0.0,0.0,0.0,0.0,0.0,0.0,0.0,0.0,0.0,0.0,0.0,0.0,0.0,0.0,0.0,0.0,0.0,0.0,0.0,0.0,0.0,0.0,0.0,0.0,0.0,0.0,0.0,0.0,0.0,0.0,0.0,0.0,0.0,0.0,0.0,0.0,0.0,0.0,0.0,0.0,0.0,0.0,0.0,0.0,0.0,0.0,0.0,0.0,0.0,0.0,0.0,0.0,0.0,0.0,0.0,0.0,0.0,0.0,0.0,0.0,0.0,0.0,0.0,0.0,0.0,0.0,0.0,0.0,0.0,0.0,0.0,0.0,0.0,0.0,0.0,0.0,0.0,0.0,0.0,0.0,0.0,0.0,0.0,0.0,0.0,0.0,0.0,0.0,0.0,0.0,0.0,0.0,0.0,0.0,0.0,0.0,0.0,0.0,0.0,0.0,0.0,0.0,0.0,0.0,0.0,0.0,0.0,0.0,0.0,0.0,0.0,0.0,0.0,0.0,0.0,0.0,0.0,0.0,0.0,0.0,0.0,0.0,0.0,0.0,0.0,0.0,0.0,0.0,0.0,0.0,0.0,0.0,0.0,0.0,0.0,0.0,0.0,0.0,0.0,0.0,0.0,0.0,0.0,0.0,0.0,0.0,0.0,0.0,0.0,0.0,0.0,0.0,0.0,0.0,0.0,0.0,0.0,0.0,0.0,0.0,0.0,0.0,0.0,0.0,0.0,0.0,0.0,0.0,0.0,0.0,0.0,0.0,0.0,0.0,0.0,0.0,0.0,0.0,0.0,0.0,0.0,0.0,0.0,0.0,0.0,0.0,0.0,0.0,0.0,0.0,0.0,0.0,0.0,0.0,0.0,0.0,0.0,0.0,-1.6851,0.0,0.0,0.0,0.0,0.0,0.0,0.0,0.0,0.0,0.0,0.0,0.0,0.0,0.0,0.0,0.0,0.0,0.0,0.0,0.0,0.0,0.0,0.0,0.0,0.0,0.0,0.0,0.0,0.0,0.0,0.0,0.0,0.0,0.0,0.0,0.0,0.0,0.0,0.0,0.0,0.0,0.0,0.0,0.0,0.0,0.0,0.0,0.0,0.0,0.0,0.0,0.0,0.0,0.0,0.0,0.0,0.0,0.0,0.0,0.0,0.0,0.0,0.0,0.0,0.0,0.0,0.0,0.0,0.0,0.0,0.0,0.0,0.0,0.0,0.0,0.0,0.0,0.0,0.0,0.0,0.0,0.0,0.0,0.0,0.0,0.0,0.0,0.0,0.0,0.0,0.0,0.0,0.0,0.0,0.0,0.0,0.0,0.0,0.0,0.0,0.0,0.0,0.0,0.0,0.0,0.0,0.0,0.0,0.0,0.0,-1.6908,-1.6908,-1.6908,-1.6943,-1.7063,0.0,0.0,0.0,0.0,0.0,0.0,0.0,0.0,0.0,0.0,0.0,0.0,0.0,0.0,0.0,0.0,0.0,0.0,0.0,0.0,0.0,0.0,0.0,0.0,0.0,0.0,0.0,0.0,0.0,0.0,0.0,0.0,0.0,0.0,0.0,0.0,0.0,0.0,0.0,0.0,0.0,0.0,0.0,0.0,0.0,0.0,0.0,0.0,0.0,0.0,0.0,0.0,0.0,0.0,0.0,0.0,0.0,0.0,0.0,0.0,0.0,0.0,0.0,0.0,0.0,0.0,0.0,0.0,0.0,0.0,0.0,0.0,0.0,0.0,0.0,0.0,0.0,0.0,0.0,0.0,0.0,0.0,0.0,0.0,0.0,0.0,0.0,0.0,0.0,0.0,0.0,0.0,0.0,0.0,0.0,0.0,0.0,0.0,0.0,0.0,0.0,0.0,0.0,0.0,0.0,0.0,0.0,0.0,0.0,0.0,0.0,0.0,-1.7092,-1.7051,-1.7132,0.0,0.0,0.0,0.0,0.0,0.0,0.0,0.0,0.0,0.0,0.0,0.0,0.0,0.0,0.0,0.0,0.0,0.0,0.0,0.0,0.0,0.0,0.0,0.0,0.0,0.0,0.0,0.0,0.0,0.0,0.0,0.0,0.0,0.0,0.0,0.0,0.0,0.0,0.0,0.0,0.0,0.0,0.0,0.0,0.0,0.0,0.0,0.0,0.0,0.0,0.0,0.0,0.0,0.0,0.0,0.0,0.0,0.0,0.0,0.0,0.0,0.0,0.0,0.0,0.0,0.0,0.0,0.0,0.0,0.0,0.0,0.0,0.0,0.0,0.0,0.0,0.0,0.0,0.0,0.0,0.0,0.0,0.0,0.0,0.0,0.0,0.0,0.0,0.0,0.0,0.0,0.0,0.0,0.0,0.0,0.0,0.0,0.0,0.0,0.0,0.0,0.0,0.0,0.0,0.0,0.0,0.0,0.0,0.0,0.0,-1.7972,-1.7972,-1.7642,0.0,-1.698,0.0,0.0,0.0,0.0,0.0,0.0,0.0,0.0,0.0,0.0,0.0,0.0,0.0,0.0,0.0,0.0,0.0,0.0,0.0,0.0,0.0,0.0,0.0,0.0,0.0,0.0,0.0,0.0,0.0,0.0,0.0,0.0,0.0,0.0,0.0,0.0,0.0,0.0,0.0,0.0,0.0,0.0,0.0,0.0,0.0,0.0,0.0,0.0,0.0,0.0,0.0,0.0,0.0,0.0,0.0,0.0,0.0,0.0,0.0,0.0,0.0,0.0,0.0,0.0,0.0,0.0,0.0,0.0,0.0,0.0,0.0,0.0,0.0,0.0,0.0,0.0,0.0,0.0,0.0,0.0,0.0,0.0,0.0,0.0,0.0,0.0,0.0,0.0,0.0,0.0,0.0,0.0,0.0,0.0,0.0,0.0,0.0,0.0,0.0,0.0,0.0,0.0,0.0,0.0,0.0,0.0,0.0,0.0,0.0,0.0,-1.8081,-1.8081,-1.7824,-1.7583,0.0,0.0,0.0,0.0,0.0,0.0,0.0,0.0,0.0,0.0,0.0,0.0,0.0,0.0,0.0,0.0,0.0,0.0,0.0,0.0,0.0,0.0,0.0,0.0,0.0,0.0,0.0,0.0,0.0,0.0,0.0,0.0,0.0,0.0,0.0,0.0,0.0,0.0,0.0,0.0,0.0,0.0,0.0,0.0,0.0,0.0,0.0,0.0,0.0,0.0,0.0,0.0,0.0,0.0,0.0,0.0,0.0,0.0,0.0,0.0,0.0,0.0,0.0,0.0,0.0,0.0,0.0,0.0,0.0,0.0,0.0,0.0,0.0,0.0,0.0,0.0,0.0,0.0,0.0,0.0,0.0,0.0,0.0,0.0,0.0,0.0,0.0,0.0,0.0,0.0,0.0,0.0,0.0,0.0,0.0,0.0,0.0,0.0,0.0,0.0,0.0,0.0,0.0,0.0,0.0,0.0,0.0,0.0,0.0,0.0,-1.86,-1.8563,-1.8434,-1.8192,-1.7984,-1.7872,0.0,0.0,0.0,0.0,0.0,0.0,0.0,0.0,0.0,0.0,0.0,0.0,0.0,0.0,0.0,0.0,0.0,0.0,0.0,0.0,0.0,0.0,0.0,0.0,0.0,0.0,0.0,0.0,0.0,0.0,0.0,0.0,0.0,0.0,0.0,0.0,0.0,0.0,0.0,0.0,0.0,0.0,0.0,0.0,0.0,0.0,0.0,0.0,0.0,0.0,0.0,0.0,0.0,0.0,0.0,0.0,0.0,0.0,0.0,0.0,0.0,0.0,0.0,0.0,0.0,0.0,0.0,0.0,0.0,0.0,0.0,0.0,0.0,0.0,0.0,0.0,0.0,0.0,0.0,0.0,0.0,0.0,0.0,0.0,0.0,0.0,0.0,0.0,0.0,0.0,0.0,0.0,0.0,0.0,0.0,0.0,0.0,0.0,0.0,0.0,0.0,0.0,0.0,0.0,0.0,0.0,0.0,0.0,-1.9806,-1.9806,-1.9618,-1.9241,-1.8881,-1.8483,0.0,0.0,0.0,0.0,0.0,0.0,0.0,0.0,0.0,0.0,0.0,0.0,0.0,0.0,0.0,0.0,0.0,0.0,0.0,0.0,0.0,0.0,0.0,0.0,0.0,0.0,0.0,0.0,0.0,0.0,0.0,0.0,0.0,0.0,0.0,0.0,0.0,0.0,0.0,0.0,0.0,0.0,0.0,0.0,0.0,0.0,0.0,0.0,0.0,0.0,0.0,0.0,0.0,0.0,0.0,0.0,0.0,0.0,0.0,0.0,0.0,0.0,0.0,0.0,0.0,0.0,0.0,0.0,0.0,0.0,0.0,0.0,0.0,0.0,0.0,0.0,0.0,0.0,0.0,0.0,0.0,0.0,0.0,0.0,0.0,0.0,0.0,0.0,0.0,0.0,0.0,0.0,0.0,0.0,0.0,0.0,0.0,0.0,0.0,0.0,0.0,0.0,0.0,0.0,0.0,0.0,0.0,0.0,0.0,-1.9902,-1.9902,-1.9924,-1.9908,-1.9506,-1.9086,0.0,0.0,0.0,0.0,0.0,0.0,0.0,0.0,0.0,0.0,0.0,0.0,0.0,0.0,0.0,0.0,0.0,0.0,0.0,0.0,0.0,0.0,0.0,0.0,0.0,0.0,0.0,0.0,0.0,0.0,0.0,0.0,0.0,0.0,0.0,0.0,0.0,0.0,0.0,0.0,0.0,0.0,0.0,0.0,0.0,0.0,0.0,0.0,0.0,0.0,0.0,0.0,0.0,0.0,0.0,0.0,0.0,0.0,0.0,0.0,0.0,0.0,0.0,0.0,0.0,0.0,0.0,0.0,0.0,0.0,0.0,0.0,0.0,0.0,0.0,0.0,0.0,0.0,0.0,0.0,0.0,0.0,0.0,0.0,0.0,0.0,0.0,0.0,0.0,0.0,0.0,0.0,0.0,0.0,0.0,0.0,0.0,0.0,0.0,0.0,0.0,0.0,0.0,0.0,0.0,0.0,0.0,0.0,0.0,-2.0758,0.0,-2.076,-2.0703,-2.0236,-1.9771,0.0,0.0,0.0,0.0,0.0,0.0,0.0,0.0,0.0,0.0,0.0,0.0,0.0,0.0,0.0,0.0,0.0,0.0,0.0,0.0,0.0,0.0,0.0,0.0,0.0,0.0,0.0,0.0,0.0,0.0,0.0,0.0,0.0,0.0,0.0,0.0,0.0,0.0,0.0,0.0,0.0,0.0,0.0,0.0,0.0,0.0,0.0,0.0,0.0,0.0,0.0,0.0,0.0,0.0,0.0,0.0,0.0,0.0,0.0,0.0,0.0,0.0,0.0,0.0,0.0,0.0,0.0,0.0,0.0,0.0,0.0,0.0,0.0,0.0,0.0,0.0,0.0,0.0,0.0,0.0,0.0,0.0,0.0,0.0,0.0,0.0,0.0,0.0,0.0,0.0,0.0,0.0,0.0,0.0,0.0,0.0,0.0,0.0,0.0,0.0,0.0,0.0,0.0,0.0,0.0,0.0,0.0,0.0,-2.2634,-2.2594,-2.2594,-2.2271,-2.165,-2.1193,-2.0621,0.0,0.0,0.0,0.0,0.0,0.0,0.0,0.0,0.0,0.0,0.0,0.0,0.0,0.0,0.0,0.0,0.0,0.0,0.0,0.0,0.0,0.0,0.0,0.0,0.0,0.0,0.0,0.0,0.0,0.0,0.0,0.0,0.0,0.0,0.0,0.0,0.0,0.0,0.0,0.0,0.0,0.0,0.0,0.0,0.0,0.0,0.0,0.0,0.0,0.0,0.0,0.0,0.0,0.0,0.0,0.0,0.0,0.0,0.0,0.0,0.0,0.0,0.0,0.0,0.0,0.0,0.0,0.0,0.0,0.0,0.0,0.0,0.0,0.0,0.0,0.0,0.0,0.0,0.0,0.0,0.0,0.0,0.0,0.0,0.0,0.0,0.0,0.0,0.0,0.0,0.0,0.0,0.0,0.0,0.0,0.0,0.0,0.0,0.0,0.0,0.0,0.0,0.0,0.0,0.0,0.0,0.0,0.0,0.0,-2.3543,-2.3503,-2.3541,-2.3639,-2.2894,-2.207,0.0,0.0,0.0,0.0,0.0,0.0,0.0,0.0,0.0,0.0,0.0,0.0,0.0,0.0,0.0,0.0,0.0,0.0,0.0,0.0,0.0,0.0,0.0,0.0,0.0,0.0,0.0,0.0,0.0,0.0,0.0,0.0,0.0,0.0,0.0,0.0,0.0,0.0,0.0,0.0,0.0,0.0,0.0,0.0,0.0,0.0,0.0,0.0,0.0,0.0,0.0,0.0,0.0,0.0,0.0,0.0,0.0,0.0,0.0,0.0,0.0,0.0,0.0,0.0,0.0,0.0,0.0,0.0,0.0,0.0,0.0,0.0,0.0,0.0,0.0,0.0,0.0,0.0,0.0,0.0,0.0,0.0,0.0,0.0,0.0,0.0,0.0,0.0,0.0,0.0,0.0,0.0,0.0,0.0,0.0,0.0,0.0,0.0,0.0,0.0,0.0,0.0,0.0,0.0,0.0,0.0,0.0,0.0,0.0,-2.6806,-2.6172,-2.5874,-2.5906,-2.4893,-2.3665,-2.2148,0.0,0.0,0.0,0.0,0.0,0.0,0.0,0.0,0.0,0.0,0.0,0.0,0.0,0.0,0.0,0.0,0.0,0.0,0.0,0.0,0.0,0.0,0.0,0.0,0.0,0.0,0.0,0.0,0.0,0.0,0.0,0.0,0.0,0.0,0.0,0.0,0.0,0.0,0.0,0.0,0.0,0.0,0.0,0.0,0.0,0.0,0.0,0.0,0.0,0.0,0.0,0.0,0.0,0.0,0.0,0.0,0.0,0.0,0.0,0.0,0.0,0.0,0.0,0.0,0.0,0.0,0.0,0.0,0.0,0.0,0.0,0.0,0.0,0.0,0.0,0.0,0.0,0.0,0.0,0.0,0.0,0.0,0.0,0.0,0.0,0.0,0.0,0.0,0.0,0.0,0.0,0.0,0.0,0.0,0.0,0.0,0.0,0.0,0.0,0.0,0.0,0.0,0.0,0.0,0.0,0.0,0.0,0.0,-3.1912,-3.0363,-2.9203,-2.8369,-2.7194,-2.5401,0.0,0.0,0.0,0.0,0.0,0.0,0.0,0.0,0.0,0.0,0.0,0.0,0.0,0.0,0.0,0.0,0.0,0.0,0.0,0.0,0.0,0.0,0.0,0.0,0.0,0.0,0.0,0.0,0.0,0.0,0.0,0.0,0.0,0.0,0.0,0.0,0.0,0.0,0.0,0.0,0.0,0.0,0.0,0.0,0.0,0.0,0.0,0.0,0.0,0.0,0.0,0.0,0.0,0.0,0.0,0.0,0.0,0.0,0.0,0.0,0.0,0.0,0.0,0.0,0.0,0.0,0.0,0.0,0.0,0.0,0.0,0.0,0.0,0.0,0.0,0.0,0.0,0.0,0.0,0.0,0.0,0.0,0.0,0.0,0.0,0.0,0.0,0.0,0.0,0.0,0.0,0.0,0.0,0.0,0.0,0.0,0.0,0.0,0.0,0.0,0.0,0.0,0.0,0.0,0.0,0.0,0.0,0.0,0.0,-3.5456,-3.5092,-3.3848,-3.1741,-2.9875,-2.7814,0.0,0.0,0.0,0.0,0.0,0.0,0.0,0.0,0.0,0.0,0.0,0.0,0.0,0.0,0.0,0.0,0.0,0.0,0.0,0.0,0.0,0.0,0.0,0.0,0.0,0.0,0.0,0.0,0.0,0.0,0.0,0.0,0.0,0.0,0.0,0.0,0.0,0.0,0.0,0.0,0.0,0.0,0.0,0.0,0.0,0.0,0.0,0.0,0.0,0.0,0.0,0.0,0.0,0.0,0.0,0.0,0.0,0.0,0.0,0.0,0.0,0.0,0.0,0.0,0.0,0.0,0.0,0.0,0.0,0.0,0.0,0.0,0.0,0.0,0.0,0.0,0.0,0.0,0.0,0.0,0.0,0.0,0.0,0.0,0.0,0.0,0.0,0.0,0.0,0.0,0.0,0.0,0.0,0.0,0.0,0.0,0.0,0.0,0.0,0.0,0.0,0.0,0.0,0.0,0.0,0.0,0.0,0.0,-3.5893,-3.7834,-3.9305,-3.8719,-3.6025,-3.2864,-3.0013,0.0,0.0,0.0,0.0,0.0,0.0,0.0,0.0,0.0,0.0,0.0,0.0,0.0,0.0,0.0,0.0,0.0,0.0,0.0,0.0,0.0,0.0,0.0,0.0,0.0,0.0,0.0,0.0,0.0,0.0,0.0,0.0,0.0,0.0,0.0,0.0,0.0,0.0,0.0,0.0,0.0,0.0,0.0,0.0,0.0,0.0,0.0,0.0,0.0,0.0,0.0,0.0,0.0,0.0,0.0,0.0,0.0,0.0,0.0,0.0,0.0,0.0,0.0,0.0,0.0,0.0,0.0,0.0,0.0,0.0,0.0,0.0,0.0,0.0,0.0,0.0,0.0,0.0,0.0,0.0,0.0,0.0,0.0,0.0,0.0,0.0,0.0,0.0,0.0,0.0,0.0,0.0,0.0,0.0,0.0,0.0,0.0,0.0,0.0,0.0,0.0,0.0,0.0,0.0,0.0,0.0,0.0,0.0,-3.8537,-3.9611,-4.255,-4.2929,-4.0526,-3.5895,-3.2132,0.0,0.0,0.0,0.0,0.0,0.0,0.0,0.0,0.0,0.0,0.0,0.0,0.0,0.0,0.0,0.0,0.0,0.0,0.0,0.0,0.0,0.0,0.0,0.0,0.0,0.0,0.0,0.0,0.0,0.0,0.0,0.0,0.0,0.0,0.0,0.0,0.0,0.0,0.0,0.0,0.0,0.0,0.0,0.0,0.0,0.0,0.0,0.0,0.0,0.0,0.0,0.0,0.0,0.0,0.0,0.0,0.0,0.0,0.0,0.0,0.0,0.0,0.0,0.0,0.0,0.0,0.0,0.0,0.0,0.0,0.0,0.0,0.0,0.0,0.0,0.0,0.0,0.0,0.0,0.0,0.0,0.0,0.0,0.0,0.0,0.0,0.0,0.0,0.0,0.0,0.0,0.0,0.0,0.0,0.0,0.0,0.0,0.0,0.0,0.0,0.0,0.0,0.0,0.0,0.0,0.0,0.0,0.0,-3.9825,-4.2932,-4.2827,-4.2883,-4.3195,-3.8564,-3.4402,0.0,0.0,0.0,0.0,0.0,0.0,0.0,0.0,0.0,0.0,0.0,0.0,0.0,0.0,0.0,0.0,0.0,0.0,0.0,0.0,0.0,0.0,0.0,0.0,0.0,0.0,0.0,0.0,0.0,0.0,0.0,0.0,0.0,0.0,0.0,0.0,0.0,0.0,0.0,0.0,0.0,0.0,0.0,0.0,0.0,0.0,0.0,0.0,-1.7458,0.0,0.0,0.0,0.0,0.0,0.0,0.0,0.0,0.0,0.0,0.0,0.0,0.0,0.0,0.0,0.0,0.0,0.0,0.0,0.0,0.0,0.0,0.0,0.0,0.0,0.0,0.0,0.0,0.0,0.0,0.0,0.0,0.0,0.0,0.0,0.0,0.0,0.0,0.0,0.0,0.0,0.0,0.0,0.0,0.0,0.0,0.0,0.0,0.0,0.0,0.0,0.0,0.0,0.0,0.0,0.0,0.0,0.0,0.0,-4.1222,-4.4553,-4.4109,-4.3827,-4.4005,-4.0576,-3.6853,0.0,0.0,0.0,0.0,0.0,0.0,0.0,0.0,0.0,0.0,0.0,0.0,0.0,0.0,0.0,0.0,0.0,0.0,0.0,0.0,0.0,0.0,0.0,0.0,0.0,0.0,0.0,0.0,0.0,0.0,0.0,0.0,0.0,0.0,0.0,0.0,0.0,0.0,0.0,0.0,0.0,0.0,0.0,0.0,0.0,0.0,0.0,0.0,0.0,0.0,0.0,0.0,0.0,0.0,0.0,0.0,0.0,0.0,0.0,0.0,0.0,0.0,0.0,0.0,0.0,0.0,0.0,0.0,0.0,0.0,0.0,0.0,0.0,0.0,0.0,0.0,0.0,0.0,0.0,0.0,0.0,0.0,0.0,0.0,0.0,0.0,0.0,0.0,0.0,0.0,0.0,0.0,0.0,0.0,0.0,0.0,0.0,0.0,0.0,0.0,0.0,0.0,0.0,0.0,0.0,0.0,0.0,-4.0174,-4.2732,-4.5698,-4.5631,-4.5028,-4.421,-4.1846,-3.8719,-3.487,0.0,0.0,0.0,0.0,0.0,0.0,0.0,0.0,0.0,0.0,0.0,0.0,0.0,0.0,0.0,0.0,0.0,0.0,0.0,0.0,0.0,0.0,0.0,0.0,0.0,0.0,0.0,0.0,0.0,0.0,0.0,0.0,0.0,0.0,0.0,0.0,0.0,0.0,-2.2228,-2.2645,0.0,0.0,0.0,0.0,0.0,0.0,0.0,0.0,-1.8239,0.0,0.0,0.0,0.0,0.0,0.0,0.0,0.0,0.0,0.0,0.0,0.0,0.0,0.0,0.0,0.0,0.0,0.0,0.0,0.0,0.0,0.0,0.0,0.0,0.0,0.0,0.0,0.0,0.0,0.0,0.0,0.0,0.0,0.0,0.0,0.0,0.0,0.0,0.0,0.0,0.0,0.0,0.0,0.0,0.0,0.0,0.0,0.0,0.0,0.0,0.0,0.0,0.0,0.0,0.0,0.0,-3.9588,-4.1516,-4.4354,-4.7986,-4.6447,-4.5278,-4.4641,-4.157,-3.8463,-3.5496,0.0,0.0,0.0,0.0,0.0,0.0,0.0,0.0,0.0,0.0,0.0,0.0,0.0,0.0,0.0,0.0,0.0,0.0,0.0,0.0,0.0,0.0,0.0,0.0,0.0,0.0,0.0,0.0,0.0,0.0,0.0,0.0,0.0,0.0,0.0,0.0,0.0,0.0,0.0,-2.3395,-2.3346,0.0,0.0,0.0,0.0,0.0,0.0,0.0,0.0,-1.9593,0.0,0.0,0.0,0.0,0.0,0.0,0.0,0.0,0.0,0.0,0.0,0.0,0.0,0.0,0.0,0.0,0.0,0.0,0.0,0.0,0.0,0.0,0.0,0.0,0.0,0.0,0.0,0.0,0.0,0.0,0.0,0.0,0.0,0.0,0.0,0.0,0.0,0.0,0.0,0.0,0.0,0.0,0.0,0.0,0.0,0.0,0.0,0.0,0.0,0.0,0.0,0.0,0.0,0.0,0.0,-4.1531,-4.3466,-4.5892,-4.8816,-4.6931,-4.553,-4.4778,-4.181,-3.8795,0.0,0.0,0.0,0.0,0.0,0.0,0.0,0.0,0.0,0.0,0.0,0.0,0.0,0.0,0.0,0.0,0.0,0.0,0.0,0.0,0.0,0.0,0.0,0.0,0.0,0.0,0.0,0.0,0.0,0.0,0.0,0.0,0.0,0.0,0.0,0.0,0.0,0.0,0.0,0.0,-2.4867,-2.4682,-2.4114,0.0,0.0,0.0,0.0,0.0,0.0,-2.1216,-2.0747,0.0,0.0,0.0,0.0,0.0,0.0,0.0,0.0,0.0,0.0,0.0,0.0,0.0,0.0,0.0,0.0,0.0,0.0,0.0,0.0,0.0,0.0,0.0,0.0,0.0,0.0,0.0,0.0,0.0,0.0,0.0,0.0,0.0,0.0,0.0,0.0,0.0,0.0,0.0,0.0,0.0,0.0,0.0,0.0,0.0,0.0,0.0,0.0,0.0,0.0,0.0,0.0,0.0,0.0,0.0,-4.3144,-4.5008,-4.7012,-4.8974,-4.7207,-4.5575,-4.4436,-4.1784,-3.8825,0.0,0.0,0.0,0.0,0.0,0.0,0.0,0.0,0.0,0.0,0.0,0.0,0.0,0.0,0.0,0.0,0.0,0.0,0.0,0.0,0.0,0.0,0.0,0.0,0.0,0.0,0.0,0.0,0.0,0.0,0.0,0.0,0.0,0.0,0.0,0.0,0.0,0.0,0.0,0.0,0.0,-2.6127,-2.5284,-2.5399,0.0,0.0,0.0,0.0,-2.25,-2.234,0.0,0.0,0.0,0.0,0.0,0.0,0.0,0.0,0.0,0.0,0.0,0.0,0.0,0.0,0.0,0.0,0.0,0.0,0.0,0.0,0.0,0.0,0.0,0.0,0.0,0.0,0.0,0.0,0.0,0.0,0.0,0.0,0.0,0.0,0.0,0.0,0.0,0.0,0.0,0.0,0.0,0.0,0.0,0.0,0.0,0.0,0.0,0.0,0.0,0.0,0.0,0.0,0.0,0.0,0.0,0.0,-4.3455,-4.5435,-4.7202,-4.864,-4.7121,-4.527,-4.3214,-4.0559,-3.7767,0.0,0.0,0.0,0.0,0.0,0.0,0.0,0.0,0.0,0.0,0.0,0.0,0.0,0.0,0.0,0.0,0.0,0.0,0.0,0.0,0.0,0.0,0.0,0.0,0.0,0.0,0.0,0.0,0.0,0.0,0.0,0.0,0.0,0.0,0.0,0.0,0.0,0.0,0.0,0.0,0.0,-2.7342,-2.703,-2.704,-2.6827,0.0,0.0,-2.5185,-2.4192,-2.4632,0.0,0.0,0.0,0.0,0.0,0.0,0.0,0.0,0.0,0.0,0.0,0.0,0.0,0.0,0.0,0.0,0.0,0.0,0.0,0.0,0.0,0.0,0.0,0.0,0.0,0.0,0.0,0.0,0.0,0.0,0.0,0.0,0.0,0.0,0.0,0.0,0.0,0.0,0.0,0.0,0.0,0.0,0.0,0.0,0.0,0.0,0.0,0.0,0.0,0.0,0.0,0.0,0.0,0.0,0.0,-4.0294,-4.3792,-4.6217,-4.775,-4.8219,-4.7004,-4.5222,-4.308,-4.0535,-3.7824,0.0,0.0,0.0,0.0,0.0,0.0,0.0,0.0,0.0,0.0,0.0,0.0,0.0,0.0,0.0,0.0,0.0,0.0,0.0,0.0,0.0,0.0,0.0,0.0,0.0,0.0,0.0,0.0,0.0,0.0,0.0,0.0,0.0,0.0,0.0,0.0,0.0,0.0,0.0,0.0,0.0,0.0,-2.804,-2.8237,0.0,0.0,0.0,-2.7134,-2.697,0.0,0.0,0.0,0.0,0.0,0.0,0.0,0.0,0.0,0.0,0.0,0.0,0.0,0.0,0.0,0.0,0.0,0.0,0.0,0.0,0.0,0.0,0.0,0.0,0.0,0.0,0.0,0.0,0.0,0.0,0.0,0.0,0.0,0.0,0.0,0.0,0.0,0.0,0.0,0.0,0.0,0.0,0.0,0.0,0.0,0.0,0.0,0.0,0.0,0.0,0.0,0.0,0.0,0.0,0.0,0.0,0.0,-4.3566,-4.6357,-4.7623,-4.7211,-4.6376,-4.4833,-4.2744,-4.0602,0.0,0.0,0.0,0.0,0.0,0.0,0.0,0.0,0.0,0.0,0.0,0.0,0.0,0.0,0.0,0.0,0.0,0.0,0.0,0.0,0.0,0.0,0.0,0.0,0.0,0.0,0.0,-2.2804,0.0,0.0,0.0,0.0,0.0,0.0,0.0,0.0,0.0,0.0,0.0,0.0,0.0,0.0,-3.0076,-2.9296,-2.965,-2.9653,0.0,0.0,-2.8829,-2.8776,-2.7467,-2.637,0.0,0.0,0.0,0.0,0.0,0.0,0.0,0.0,0.0,0.0,0.0,0.0,0.0,0.0,0.0,0.0,0.0,0.0,0.0,0.0,0.0,0.0,0.0,0.0,0.0,0.0,0.0,0.0,0.0,0.0,0.0,0.0,0.0,0.0,0.0,0.0,0.0,0.0,0.0,0.0,0.0,0.0,0.0,0.0,0.0,0.0,0.0,0.0,0.0,0.0,0.0,0.0,0.0,0.0,-4.0481,-4.2436,-4.5167,-4.6243,-4.5506,-4.4905,-4.3716,-4.1854,-4.0344,-3.8222,0.0,0.0,0.0,0.0,0.0,0.0,0.0,0.0,0.0,0.0,0.0,0.0,0.0,0.0,0.0,0.0,0.0,0.0,0.0,0.0,0.0,0.0,0.0,0.0,0.0,0.0,0.0,0.0,0.0,0.0,0.0,0.0,0.0,0.0,0.0,0.0,0.0,0.0,0.0,0.0,0.0,-3.1313,-3.1295,-3.1605,-3.1692,0.0,-3.0801,-3.0015,-2.8688,-2.9014,-2.8569,-2.606,0.0,0.0,0.0,0.0,0.0,0.0,0.0,0.0,0.0,0.0,0.0,0.0,0.0,0.0,0.0,0.0,0.0,0.0,0.0,0.0,0.0,0.0,0.0,0.0,0.0,0.0,0.0,0.0,0.0,0.0,0.0,0.0,0.0,0.0,0.0,0.0,0.0,0.0,0.0,0.0,0.0,0.0,0.0,0.0,0.0,0.0,0.0,0.0,0.0,0.0,0.0,0.0,0.0,-3.9841,-4.2099,-4.4671,-4.5762,-4.5485,-4.4933,-4.3959,-4.2393,-4.0469,-3.853,0.0,0.0,0.0,0.0,0.0,0.0,0.0,0.0,0.0,0.0,0.0,0.0,0.0,0.0,0.0,0.0,0.0,0.0,0.0,0.0,0.0,0.0,0.0,0.0,0.0,0.0,0.0,0.0,-2.252,-2.2286,-2.2816,0.0,0.0,0.0,0.0,0.0,0.0,0.0,0.0,0.0,0.0,-3.2041,-3.2045,-3.2267,0.0,0.0,-3.1816,-3.1381,-3.1096,-2.9944,-2.8862,-2.8139,-2.665,0.0,0.0,0.0,0.0,0.0,0.0,0.0,0.0,0.0,0.0,0.0,0.0,0.0,0.0,0.0,0.0,0.0,0.0,0.0,0.0,0.0,0.0,0.0,0.0,0.0,0.0,0.0,0.0,0.0,0.0,0.0,0.0,0.0,0.0,0.0,0.0,0.0,0.0,0.0,0.0,0.0,0.0,0.0,0.0,0.0,0.0,0.0,0.0,0.0,0.0,0.0,0.0,-3.9326,-4.1329,-4.3909,-4.5177,-4.5183,-4.4729,-4.3915,-4.2884,-4.093,-3.9041,0.0,0.0,0.0,0.0,0.0,0.0,0.0,0.0,0.0,0.0,0.0,0.0,0.0,0.0,0.0,0.0,0.0,0.0,0.0,0.0,0.0,0.0,0.0,0.0,0.0,0.0,0.0,0.0,-2.3424,-2.3433,-2.4412,0.0,0.0,0.0,0.0,0.0,0.0,0.0,0.0,0.0,0.0,-3.2763,-3.2637,-3.2919,-3.3078,-3.2934,-3.2597,-3.241,-3.2685,-3.087,-2.9466,-2.9367,0.0,0.0,0.0,0.0,0.0,0.0,0.0,0.0,0.0,0.0,0.0,0.0,0.0,0.0,0.0,0.0,0.0,0.0,0.0,0.0,0.0,0.0,0.0,0.0,0.0,0.0,0.0,-3.3,0.0,0.0,-3.1448,0.0,0.0,0.0,0.0,0.0,0.0,0.0,0.0,0.0,0.0,0.0,0.0,0.0,0.0,0.0,0.0,0.0,0.0,0.0,0.0,0.0,0.0,-3.8896,-3.9899,-4.2844,-4.4359,-4.4319,-4.3927,-4.3501,-4.2991,-4.166,-3.9888,-3.7619,0.0,0.0,0.0,0.0,0.0,0.0,0.0,0.0,0.0,0.0,0.0,0.0,0.0,0.0,0.0,0.0,0.0,0.0,0.0,0.0,0.0,0.0,0.0,0.0,0.0,0.0,-2.4504,-2.4715,-2.5398,0.0,0.0,0.0,0.0,0.0,0.0,0.0,0.0,0.0,0.0,-3.2803,-3.3388,-3.3161,-3.3626,-3.3883,-3.3489,-3.3283,-3.3069,-3.2747,-3.1842,-3.0752,0.0,0.0,0.0,0.0,0.0,0.0,0.0,0.0,0.0,0.0,0.0,0.0,0.0,0.0,0.0,0.0,0.0,0.0,0.0,0.0,0.0,0.0,0.0,0.0,0.0,0.0,0.0,-3.5633,-3.5722,0.0,0.0,0.0,0.0,0.0,0.0,0.0,0.0,0.0,0.0,0.0,-3.5591,-3.5869,0.0,0.0,0.0,0.0,0.0,0.0,0.0,0.0,0.0,0.0,0.0,0.0,-3.8453,-4.0208,-4.2476,-4.4136,-4.4983,-4.4551,-4.3939,-4.3219,-4.188,-3.9613,-3.6324,0.0,0.0,0.0,0.0,0.0,0.0,0.0,0.0,0.0,0.0,0.0,0.0,0.0,0.0,0.0,0.0,0.0,0.0,0.0,0.0,0.0,0.0,0.0,0.0,0.0,-2.6661,0.0,0.0,0.0,0.0,0.0,0.0,0.0,0.0,0.0,0.0,0.0,-3.1425,-3.2175,-3.3212,-3.3855,-3.3889,-3.407,-3.4206,0.0,0.0,0.0,0.0,0.0,0.0,0.0,0.0,0.0,0.0,0.0,0.0,0.0,0.0,-2.8349,-2.7271,-2.6743,-2.6415,-2.634,0.0,0.0,0.0,0.0,0.0,0.0,0.0,0.0,0.0,0.0,0.0,0.0,0.0,0.0,-3.7333,0.0,-3.6268,0.0,0.0,0.0,0.0,0.0,0.0,0.0,0.0,-3.6432,-3.7244,-3.7495,-3.803,-3.8007,0.0,-3.7174,-3.5668,0.0,0.0,0.0,0.0,0.0,0.0,0.0,0.0,-3.8365,-4.0479,-4.2438,-4.4114,-4.5278,-4.473,-4.4208,-4.3601,-4.1969,-3.9445,-3.6187,-3.4666,-3.3019,0.0,0.0,0.0,0.0,0.0,0.0,0.0,0.0,0.0,0.0,0.0,0.0,0.0,0.0,0.0,0.0,0.0,0.0,0.0,0.0,0.0,0.0,0.0,-2.8033,0.0,0.0,0.0,0.0,0.0,0.0,0.0,0.0,0.0,-3.1128,-3.1526,-3.2048,-3.2717,-3.342,-3.4012,-3.4274,0.0,0.0,0.0,0.0,0.0,0.0,0.0,-3.2244,-3.1564,-3.0659,-3.0159,-3.0461,-3.0973,-3.1375,-3.1375,0.0,0.0,-2.8315,-2.7617,-2.7271,-2.7472,-2.8208,-2.8828,-2.903,-2.942,-2.9869,0.0,0.0,0.0,0.0,0.0,0.0,0.0,0.0,-3.9014,-3.8759,0.0,-3.7562,0.0,0.0,0.0,0.0,-3.4811,-3.5346,0.0,0.0,-3.8279,-3.9043,-3.8969,-3.9702,-3.9806,-3.9298,-3.823,-3.725,-3.6462,-3.5499,0.0,0.0,0.0,0.0,0.0,0.0,-3.8687,-4.068,-4.2727,-4.4313,-4.5369,-4.455,-4.412,-4.4116,-4.1745,-3.9433,-3.7313,-3.6249,-3.4731,-3.2574,-3.2341,0.0,0.0,0.0,0.0,0.0,0.0,0.0,0.0,0.0,0.0,0.0,0.0,0.0,0.0,0.0,0.0,0.0,0.0,0.0,0.0,-2.8522,0.0,0.0,0.0,0.0,0.0,0.0,0.0,0.0,0.0,0.0,-3.2476,-3.2367,-3.2532,-3.3277,0.0,0.0,0.0,0.0,-3.4745,-3.5082,-3.5355,-3.5296,-3.4749,-3.4345,-3.3537,-3.2063,0.0,0.0,-3.0864,-3.1686,-3.2332,-3.2332,-3.1847,-3.0953,-2.9596,-2.9012,-2.888,-2.9584,-2.9507,-2.9968,-3.1599,-3.1737,-3.1932,-4.6673,0.0,0.0,0.0,0.0,-4.2925,-4.3492,-4.3989,-4.2782,-4.2094,-4.1725,-4.0015,0.0,0.0,0.0,0.0,0.0,0.0,-3.7664,-3.8525,-3.9863,-4.0628,-4.0869,-4.1353,-4.1331,-4.0957,-4.0204,-3.9409,-3.8697,-3.8021,-3.6537,-3.436,0.0,0.0,0.0,0.0,-3.9115,-4.0662,-4.2294,-4.3869,-4.5324,-4.4618,-4.378,-4.2905,-4.0672,-3.8873,-3.7603,-3.6734,-3.5627,-3.4204,-3.3384,0.0,0.0,0.0,0.0,0.0,0.0,0.0,0.0,0.0,0.0,0.0,0.0,0.0,0.0,0.0,0.0,0.0,0.0,0.0,-2.9927,-3.0175,-3.0451,0.0,0.0,0.0,0.0,0.0,0.0,0.0,0.0,0.0,-3.4117,-3.3791,-3.3772,0.0,0.0,-3.5388,-3.5526,-3.5623,-3.5815,-3.5976,-3.6058,0.0,-3.5727,-3.484,-3.4013,-3.3394,-3.2889,-3.2533,-3.2533,-3.2758,-3.2966,-3.2947,-3.259,-3.2086,-3.1682,-3.0827,-3.0332,-3.046,-3.1216,-3.195,-3.2325,-3.2912,-3.3437,-5.0008,-4.7921,-4.665,-4.5736,-4.5316,-4.5915,-4.6311,-4.6466,-4.5455,-4.4819,-4.4322,-4.2429,-4.086,-3.9665,-3.8193,0.0,0.0,0.0,-3.8919,-4.0012,-4.0737,-4.1521,-4.2267,-4.2669,-4.2669,-4.2245,-4.1682,-4.0957,-4.0126,-3.9646,-3.8423,-3.6566,0.0,0.0,-3.5954,-3.7918,-3.9548,-4.0931,-4.2008,-4.3284,-4.4727,-4.4075,-4.3085,-4.1706,-4.0498,-3.9281,-3.8008,-3.7457,-3.6581,-3.5226,-3.4547,-3.3843,0.0,0.0,0.0,0.0,0.0,0.0,0.0,0.0,0.0,0.0,0.0,-2.9937,-3.0029,0.0,0.0,0.0,-3.0231,-3.0552,-3.0938,-3.1429,0.0,0.0,0.0,0.0,0.0,0.0,0.0,-3.4011,-3.4362,-3.4828,-3.5285,-3.5198,-3.5121,-3.5093,-3.5236,-3.5558,-3.6124,0.0,-3.6292,-3.6891,-3.6914,-3.6874,-3.6771,-3.6097,-3.5477,-3.5205,-3.4567,-3.4097,-3.4047,-3.3861,-3.3674,-3.3687,-3.3606,-3.3604,-3.3737,-3.316,-3.2447,-3.1951,-3.2579,-3.3258,-3.3539,-3.4216,-3.4688,-5.2992,-5.1539,-5.0132,-4.8966,-4.8332,-4.918,-4.8706,-4.7463,-4.7322,-4.6874,-4.6056,-4.4609,-4.3398,-4.2404,-4.0348,0.0,-4.0096,-3.9584,-4.0062,-4.1262,-4.1383,-4.2145,-4.3294,-4.3757,-4.3643,-4.3228,-4.2682,-4.1983,-4.1131,-4.0629,-4.0126,-3.9602,-3.875,-3.7888,-3.7166,-3.8609,-4.0037,-4.1293,-4.1786,-4.2542,-4.3656,-4.3082,-4.2169,-4.0932,-4.0935,-4.0171,-3.8526,-3.844,-3.7606,-3.6011,-3.5715,-3.5064,-3.3955,0.0,0.0,0.0,0.0,0.0,0.0,0.0,0.0,0.0,0.0,0.0,0.0,0.0,0.0,0.0,-3.1202,0.0,-3.1695,-3.2435,0.0,0.0,0.0,-3.4374,-3.4419,-3.4772,-3.5029,-3.5024,0.0,0.0,-3.6034,-3.6457,-3.6469,-3.5719,-3.5045,-3.5125,-3.6295,-3.6199,-3.6434,-3.7593,-3.7806,-3.7827,-3.7891,-3.7607,-3.7156,-3.6636,-3.6025,-3.5325,-3.512,-3.4659,-3.437,-3.4352,-3.4646,-3.4952,-3.5401,-3.5335,-3.5172,-3.3958,-3.3784,-3.4166,-3.5062,-3.541,-3.548,-5.4646,-5.4232,-5.3859,-5.231,-5.01,-5.1076,-5.1109,-5.0315,-4.896,-4.7833,-4.6938,-4.5488,-4.4147,-4.2861,-4.1309,-4.087,-4.133,-4.1501,-4.2199,-4.3184,-4.3616,-4.3965,-4.4233,-4.3993,-4.3818,-4.3643,-4.2835,-4.2289,-4.207,-4.159,-4.0802,-3.9823,-4.0105,-3.9647,-3.8429,-3.9415,-4.0393,-4.1293,-4.1525,-4.1994,-4.2656,-4.2415,-4.2015,-4.1483,-4.0826,-4.0105,-3.9342,-3.932,-3.8755,-3.7566,-3.6924,-3.6248,-3.5496,-3.4646,0.0,0.0,0.0,0.0,0.0,0.0,0.0,0.0,0.0,-3.1851,-3.1694,0.0,-3.1973,0.0,-3.1841,-3.2323,-3.2678,-3.3426,0.0,0.0,-3.4709,-3.5144,-3.5302,-3.5234,-3.5329,-3.5676,-3.5925,-3.6193,-3.65,-3.6698,-3.6777,-3.6587,-3.6445,-3.6492,-3.6707,-3.6556,-3.6771,-3.7572,-3.7932,-3.8141,-3.8719,-3.8343,-3.7519,-3.6005,-3.5617,-3.5139,-3.4352,-3.4075,-3.4024,-3.437,-3.4646,-3.5059,-3.547,-3.5675,-3.5802,-3.549,-3.5412,-3.5471,-3.584,-3.5879,-3.5898,-5.6309,-5.5518,-5.5311,-5.4209,-5.2694,-5.3038,-5.2763,-5.195,-5.1012,-4.9873,-4.8426,-4.6646,-4.5064,-4.3753,-4.2904,-4.2617,-4.2704,-4.3163,-4.3556,-4.3954,-4.4364,-4.4692,-4.4888,-4.4408,-4.4189,-4.4146,-4.3425,-4.2966,-4.2748,-4.2485,-4.1893,-4.0973,-4.1435,-4.1131,-4.0148,-4.0274,-4.0726,-4.1293,-4.1649,-4.1725,-4.1504,-4.166,-4.1504,-4.1088,-4.0345,-3.9733,-3.9253,-3.9012,-3.8554,-3.7833,-3.7345,-3.6867,-3.6326,-3.5479,-3.4659,0.0,0.0,0.0,0.0,0.0,0.0,0.0,0.0,0.0,0.0,0.0,-3.2984,-3.2918,-3.3355,-3.3748,-3.3988,-3.4614,-3.4977,-3.4977,-3.5388,-3.5653,-3.5769,-3.5991,-3.6216,-3.6282,-3.6774,-3.704,-3.7046,-3.704,-3.7154,-3.7154,-3.7144,-3.7151,-3.7031,-3.7084,-3.734,-3.7976,-3.8378,-3.876,-3.932,-3.9386,-3.897,-3.8021,-3.7554,-3.6951,-3.5889,-3.5431,-3.5158,-3.499,-3.5382,-3.5996,-3.6336,-3.6403,-3.6471,-3.6674,-3.6742,-3.6539,-3.6084,-3.6035,-3.6035,-5.7689,-5.6137,-5.5555,-5.5265,-5.5174,-5.4646,-5.3842,-5.2878,-5.2684,-5.1578,-4.9782,-4.7545,-4.5984,-4.4939,-4.467,-4.4386,-4.408,-4.4495,-4.4495,-4.4167,-4.4582,-4.4954,-4.5303,-4.4823,-4.4561,-4.4473,-4.3993,-4.3556,-4.3184,-4.3184,-4.2922,-4.2442,-4.242,-4.2136,-4.159,-4.1154,-4.0973,-4.1251,-4.1956,-4.1723,-4.0497,-4.1015,-4.1015,-4.0475,-3.9907,-3.9362,-3.8947,-3.8466,-3.7964,-3.7505,-3.7461,-3.7265,-3.6784,-3.6085,-3.5553,0.0,-3.4556,0.0,0.0,0.0,0.0,0.0,0.0,0.0,0.0,-3.4197,-3.425,-3.4687,-3.5081,-3.5321,-3.5386,-3.5845,-3.6231,-3.6238,-3.6238,-3.6297,-3.6282,-3.6981,-3.7309,-3.6937,-3.7593,-3.7942,-3.7549,-3.7418,-3.7396,-3.7505,-3.7566,-3.7601,-3.7419,-3.7592,-3.7933,-3.8508,-3.9042,-3.9561,-3.9866,-4.0388,-4.0712,-4.0495,-3.991,-3.932,-3.8109,-3.7508,-3.6856,-3.62,-3.6654,-3.7307,-3.7709,-3.7508,-3.7441,-3.7709,-3.7775,-3.7394,-3.6336,-3.6219,-3.6152,-5.8189,-5.7302,-5.6235,-5.5564,-5.5174,-5.4646,-5.3842,-5.2832,-5.1659,-5.0371,-4.8883,-4.6906,-4.6397,-4.6765,-4.5252,-4.4757,-4.5041,-4.5129,-4.5347,-4.5587,-4.5696,-4.5587,-4.5303,-4.4823,-4.4386,-4.3993,-4.3512,-4.3272,-4.3184,-4.3184,-4.2922,-4.242,-4.242,-4.1983,-4.1175,0.0,0.0,0.0,-4.1806,-4.1946,-4.133,-4.13,-4.13,-4.1264,-4.0189,0.0,-3.9469,-3.8947,-3.8466,-3.8008,-3.7964,0.0,0.0,0.0,0.0,0.0,0.0,0.0,0.0,0.0,0.0,0.0,-3.6604,-3.6172,-3.5398,-3.5492,-3.5662,-3.5692,-3.578,-3.5976,-3.6391,-3.6828,-3.7265,-3.7658,-3.7702,-3.7702,-3.7702,-3.7855,-3.792,-3.7876,-3.8008,-3.8073,-3.7942,-3.7636,-3.7549,-3.7876,-3.7968,-3.8146,-3.8412,-3.8164,-3.821,-3.8852,-3.9779,-4.0431,-4.0582,-4.0906,-4.0906,-4.017,-3.9844,-3.9364,-3.842,-3.8088,-3.8021,-3.7888,-3.8154,-3.842,-3.8838,-3.8838,-3.8772,-3.8904,-3.8904,-3.8308,-3.6491,-3.6674,-3.7059,-5.915,-5.7715,-5.6411,-5.5656,0.0,-5.4646,-5.3842,-5.2855,-5.1862,-5.0526,-4.8922,-4.7262,-4.6905,-4.7326,-4.6129,-4.5522,-4.5325,-4.5544,-4.5522,-4.5325,-4.5544,-4.5412,-4.4954,-4.4451,-4.4102,-4.3911,-4.3403,-4.3053,-4.2813,-4.2791,-4.2551,-4.2049,-4.2049,-4.1808,-4.135,-4.164,-4.1394,-4.0841,-4.1806,-4.1942,-4.1196,-4.1234,-4.1234,-4.1109,-4.0123,0.0,0.0,0.0,0.0,0.0,0.0,0.0,0.0,-3.7658,0.0,-3.7264,-3.7022,-3.7059,-3.7398,-3.7323,-3.7462,-3.7884,-3.8025,-3.7741,-3.6919,-3.715,-3.7396,-3.7374,-3.7374,-3.7483,-3.7724,-3.7964,-3.8204,-3.8423,-3.8248,-3.8095,-3.8095,-3.8095,-3.8008,-3.7811,-3.7964,-3.8029,-3.7767,-3.7789,-3.7833,-3.8095,-3.8532,-3.8881,-3.9122,-3.8933,-3.9043,-3.9842,-4.0342,-4.0841,-4.1035,-4.1293,-4.1421,-4.0884,-4.0884,-4.056,-3.9626,-3.9408,-3.9364,-3.908,-3.9299,-3.9757,-3.9888,-3.9975,-3.9975,-3.9975,-3.9975,-3.9517,-3.7929,-3.7595,-3.7508,-6.0105,-5.7782,-5.6558,-5.5685,-5.5036,-5.46,-5.3773,-5.2717,-5.2074,0.0,0.0,-4.8119,-4.7542,-4.7631,-4.7166,-4.6414,-4.5552,-4.5902,-4.5617,-4.4757,-4.5129,-4.5019,-4.4451,-4.4058,-4.3889,-4.3801,-4.3359,-4.2966,-4.2551,-4.2464,-4.2223,-4.1852,-4.1743,-4.1701,-4.168,-4.1838,-4.1523,-4.0993,-4.1806,-4.1893,-4.1035,-4.1164,-4.1187,-4.0906,-4.0056,-3.9622,-3.9601,-3.91,-3.8753,-3.8753,-3.8753,-3.8753,-3.8753,-3.8466,-3.8226,-3.8226,-3.7942,-3.7942,-3.8335,-3.8073,-3.8226,-3.9034,-3.9012,-3.875,-3.827,-3.8597,-3.8753,-3.8753,-3.8753,-3.8797,-3.8969,-3.8969,-3.8991,-3.9078,-3.8575,-3.8248,-3.8226,-3.8139,-3.7964,-3.7636,-3.7876,-3.7964,-3.7614,-3.7767,-3.8073,-3.8353,-3.8922,-3.9601,-3.9752,-3.9796,-4.0056,-4.0666,-4.0948,-4.11,-4.1357,-4.1678,-4.187,-4.1806,-4.2084,-4.1998,-4.1357,-4.11,-4.069,-4.004,-4.0495,-4.0948,-4.1164,-4.1142,-4.1142,-4.1206,-4.1206,-4.0948,-3.9953,-3.9035,-3.8441,-6.0742,-5.8088,-5.7267,-5.6011,-5.4531,-5.4439,-5.3589,-5.2189,-5.0834,-5.0125,-4.9805,-4.8779,-4.8374,-4.8477,-4.7999,-4.7284,-4.6433,-4.65,-4.6014,-4.5216,-4.5281,-4.4823,-4.4042,-4.3954,-4.3665,-4.3294,-4.3206,-4.3141,-4.3032,-4.2617,-4.2376,-4.2267,-4.1896,-4.1615,-4.1529,-4.1457,-4.1318,-4.1251,-4.1956,-4.2061,-4.1678,-4.1421,-4.1315,-4.1229,-4.0184,-3.9622,-3.9601,-3.91,-3.8753,-3.8753,-3.8753,-3.8753,-3.8775,-3.8731,-3.8666,-3.875,-3.9056,-3.9338,-3.9404,-3.9668,-3.993,-4.0039,-3.9689,-3.9253,-3.8794,-3.8731,-3.8753,-3.8775,-3.8818,-3.9012,-3.9384,-3.9513,-3.9602,-3.9908,-3.9253,-3.8728,-3.8663,-3.8313,-3.8051,-3.7942,-3.8051,-3.8073,-3.792,-3.7785,-3.8038,-3.8883,-3.9088,-3.9358,-4.0314,-4.0602,-4.0775,-4.1164,-4.1486,-4.1678,-4.1806,-4.202,-4.2212,-4.2189,-4.2275,-4.2275,-4.202,-4.1934,-4.187,-4.1806,-4.187,-4.2125,-4.2379,-4.2506,-4.2506,-4.2673,-4.2759,-4.2546,-4.1824,-4.1312,-4.071,-6.1086,-5.8728,-5.8288,-5.6705,-5.437,-5.3819,-5.3061,-5.2074,-5.0857,-5.0269,-5.0277,-4.9617,-4.9397,-4.9404,-4.8726,-4.8007,-4.7314,-4.7025,-4.6417,-4.5512,-4.5489,-4.5052,-4.4165,-4.4099,-4.401,-4.3789,-4.358,-4.3309,-4.3093,-4.2404,-4.1896,-4.1634,-4.1175,-4.1001,-4.1109,-4.1234,-4.1357,-4.155,-4.2084,-4.2125,-4.1783,-4.1486,-4.138,-4.155,-4.0555,-4.0059,-4.0252,-3.9862,-3.9624,-3.9624,-3.9624,-3.9624,-3.9624,-3.9624,-3.9624,-3.9624,-3.9821,-3.9952,-3.9952,-4.0148,-4.017,-3.9908,-3.9994,-3.9864,-3.9646,-3.9624,-3.9624,-3.9624,-3.9624,-3.9689,-3.9994,-4.0016,-4.0016,-3.9951,-3.9421,-3.8916,-3.8507,-3.8192,-3.7906,-3.7763,-3.7906,-3.7967,-3.7967,-3.8172,-3.8487,-3.9143,-3.9241,-3.9815,-4.0778,-4.0729,-4.0751,-4.1392,-4.1474,-4.1747,-4.2184,-4.2275,-4.2402,-4.2529,-4.2402,-4.2339,-4.2275,-4.2339,-4.2339,-4.2339,-4.2466,-4.2593,-4.2822,-4.2949,-4.3137,-4.3263,-4.3326,-4.3114,-4.2862,-4.2736,-4.2143,-6.1587,-5.9499,-5.935,-5.7477,-5.4627,-5.3313,-5.2464,-5.1936,-5.1018,-5.0627,-5.0551,-5.0269,-5.0193,-5.0148,-4.9457,-4.8734,-4.8119,-4.7692,-4.69,-4.5931,-4.5774,-4.5259,-4.4544,-4.4409,-4.4342,-4.4273,-4.3905,-4.3589,-4.319,-4.2296,-4.1568,-4.1022,-4.0694,-4.0714,-4.0906,-4.1229,-4.155,-4.187,-4.2148,-4.2148,-4.1934,-4.155,-4.155,-4.1742,-4.0971,-4.0669,-4.0906,-4.0604,-4.0409,-4.0409,-4.0344,-4.0344,-4.0344,-4.0344,-4.0344,-4.0344,-4.0344,-4.0344,-4.0344,-4.0344,-4.0169,-3.9819,-4.0061,-4.0344,-4.0344,-4.0344,-4.0344,-4.0344,-4.0236,-4.0323,-4.0301,-4.0278,-4.0081,-3.9686,-3.9431,-3.9007,-3.8446,-3.8127,-3.7938,-3.7698,-3.7878,-3.8021,-3.8125,-3.8573,-3.9008,-3.9276,-3.9927,-4.0649,-4.0944,-4.0751,-4.0881,-4.1291,-4.1337,-4.1371,-4.2302,-4.2339,-4.2362,-4.266,-4.2627,-4.2546,-4.257,-4.2593,-4.2529,-4.2593,-4.2759,-4.2949,-4.3012,-4.3263,-4.3451,-4.3576,-4.3639,-4.3576,-4.3576,-4.3514,-4.324,-6.2432,-6.0782,-6.0199,-5.8253,-5.5447,-5.3302,-5.2037,-5.1454,-5.0857,-5.0627,-5.0506,-5.0551,-5.0551,-5.0551,-5.043,-4.9654,-4.8514,-4.8378,-4.7665,-4.6474,-4.5908,-4.5438,-4.4948,-4.4544,-4.4342,-4.4273,-4.3927,-4.3883,-4.4047,-4.2894,-4.1874,-4.1176,-4.1265,-4.135,-4.1296,-4.1572,-4.1956,-4.2275,-4.2275,-4.2275,-4.2212,-4.1934,-4.1806,-4.1806,-4.1421,-4.1251,-4.1251,-4.0971,-4.0777,-4.0712,-4.0474,-4.0344,-4.0344,-4.0344,-4.0344,-4.0344,-4.0344,-4.0344,-4.0344,-4.0344,-4.0323,-4.0214,-4.0236,-4.0344,-4.0344,-4.0344,-4.0344,-4.0344,-4.0344,-4.0344,-4.0323,-4.0166,-4.0008,-3.9853,-3.9477,-3.9059,-3.8908,-3.8611,-3.832,-3.832,-3.832,-3.838,-3.838,-3.8612,-3.8972,-3.9775,-4.1007,-4.1638,-4.1234,-4.1184,-4.1098,-4.1222,-4.1076,-4.1061,-4.153,-4.1847,-4.2296,-4.2552,-4.2919,-4.3067,-4.3075,-4.3137,-4.32,-4.3012,-4.32,-4.3326,-4.3576,-4.374,-4.3826,-4.4013,-4.4099,-4.4161,-4.4223,-4.4161,-4.3826,-6.2613,-6.0913,-6.1171,-5.9922,-5.7561,-5.5231,-5.3428,-5.2043,-5.2075,-5.1252,-4.9973,-5.103,-5.1396,-5.1064,-5.0765,-5.0224,-4.9736,-4.9091,-4.8452,-4.7599,-4.6803,-4.6189,-4.5665,-4.5187,-4.496,-4.4937,-4.4526,-4.4457,-4.4322,-4.3263,-4.2327,-4.1727,-4.177,-4.1943,-4.2023,-4.2195,-4.2453,-4.2775,-4.2477,-4.2275,-4.2275,-4.1998,-4.187,-4.1998,-4.155,-4.1444,-4.155,-4.1293,-4.11,-4.11,-4.0777,-4.0647,-4.0864,-4.0734,-4.0582,-4.0582,-4.0409,-4.0344,-4.0344,-4.0344,-4.0344,-4.0344,-4.0344,-4.0344,-4.0344,-4.0344,-4.0344,-4.0344,-4.0344,-4.0344,-4.0301,-4.0142,-3.9936,-3.9667,-3.9417,-3.9228,-3.8694,-3.8672,-3.8596,-3.844,-3.8537,-3.8716,-3.8999,-3.9501,-4.02,-4.0846,-4.1766,-4.1883,-4.1576,-4.155,-4.1275,-4.0808,-4.0735,-4.1345,-4.2033,-4.2263,-4.2582,-4.305,-4.3286,-4.3326,-4.3389,-4.3326,-4.3326,-4.3326,-4.3514,-4.3678,-4.374,-4.4013,-4.4161,-4.4347,-4.4347,-4.4285,-4.4285,-4.4285,-4.4161,-6.2844,-6.1531,-6.132,-6.0399,-5.8832,-5.6277,-5.4128,-5.2395,-5.2792,-5.1754,-5.0149,-5.1932,-5.2471,-5.1831,-5.1148,-5.0788,-5.0536,-5.0146,-4.9549,-4.8829,-4.8239,-4.7493,-4.6519,-4.6055,-4.5686,-4.5347,-4.5006,-4.4732,-4.4595,-4.3849,-4.3062,-4.2569,-4.2568,-4.2632,-4.2781,-4.2798,-4.2906,-4.3211,-4.266,-4.2408,-4.2436,-4.213,-4.2061,-4.2212,-4.1829,-4.1678,-4.1934,-4.1678,-4.155,-4.155,-4.1357,-4.1357,-4.155,-4.1357,-4.1206,-4.1206,-4.0971,-4.0777,-4.0712,-4.0734,-4.0669,-4.0604,-4.0539,-4.0539,-4.0474,-4.0409,-4.0388,-4.0474,-4.0474,-4.0474,-4.0409,-4.0334,-4.0145,-3.9851,-3.9785,-3.9484,-3.901,-3.8985,-3.8894,-3.8775,-3.9012,-3.9236,-3.9775,-4.0644,-4.1505,-4.1878,-4.2131,-4.2168,-4.2131,-4.2131,-4.2005,-4.107,-4.1377,-4.1816,-4.2518,-4.2587,-4.2919,-4.3593,-4.3784,-4.395,-4.3888,-4.3888,-4.3888,-4.4261,-4.4199,-4.4261,-4.4385,-4.4532,-4.4532,-4.4532,-4.4532,-4.447,-4.447,-4.4409,-4.4347,-6.3332,-6.2374,-6.0276,-5.9159,-5.8323,-5.5582,-5.3351,-5.2113,-5.24,-5.2185,-5.175,-5.3278,-5.3714,-5.2996,-5.2007,-5.111,-5.0825,-5.1718,-5.1228,-4.9896,-5.0333,-4.9562,-4.74,-4.6967,-4.6338,-4.5551,-4.521,-4.48,-4.4548,-4.4573,-4.4278,-4.3489,-4.3691,-4.3645,-4.3347,-4.3176,-4.3326,-4.3648,-4.2867,-4.2591,-4.2936,-4.2527,-4.2344,-4.2385,-4.2275,-4.2275,-4.2275,-4.2229,-4.2229,-4.2229,-4.2229,-4.2229,-4.2229,-4.2229,-4.2229,-4.2229,-4.2166,-4.2038,-4.1742,-4.1655,-4.155,-4.1315,-4.1229,-4.11,-4.0906,-4.0906,-4.0841,-4.0777,-4.0841,-4.0841,-4.0797,-4.0845,-4.0954,-4.0904,-4.0372,-4.0028,-3.9997,-3.9501,-3.9472,-3.9672,-3.9859,-4.0163,-4.0809,-4.1685,-4.2242,-4.2644,-4.3055,-4.3238,-4.2824,-4.3092,-4.3156,-4.2843,-4.2769,-4.2829,-4.2018,-4.2556,-4.3289,-4.3869,-4.4609,-4.5025,-4.5208,-4.5208,-4.5172,-4.511,-4.5098,-4.5098,-4.5172,-4.5208,-4.5147,-4.5086,-4.4963,-4.4902,-4.4902,-4.4532,-4.4532,-6.3352,-6.226,-6.1365,-6.049,-5.9459,-5.8042,-5.6099,-5.3964,-5.4442,-5.3758,-5.2759,-5.3967,-5.408,-5.307,-5.3504,-5.3175,-5.2434,-5.3125,-5.2764,-5.1503,-5.1117,-5.0125,-4.8613,-4.7471,-4.6741,-4.6405,-4.6204,-4.6069,-4.5955,-4.5809,-4.5152,-4.4366,-4.4344,-4.4296,-4.4068,-4.3742,-4.3808,-4.4153,-4.3326,-4.3051,-4.3552,-4.3632,-4.3466,-4.3119,-4.2818,-4.2633,-4.2656,-4.2799,-4.2925,-4.2925,-4.2759,-4.2673,-4.2886,-4.2736,-4.2633,-4.2633,-4.242,-4.2229,-4.2166,-4.2102,-4.2102,-4.1975,-4.1911,-4.1934,-4.1783,-4.1783,-4.1655,-4.1527,-4.1655,-4.1655,-4.146,-4.1226,-4.108,-4.1029,-4.0525,-4.0209,-4.0214,-3.9926,-3.9836,-4.0457,-4.0999,-4.1507,-4.1816,-4.2543,-4.307,-4.3201,-4.3818,-4.3988,-4.3795,-4.416,-4.4354,-4.3731,-4.3717,-4.3888,-4.3563,-4.3636,-4.4072,-4.4572,-4.511,-4.5208,-4.5355,-4.5786,-4.5822,-4.5687,-4.5687,-4.5736,-4.5747,-4.555,-4.555,-4.5514,-4.5331,-4.5453,-4.5453,-4.5245,-4.5245,-6.3385,-6.2111,-6.1848,-6.1143,-6.0001,-5.9155,-5.748,-5.5535,-5.5744,-5.5108,-5.428,-5.5363,-5.5467,-5.4913,-5.5774,-5.536,-5.4105,-5.4597,-5.4205,-5.2962,-5.268,-5.1737,-5.0166,-4.8901,-4.8154,-4.7889,-4.7521,-4.7407,-4.7359,-4.7088,-4.6418,-4.5378,-4.5378,-4.5244,-4.4951,-4.4446,-4.4446,-4.4766,-4.4028,-4.3752,-4.4167,-4.4295,-4.4324,-4.4039,-4.3752,-4.3402,-4.3058,-4.3326,-4.3428,-4.3451,-4.3326,-4.3389,-4.3576,-4.3389,-4.3263,-4.3263,-4.3075,-4.2862,-4.2799,-4.2799,-4.2736,-4.261,-4.261,-4.261,-4.2483,-4.2483,-4.2379,-4.2252,-4.2293,-4.2379,-4.2247,-4.1994,-4.1748,-4.1491,-4.1053,-4.0722,-4.0741,-4.0559,-4.0797,-4.1376,-4.2101,-4.2567,-4.2771,-4.342,-4.3843,-4.3916,-4.456,-4.4744,-4.461,-4.4975,-4.5354,-4.4798,-4.514,-4.5523,-4.5561,-4.571,-4.5193,-4.5489,-4.5907,-4.5846,-4.5945,-4.6378,-4.6526,-4.6279,-4.6167,-4.6215,-4.6127,-4.5988,-4.5878,-4.5903,-4.5974,-4.6095,-4.6095,-4.6095,-4.5974,-6.3298,-6.2213,-6.1646,-6.088,-5.9755,-5.8411,-5.699,-5.6181,-5.6046,-5.6107,-5.6271,-5.7556,-5.7633,-5.7817,-5.8108,-5.7494,-5.5732,-5.615,-5.5534,-5.4014,-5.4988,-5.4251,-5.2093,-5.1357,-5.067,-4.9859,-4.8969,-4.8616,-4.8641,-4.8542,-4.797,-4.7093,-4.6803,-4.6445,-4.5934,-4.5399,-4.5332,-4.5518,-4.4887,-4.4635,-4.5007,-4.477,-4.4711,-4.4942,-4.5178,-4.4728,-4.353,-4.3686,-4.3874,-4.3826,-4.4075,-4.4285,-4.4223,-4.4161,-4.4223,-4.4161,-4.4223,-4.4099,-4.3802,-4.374,-4.3553,-4.3389,-4.3302,-4.3177,-4.3012,-4.2886,-4.2886,-4.2822,-4.2822,-4.2886,-4.3137,-4.3153,-4.2879,-4.2397,-4.2071,-4.1769,-4.1527,-4.1653,-4.1956,-4.2352,-4.3035,-4.3505,-4.3686,-4.4159,-4.4633,-4.4743,-4.511,-4.5429,-4.5355,-4.5723,-4.6079,-4.645,-4.6586,-4.6734,-4.7332,-4.7745,-4.6995,-4.6448,-4.6759,-4.6945,-4.707,-4.7432,-4.7645,-4.7556,-4.728,-4.7302,-4.7162,-4.7021,-4.6964,-4.6914,-4.6873,-4.6771,-4.6695,-4.6636,-4.6456,-6.2951,-6.2213,-6.1781,-6.0974,-5.9834,-5.9068,-5.8191,-5.7214,-5.7173,-5.7181,-5.7398,-5.7704,-5.7737,-5.772,-5.8175,-5.7721,-5.6598,-5.712,-5.6294,-5.4783,-5.5481,-5.5191,-5.3752,-5.2787,-5.2207,-5.1779,-5.102,-5.0572,-5.0496,-5.0153,-4.9282,-4.8174,-4.7804,-4.7473,-4.6917,-4.6092,-4.5779,-4.613,-4.5638,-4.5544,-4.599,-4.6096,-4.6035,-4.5859,-4.6138,-4.5868,-4.5159,-4.4816,-4.452,-4.4209,-4.4223,-4.4285,-4.4285,-4.4285,-4.4285,-4.4285,-4.4285,-4.4285,-4.4161,-4.4161,-4.4075,-4.4013,-4.3974,-4.395,-4.385,-4.3787,-4.3701,-4.3514,-4.349,-4.3451,-4.3302,-4.3326,-4.32,-4.3012,-4.2693,-4.2465,-4.2546,-4.2695,-4.2962,-4.3216,-4.3868,-4.4365,-4.4475,-4.4939,-4.5221,-4.5331,-4.5798,-4.618,-4.6291,-4.6736,-4.722,-4.7533,-4.7682,-4.7881,-4.8308,-4.8635,-4.8244,-4.7741,-4.7842,-4.7929,-4.8117,-4.8432,-4.8646,-4.8669,-4.8451,-4.8284,-4.8141,-4.8049,-4.7991,-4.7897,-4.7812,-4.7607,-4.7393,-4.7334,-4.7308,-6.3592,-6.2748,-6.2431,-6.1593,-6.0359,-5.9863,-5.922,-5.842,-5.8157,-5.8322,-5.855,-5.8673,-5.8516,-5.8359,-5.8487,-5.7926,-5.6928,-5.7406,-5.6667,-5.5203,-5.5969,-5.5922,-5.5115,-5.4315,-5.3749,-5.35,-5.2865,-5.258,-5.258,-5.2178,-5.1229,-4.9931,-4.9388,-4.8697,-4.7877,-4.7003,-4.656,-4.6583,-4.6323,-4.63,-4.6626,-4.6898,-4.6889,-4.6735,-4.6885,-4.6728,-4.6247,-4.5886,-4.5477,-4.4933,-4.4693,-4.4597,-4.4573,-4.4597,-4.4669,-4.4813,-4.4693,-4.4597,-4.4549,-4.4405,-4.4285,-4.4285,-4.4285,-4.4285,-4.4285,-4.4285,-4.4161,-4.4013,-4.395,-4.3888,-4.3701,-4.3639,-4.3639,-4.3639,-4.3316,-4.3227,-4.3549,-4.3686,-4.3893,-4.4184,-4.4853,-4.5158,-4.5379,-4.5785,-4.6081,-4.6217,-4.6625,-4.7097,-4.7171,-4.7558,-4.7933,-4.8259,-4.851,-4.8798,-4.9251,-4.9365,-4.9427,-4.915,-4.9011,-4.8997,-4.8971,-4.9404,-4.9722,-4.9563,-4.9379,-4.9271,-4.9125,-4.9048,-4.898,-4.8877,-4.8687,-4.8618,-4.8498,-4.8625,-4.8669,-6.4836,-6.3513,-6.3415,-6.2452,-6.1091,-6.0414,-5.9964,-5.9552,-5.9019,-5.928,-5.9862,-5.9889,-5.9908,-5.971,-5.9222,-5.8198,-5.6955,-5.7291,-5.713,-5.6478,-5.6771,-5.6997,-5.6605,-5.6176,-5.5719,-5.5183,-5.4741,-5.448,-5.4272,-5.4113,-5.3609,-5.209,-5.1351,-5.0472,-4.9076,-4.8184,-4.7643,-4.7175,-4.7103,-4.7103,-4.7055,-4.7032,-4.7165,-4.7383,-4.7425,-4.7209,-4.6824,-4.668,-4.6439,-4.5934,-4.5317,-4.5125,-4.5125,-4.5125,-4.5317,-4.5742,-4.5366,-4.5173,-4.5005,-4.4669,-4.4405,-4.4405,-4.4333,-4.4285,-4.4285,-4.4285,-4.4285,-4.4285,-4.4285,-4.4285,-4.4223,-4.4223,-4.4223,-4.4285,-4.4003,-4.4103,-4.4645,-4.4378,-4.45,-4.5184,-4.5773,-4.6155,-4.6179,-4.691,-4.7234,-4.7458,-4.7671,-4.7895,-4.8008,-4.8284,-4.8585,-4.8913,-4.9292,-4.9645,-4.9987,-5.0138,-5.0201,-5.0249,-5.0135,-4.9996,-4.9919,-5.0278,-5.0598,-5.04,-5.024,-5.0104,-5.0062,-4.9939,-4.9784,-4.9637,-4.9585,-4.9681,-4.9611,-4.9523,-4.9497,-6.478,-6.3594,-6.3411,-6.2638,-6.1469,-6.0736,-6.0331,-6.0208,-5.9648,-5.9531,-5.9761,-5.9787,-5.982,-5.9605,-5.898,-5.8536,-5.8402,-5.8118,-5.8115,-5.8172,-5.8307,-5.8196,-5.7911,-5.8019,-5.7748,-5.7088,-5.6316,-5.5854,-5.5398,-5.5022,-5.4447,-5.3726,-5.2903,-5.1987,-5.0852,-4.9793,-4.8822,-4.8098,-4.794,-4.7791,-4.7479,-4.7431,-4.7364,-4.7497,-4.7497,-4.7425,-4.7305,-4.7281,-4.6848,-4.6006,-4.5814,-4.5654,-4.5718,-4.5718,-4.5814,-4.5934,-4.5774,-4.5654,-4.5621,-4.5173,-4.4885,-4.4813,-4.4525,-4.4285,-4.4285,-4.4285,-4.4285,-4.4285,-4.4285,-4.4347,-4.4347,-4.4347,-4.4409,-4.4594,-4.4618,-4.4742,-4.5086,-4.511,-4.5184,-4.5798,-4.6229,-4.665,-4.7097,-4.7508,-4.7883,-4.7958,-4.8284,-4.8661,-4.8838,-4.9191,-4.9546,-4.9926,-5.0257,-5.0498,-5.0764,-5.0853,-5.0954,-5.1216,-5.1127,-5.0976,-5.0898,-5.1002,-5.1205,-5.1262,-5.0883,-5.0711,-5.0779,-5.0758,-5.0571,-5.0367,-5.0367,-5.0376,-5.0019,-4.9819,-4.9897,-6.5052,-6.3956,-6.3892,-6.3199,-6.2213,-6.1523,-6.1135,-6.0887,-6.0403,-6.0135,-6.0135,-6.0135,-5.9931,-5.9705,-5.9264,-5.9035,-5.9103,-5.8708,-5.853,-5.8503,-5.8557,-5.8367,-5.8205,-5.8476,-5.8286,-5.7716,-5.7169,-5.6753,-5.6401,-5.6023,-5.5653,-5.5119,-5.4448,-5.3503,-5.2143,-5.1113,-5.0141,-4.9364,-4.9124,-4.8802,-4.8772,-4.833,-4.8133,-4.8002,-4.7828,-4.7497,-4.7497,-4.7497,-4.7088,-4.6439,-4.6247,-4.6247,-4.6247,-4.6247,-4.6343,-4.6535,-4.6391,-4.6247,-4.6175,-4.5766,-4.5381,-4.5077,-4.4741,-4.4525,-4.4357,-4.4285,-4.4285,-4.4285,-4.4409,-4.4532,-4.4532,-4.4656,-4.4902,-4.5172,-4.5405,-4.565,-4.5859,-4.5859,-4.6168,-4.6749,-4.7222,-4.7596,-4.8033,-4.8397,-4.8586,-4.8749,-4.9064,-4.9381,-4.9609,-5.0079,-5.0423,-5.0677,-5.0867,-5.0994,-5.1146,-5.1298,-5.1428,-5.1654,-5.1925,-5.1836,-5.1627,-5.1601,-5.1638,-5.1638,-5.146,-5.1335,-5.1361,-5.1361,-5.1164,-5.1028,-5.1064,-5.1021,-5.0655,-5.0368,-5.0394,-6.5472,-6.4538,-6.4523,-6.4024,-6.3057,-6.2494,-6.1971,-6.1654,-6.1068,-6.0851,-6.0755,-6.0782,-6.047,-5.9996,-5.9846,-5.9643,-5.9263,-5.9182,-5.8829,-5.8612,-5.8476,-5.8433,-5.8254,-5.8418,-5.8173,-5.7656,-5.7439,-5.7357,-5.7157,-5.7129,-5.6848,-5.6303,-5.5835,-5.4731,-5.336,-5.2297,-5.1494,-5.0789,-5.0494,-5.0368,-5.019,-4.9521,-4.8976,-4.8698,-4.8026,-4.763,-4.763,-4.7606,-4.7454,-4.6954,-4.6865,-4.68,-4.68,-4.68,-4.6968,-4.7233,-4.6992,-4.6776,-4.6631,-4.615,-4.5582,-4.5173,-4.5068,-4.4876,-4.4529,-4.447,-4.4532,-4.4532,-4.4717,-4.484,-4.4926,-4.5196,-4.5539,-4.5883,-4.6352,-4.6687,-4.6786,-4.6737,-4.7035,-4.7845,-4.846,-4.8711,-4.8962,-4.9302,-4.9604,-4.9329,-4.9723,-5.0003,-5.0219,-5.0473,-5.0804,-5.112,-5.1183,-5.1272,-5.1512,-5.169,-5.1873,-5.2067,-5.2459,-5.2421,-5.2003,-5.1899,-5.1936,-5.1873,-5.194,-5.1888,-5.1732,-5.1716,-5.1648,-5.1481,-5.1387,-5.1465,-5.1465,-5.1204,-5.1126,-6.581,-6.4719,-6.4917,-6.4333,-6.3278,-6.2811,-6.2522,-6.233,-6.1548,-6.1166,-6.1098,-6.0961,-6.0742,-6.0607,-6.0226,-6.0023,-6.0253,-5.9955,-5.9616,-5.9561,-5.9507,-5.9082,-5.8789,-5.8964,-5.8882,-5.839,-5.8567,-5.8282,-5.7761,-5.7614,-5.7377,-5.7038,-5.6547,-5.5575,-5.4443,-5.4014,-5.3203,-5.2205,-5.2185,-5.1969,-5.1318,-5.0493,-4.9731,-4.9147,-4.8313,-4.796,-4.796,-4.8182,-4.8264,-4.8101,-4.77,-4.7454,-4.7413,-4.7371,-4.7419,-4.7491,-4.7467,-4.7202,-4.6752,-4.6359,-4.5718,-4.5324,-4.5199,-4.4839,-4.4766,-4.4926,-4.5049,-4.5086,-4.5147,-4.5208,-4.5368,-4.5933,-4.6266,-4.66,-4.7183,-4.7783,-4.8084,-4.7883,-4.7971,-4.846,-4.8774,-4.9001,-4.9378,-4.9735,-4.9976,-5.004,-5.0232,-5.055,-5.0741,-5.0931,-5.112,-5.1372,-5.1617,-5.1695,-5.194,-5.2197,-5.247,-5.2612,-5.2926,-5.3147,-5.2728,-5.2533,-5.2623,-5.2638,-5.2589,-5.2406,-5.2051,-5.2009,-5.1852,-5.1737,-5.1763,-5.1983,-5.2124,-5.1931,-5.192,-6.6061,-6.5246,-6.5348,-6.4721,-6.3747,-6.3236,-6.2892,-6.2577,-6.1889,-6.1546,-6.1478,-6.1343,-6.1275,-6.1275,-6.0797,-6.0825,-6.1015,-6.07,-6.0563,-6.0563,-6.0289,-5.9671,-5.9511,-5.9614,-5.9569,-5.8668,-5.8539,-5.8457,-5.8356,-5.8384,-5.8347,-5.8126,-5.7577,-5.6821,-5.5709,-5.5362,-5.4628,-5.3983,-5.3948,-5.3817,-5.3429,-5.267,-5.1317,-5.0042,-4.9158,-4.8582,-4.8338,-4.8445,-4.8837,-4.9007,-4.8918,-4.8461,-4.8116,-4.805,-4.7984,-4.7984,-4.805,-4.7953,-4.7564,-4.728,-4.6883,-4.6017,-4.6061,-4.583,-4.5624,-4.5613,-4.5699,-4.5626,-4.565,-4.5673,-4.6104,-4.645,-4.6934,-4.7519,-4.8133,-4.8749,-4.9077,-4.8737,-4.8598,-4.9178,-4.9418,-4.9697,-5.0002,-5.0206,-5.0295,-5.0359,-5.0614,-5.0931,-5.0994,-5.112,-5.1346,-5.1549,-5.1873,-5.2171,-5.2433,-5.2732,-5.311,-5.3226,-5.3433,-5.3614,-5.353,-5.3467,-5.3418,-5.3196,-5.278,-5.2555,-5.2276,-5.2197,-5.2454,-5.2648,-5.2817,-5.2833,-5.2939,-5.3134,-5.3123,-6.623,-6.5668,-6.5668,-6.5165,-6.4371,-6.3867,-6.3536,-6.3221,-6.2406,-6.2212,-6.2034,-6.1939,-6.1681,-6.1721,-6.1478,-6.1546,-6.1678,-6.1469,-6.1414,-6.152,-6.075,-6.0346,-6.0255,-6.0236,-6.0023,-5.8748,-5.8951,-5.9081,-5.9294,-5.9312,-5.9248,-5.9183,-5.8961,-5.8044,-5.7077,-5.6542,-5.6095,-5.5654,-5.566,-5.5724,-5.569,-5.5087,-5.3561,-5.1704,-5.0644,-4.9841,-4.9516,-4.9496,-4.9629,-5.0117,-5.0283,-4.9925,-4.9421,-4.9001,-4.9059,-4.9084,-4.9076,-4.8829,-4.8616,-4.8535,-4.8142,-4.7224,-4.7459,-4.7301,-4.6611,-4.6303,-4.6365,-4.6378,-4.6402,-4.6548,-4.7205,-4.7543,-4.7929,-4.8556,-4.9152,-4.962,-4.9771,-4.9393,-4.9558,-4.9901,-5.0015,-5.013,-5.0372,-5.0588,-5.0652,-5.0741,-5.102,-5.1235,-5.1298,-5.1528,-5.1706,-5.1977,-5.2354,-5.2952,-5.3305,-5.3357,-5.3737,-5.3851,-5.4006,-5.4001,-5.4193,-5.4251,-5.4017,-5.3229,-5.2823,-5.2807,-5.2985,-5.318,-5.3439,-5.3707,-5.3724,-5.3678,-5.3954,-5.4347,-5.4219,-6.623,-6.5668,-6.5668,-6.544,-6.5109,-6.5035,-6.5046,-6.5124,-6.3965,-6.351,-6.3292,-6.2308,-6.1912,-6.1872,-6.1816,-6.1979,-6.2331,-6.2326,-6.2208,-6.2117,-6.1575,-6.1231,-6.1006,-6.0961,-6.0709,-6.067,-6.0522,-6.0477,-6.0375,-6.0338,-6.0209,-5.9921,-5.979,-5.9155,-5.8457,-5.8237,-5.7788,-5.7193,-5.7286,-5.7385,-5.6946,-5.6124,-5.5002,-5.3203,-5.2542,-5.1872,-5.1383,-5.1543,-5.1659,-5.1068,-5.1695,-5.197,-5.1789,-5.1152,-5.0865,-5.0832,-5.029,-4.9735,-4.9446,-4.9249,-4.869,-4.8065,-4.8036,-4.7965,-4.7408,-4.7147,-4.7233,-4.7457,-4.757,-4.7718,-4.8241,-4.852,-4.8999,-4.9555,-4.9987,-5.0434,-5.046,-5.0422,-5.041,-5.0819,-5.0768,-5.0665,-5.0933,-5.1137,-5.1278,-5.1419,-5.1687,-5.1788,-5.1825,-5.2045,-5.2317,-5.2616,-5.2903,-5.3593,-5.4287,-5.4325,-5.4443,-5.4463,-5.4485,-5.431,-5.4544,-5.4815,-5.4591,-5.4033,-5.3874,-5.398,-5.416,-5.425,-5.442,-5.4707,-5.4644,-5.4517,-5.4858,-5.52,-5.4901,-6.7025,-6.6769,-6.6769,-6.6469,-6.6094,-6.6076,-6.5973,-6.585,-6.5202,-6.4763,-6.4364,-6.3606,-6.3359,-6.3404,-6.2978,-6.3264,-6.3729,-6.3743,-6.3621,-6.3442,-6.3036,-6.249,-6.2167,-6.2013,-6.1892,-6.1929,-6.1911,-6.1753,-6.1333,-6.1305,-6.1175,-6.1082,-6.0885,-6.0282,-5.9608,-5.9478,-5.9119,-5.8538,-5.8665,-5.8618,-5.8,-5.7195,-5.6141,-5.5337,-5.4453,-5.3741,-5.3271,-5.3239,-5.3459,-5.3307,-5.3597,-5.4026,-5.4019,-5.3573,-5.2723,-5.2178,-5.1266,-5.0554,-5.0212,-4.9877,-4.9112,-4.849,-4.8668,-4.8785,-4.851,-4.8372,-4.8294,-4.8368,-4.8517,-4.868,-4.9146,-4.9453,-4.9808,-5.0367,-5.0739,-5.106,-5.1393,-5.1534,-5.1689,-5.1703,-5.1292,-5.1329,-5.1675,-5.188,-5.2022,-5.219,-5.2395,-5.2369,-5.238,-5.2668,-5.2955,-5.3267,-5.3593,-5.4076,-5.4678,-5.4664,-5.4899,-5.5061,-5.4975,-5.4798,-5.4888,-5.5237,-5.5461,-5.5337,-5.531,-5.5253,-5.5237,-5.5273,-5.5525,-5.5714,-5.5831,-5.5885,-5.5912,-5.5912,-5.5784,-6.7679,-6.7679,-6.7679,-6.7461,-6.7129,-6.71,-6.6911,-6.6481,-6.6242,-6.5954,-6.5639,-6.5021,-6.4897,-6.5096,-6.4791,-6.4639,-6.5496,-6.5136,-6.4954,-6.4847,-6.4295,-6.3751,-6.3479,-6.337,-6.3195,-6.2883,-6.298,-6.2821,-6.223,-6.2146,-6.2183,-6.2052,-6.1855,-6.1482,-6.0914,-6.0645,-6.006,-5.9792,-5.9726,-5.9548,-5.8947,-5.8325,-5.7732,-5.7264,-5.6342,-5.5582,-5.4951,-5.4997,-5.4894,-5.4849,-5.5078,-5.5534,-5.6017,-5.5571,-5.4539,-5.3369,-5.2128,-5.1569,-5.1228,-5.0664,-4.9981,-4.9428,-4.9733,-4.9773,-4.9622,-4.9469,-4.9404,-4.9219,-4.9332,-4.9512,-4.9933,-5.0047,-5.0466,-5.0965,-5.135,-5.1583,-5.2138,-5.2436,-5.2723,-5.2528,-5.1984,-5.2036,-5.245,-5.2566,-5.267,-5.2723,-5.2865,-5.2981,-5.2981,-5.3295,-5.3621,-5.3947,-5.4234,-5.4625,-5.4872,-5.4837,-5.5136,-5.5472,-5.5383,-5.5141,-5.5321,-5.5636,-5.5916,-5.6259,-5.6547,-5.6461,-5.6428,-5.6466,-5.6709,-5.6898,-5.7109,-5.7201,-5.7017,-5.7061,-5.7077,-6.7679,-6.7679,-6.7679,-6.7856,-6.8101,-6.8072,-6.8276,-6.8277,-6.7488,-6.7152,-6.6959,-6.6184,-6.5726,-6.5812,-6.584,-6.5955,-6.6041,-6.5828,-6.5643,-6.5658,-6.4951,-6.4447,-6.4239,-6.4009,-6.3908,-6.3671,-6.3749,-6.3413,-6.2915,-6.2783,-6.2773,-6.2679,-6.2595,-6.2455,-6.1828,-6.1641,-6.1435,-6.0959,-6.0883,-6.0574,-5.9957,-5.9298,-5.9045,-5.8703,-5.8181,-5.7474,-5.6781,-5.6851,-5.6632,-5.5502,-5.5941,-5.617,-5.61,-5.5958,-5.5988,-5.5245,-5.4044,-5.2544,-5.2401,-5.1729,-5.0992,-5.0549,-5.0766,-5.078,-5.0525,-5.0383,-5.0267,-4.9768,-5.0087,-5.047,-5.0736,-5.0928,-5.1194,-5.1554,-5.2019,-5.2253,-5.2668,-5.3138,-5.34,-5.3583,-5.3127,-5.314,-5.3335,-5.3347,-5.3321,-5.3373,-5.3426,-5.3478,-5.3674,-5.4014,-5.442,-5.4747,-5.4796,-5.5135,-5.5157,-5.5119,-5.5337,-5.579,-5.5745,-5.5555,-5.5916,-5.6251,-5.6604,-5.6946,-5.7288,-5.7694,-5.7787,-5.7814,-5.7906,-5.7906,-5.7906,-5.7906,-5.7879,-5.8015,-5.8069,-6.8324,-6.8324,-6.8324,-6.8392,-6.8557,-6.8557,-6.8625,-6.8702,-6.8335,-6.8056,-6.7737,-6.7056,-6.673,-6.6758,-6.7209,-6.7613,-6.7574,-6.7062,-6.6664,-6.6295,-6.5643,-6.5087,-6.4734,-6.4483,-6.4289,-6.4224,-6.4095,-6.39,-6.3507,-6.331,-6.3112,-6.2942,-6.2914,-6.2763,-6.2558,-6.2521,-6.2155,-6.1678,-6.1449,-6.1069,-6.0533,-6.0291,-6.0104,-5.9792,-5.9508,-5.9059,-5.8794,-5.8833,-5.8508,-5.7664,-5.7945,-5.7781,-5.7302,-5.7019,-5.6849,-5.6733,-5.5137,-5.3847,-5.3165,-5.2418,-5.1652,-5.0972,-5.0909,-5.0857,-5.0893,-5.1057,-5.1131,-5.0883,-5.1002,-5.122,-5.1476,-5.1684,-5.194,-5.2212,-5.2642,-5.306,-5.3321,-5.3609,-5.3949,-5.4158,-5.4314,-5.4249,-5.4119,-5.4079,-5.4132,-5.4249,-5.4328,-5.438,-5.4551,-5.4866,-5.5248,-5.5683,-5.5599,-5.5602,-5.5542,-5.5455,-5.5609,-5.5998,-5.616,-5.6133,-5.6604,-5.6929,-5.7255,-5.7743,-5.8247,-5.8666,-5.891,-5.8829,-5.8612,-5.8612,-5.8612,-5.8476,-5.834,-5.8178,-5.834,-6.876,-6.876,-6.876,-6.876,-6.876,-6.876,-6.876,-6.876,-6.8731,-6.8625,-6.8373,-6.7901,-6.7699,-6.7786,-6.8335,-6.8615,-6.8644,-6.8189,-6.7638,-6.7028,-6.6331,-6.5628,-6.5216,-6.4914,-6.4612,-6.464,-6.4612,-6.4418,-6.4196,-6.4066,-6.3806,-6.3178,-6.331,-6.3244,-6.3178,-6.316,-6.2934,-6.2632,-6.2203,-6.1756,-6.1393,-6.1326,-6.0932,-6.0622,-6.0394,-6.0337,-6.0194,-6.0137,-5.9822,-5.9248,-5.9048,-5.8765,-5.8312,-5.797,-5.7856,-5.7741,-5.6689,-5.5898,-5.4622,-5.342,-5.1996,-5.1372,-5.1085,-5.1419,-5.1494,-5.1784,-5.191,-5.1795,-5.1795,-5.1795,-5.191,-5.225,-5.2485,-5.2798,-5.3243,-5.3713,-5.4158,-5.4459,-5.4563,-5.4668,-5.4825,-5.5062,-5.4997,-5.4814,-5.4919,-5.5101,-5.5232,-5.5299,-5.5405,-5.5578,-5.5934,-5.6236,-5.6095,-5.6084,-5.6175,-5.6087,-5.6187,-5.6251,-5.6414,-5.6739,-5.7174,-5.7499,-5.777,-5.8367,-5.9019,-5.929,-5.9426,-5.9344,-5.9236,-5.8992,-5.8829,-5.8829,-5.872,-5.8585,-5.8666,-6.876,-6.876,-6.876,-6.876,-6.876,-6.876,-6.876,-6.876,-6.876,-6.876,-6.8692,-6.8673,-6.8548,-6.8673,-6.8673,-6.876,-6.8799,-6.816,-6.787,-6.7376,-6.6622,-6.6128,-6.5751,-6.5431,-6.5112,-6.5176,-6.5182,-6.5124,-6.506,-6.5124,-6.4676,-6.4095,-6.39,-6.39,-6.3834,-6.3675,-6.3741,-6.3456,-6.3129,-6.2879,-6.2565,-6.2285,-6.1805,-6.1256,-6.1056,-6.0794,-6.0312,-6.0402,-6.0205,-5.9603,-5.9575,-5.9434,-5.9124,-5.8838,-5.881,-5.8782,-5.8638,-5.7851,-5.6792,-5.4764,-5.2994,-5.2554,-5.2444,-5.2496,-5.2623,-5.2955,-5.2929,-5.2511,-5.2459,-5.2496,-5.2433,-5.2563,-5.315,-5.366,-5.421,-5.4616,-5.4982,-5.5206,-5.5311,-5.5191,-5.5403,-5.5761,-5.5736,-5.5591,-5.5432,-5.5631,-5.5604,-5.5604,-5.5934,-5.6197,-5.6394,-5.6574,-5.6428,-5.6476,-5.6892,-5.6875,-5.6631,-5.6739,-5.6984,-5.7336,-5.777,-5.8069,-5.8313,-5.8829,-5.9399,-5.967,-5.9914,-5.986,-5.967,-5.9209,-5.9073,-5.929,-5.9453,-5.9453,-5.948,-6.876,-6.876,-6.876,-6.876,-6.876,-6.876,-6.876,-6.876,-6.876,-6.876,-6.8857,-6.876,-6.876,-6.876,-6.876,-6.876,-6.8731,-6.8625,-6.8247,-6.787,-6.7347,-6.6912,-6.6571,-6.6206,-6.6073,-6.6224,-6.6129,-6.6084,-6.6251,-6.6143,-6.566,-6.5187,-6.4762,-6.4224,-6.4095,-6.4095,-6.403,-6.4037,-6.3938,-6.3772,-6.3348,-6.3302,-6.2967,-6.2418,-6.2332,-6.1986,-6.1495,-6.138,-6.1004,-6.0629,-6.0485,-6.0314,-6.0114,-5.9855,-5.974,-5.98,-5.9655,-5.9247,-5.872,-5.6873,-5.5629,-5.4835,-5.4432,-5.3964,-5.3927,-5.3745,-5.336,-5.3112,-5.3124,-5.329,-5.338,-5.3959,-5.4708,-5.4958,-5.5274,-5.5535,-5.5745,-5.589,-5.5984,-5.5919,-5.6304,-5.6784,-5.6611,-5.6319,-5.616,-5.6014,-5.5961,-5.6066,-5.6394,-5.659,-5.672,-5.6877,-5.6719,-5.6766,-5.7092,-5.7038,-5.6929,-5.7228,-5.7499,-5.7933,-5.8313,-5.8557,-5.8856,-5.9344,-5.9724,-5.9914,-6.0131,-6.0294,-6.0158,-5.9887,-5.9887,-6.0023,-6.0158,-6.0321,-6.0267,-6.876,-6.876,-6.876,-6.876,-6.876,-6.876,-6.876,-6.876,-6.876,-6.8944,-6.9118,-6.9263,-6.9263,-6.9176,-6.9118,-6.8944,-6.8886,-6.8741,-6.8538,-6.8285,-6.8032,-6.7741,-6.7349,-6.7107,-6.7102,-6.7372,-6.7246,-6.7111,-6.7343,-6.7056,-6.6934,-6.6593,-6.5855,-6.5321,-6.4547,-6.4354,-6.4289,-6.4354,-6.4425,-6.4438,-6.4011,-6.4109,-6.3946,-6.3424,-6.3308,-6.296,-6.2525,-6.2322,-6.2177,-6.18,-6.1568,-6.1483,-6.1222,-6.0992,-6.0673,-6.0529,-6.0384,-6.0092,-5.9771,-5.8629,-5.7527,-5.6486,-5.5983,-5.5618,-5.5437,-5.5045,-5.5088,-5.4115,-5.4153,-5.4281,-5.4474,-5.4875,-5.5352,-5.5472,-5.5816,-5.6119,-5.6304,-5.641,-5.6556,-5.6623,-5.7157,-5.7611,-5.7304,-5.7049,-5.6795,-5.6608,-5.6551,-5.659,-5.672,-5.6915,-5.6915,-5.7044,-5.7119,-5.7119,-5.7174,-5.7336,-5.7526,-5.7662,-5.7988,-5.8449,-5.8829,-5.9073,-5.9589,-6.0321,-6.0511,-6.0321,-6.0511,-6.0891,-6.0864,-6.0701,-6.0837,-6.1054,-6.1217,-6.1325,-6.0945,-6.876,-6.876,-6.876,-6.876,-6.876,-6.876,-6.8857,-6.8944,-6.9002,-6.9263,-6.9815,-7.025,-7.0163,-6.9786,-6.9612,-6.9321,-6.8886,-6.8828,-6.8808,-6.873,-6.8619,-6.8459,-6.8298,-6.8142,-6.8071,-6.8082,-6.8101,-6.8139,-6.85,-6.8359,-6.8389,-6.8114,-6.7382,-6.6471,-6.5563,-6.5124,-6.4996,-6.4996,-6.4996,-6.4909,-6.4851,-6.4822,-6.4473,-6.4183,-6.4009,-6.369,-6.332,-6.3175,-6.3029,-6.2858,-6.245,-6.2305,-6.2188,-6.1903,-6.1701,-6.1555,-6.1792,-6.188,-6.1763,-5.9355,-5.8313,-5.7953,-5.7763,-5.7432,-5.7332,-5.7314,-5.7068,-5.5868,-5.5778,-5.5778,-5.5639,-5.5515,-5.6007,-5.6384,-5.685,-5.7277,-5.7518,-5.7839,-5.8161,-5.7865,-5.804,-5.8214,-5.7971,-5.7686,-5.747,-5.732,-5.718,-5.7163,-5.7272,-5.7461,-5.7597,-5.7624,-5.7716,-5.7716,-5.7825,-5.796,-5.8096,-5.8232,-5.8503,-5.8992,-5.9371,-5.9697,-6.0348,-6.1189,-6.1189,-6.0891,-6.1217,-6.1624,-6.1651,-6.1732,-6.1976,-6.2166,-6.2259,-6.215,-6.1759,-6.876,-6.876,-6.876,-6.876,-6.876,-6.876,-6.906,-6.9495,-6.9873,-7.0221,-7.0395,-7.0657,-7.0366,-6.9931,-6.9796,-6.9506,-6.8915,-6.9068,-6.9136,-6.9174,-6.9244,-6.9406,-6.9302,-6.921,-6.9133,-6.9322,-6.9312,-6.9202,-6.9504,-6.9363,-6.9,-6.8665,-6.8292,-6.72,-6.5958,-6.5348,-6.5348,-6.5348,-6.5348,-6.5348,-6.5285,-6.5094,-6.4944,-6.4619,-6.4619,-6.4455,-6.4118,-6.4118,-6.4096,-6.3898,-6.3549,-6.3403,-6.3344,-6.3144,-6.3028,-6.2763,-6.2765,-6.2529,-6.2175,-6.0998,-6.0702,-6.0338,-5.9794,-5.9362,-5.9465,-5.8905,-5.8362,-5.7867,-5.7495,-5.7368,-5.7205,-5.7614,-5.8041,-5.8235,-5.8656,-5.9264,-5.9657,-6.0157,-6.0401,-5.9535,-5.9318,-5.9373,-5.921,-5.8669,-5.8344,-5.8344,-5.8274,-5.796,-5.7933,-5.8313,-5.853,-5.8557,-5.8557,-5.8476,-5.8503,-5.8585,-5.8666,-5.8774,-5.9073,-5.9534,-5.9914,-6.0294,-6.0864,-6.1597,-6.1542,-6.1488,-6.1922,-6.2329,-6.2628,-6.2845,-6.2899,-6.2818,-6.2665,-6.253,-6.2286,-6.9165,-6.9165,-6.9398,-6.9515,-6.9486,-6.9215,-6.9525,-7.0134,-7.0773,-7.1063,-7.1063,-7.1034,-7.0715,-7.029,-6.9952,-6.9642,-6.9059,-6.9337,-6.947,-6.9537,-6.984,-7.0009,-7.0022,-7.0219,-7.0355,-7.048,-7.0371,-7.0231,-7.029,-6.9871,-6.9602,-6.9389,-6.8955,-6.8101,-6.698,-6.6407,-6.5899,-6.5811,-6.5694,-6.5601,-6.5538,-6.5412,-6.5285,-6.5256,-6.5256,-6.5295,-6.5367,-6.5312,-6.532,-6.5094,-6.489,-6.4683,-6.4536,-6.4332,-6.4184,-6.3948,-6.4009,-6.3802,-6.3358,-6.2853,-6.2677,-6.2943,-6.1906,-6.1367,-6.1331,-6.102,-6.0323,-5.9804,-5.9304,-5.9207,-5.9228,-5.9766,-5.9874,-6.0059,-6.055,-6.1142,-6.1185,-6.1564,-6.2125,-6.1354,-6.0838,-6.0825,-6.0335,-5.9751,-5.9236,-5.9344,-5.9453,-5.9019,-5.8585,-5.8883,-5.9182,-5.9154,-5.91,-5.8937,-5.8992,-5.9154,-5.9236,-5.9317,-5.9751,-6.0267,-6.0565,-6.0972,-6.1488,-6.1949,-6.2031,-6.2221,-6.2682,-6.3062,-6.3225,-6.3387,-6.3496,-6.336,-6.3099,-6.2991,-6.2909,-6.9869,-6.9987,-7.0606,-7.0872,-7.0767,-7.0283,-7.029,-7.0871,-7.1482,-7.1813,-7.1714,-7.1784,-7.1476,-7.0795,-7.0488,-7.0127,-6.9726,-6.9943,-7.0105,-7.0238,-7.0681,-7.0694,-7.0974,-7.138,-7.1416,-7.1362,-7.1248,-7.1068,-7.0949,-7.062,-7.032,-7.0047,-6.9734,-6.9035,-6.8343,-6.7712,-6.696,-6.6513,-6.6214,-6.6063,-6.5849,-6.5937,-6.587,-6.5928,-6.605,-6.6441,-6.6686,-6.6867,-6.696,-6.6816,-6.652,-6.5896,-6.5367,-6.4929,-6.5199,-6.5469,-6.586,-6.5442,-6.5024,-6.4487,-6.4516,-6.4666,-6.3506,-6.2996,-6.2842,-6.2873,-6.2395,-6.191,-6.148,-6.1385,-6.1437,-6.1513,-6.1616,-6.1987,-6.24,-6.253,-6.2324,-6.2745,-6.3517,-6.3325,-6.2899,-6.2382,-6.1084,-6.0348,-6.0184,-5.9968,-6.0023,-5.9887,-5.9507,-5.9344,-5.9534,-5.9507,-5.9426,-5.929,-5.9453,-5.9941,-6.0267,-6.0511,-6.0701,-6.1135,-6.1407,-6.1651,-6.2112,-6.2465,-6.2655,-6.2953,-6.336,-6.3577,-6.3686,-6.3849,-6.3975,-6.3975,-6.3785,-6.3849,-6.3849,-7.0201,-7.0606,-7.0813,-7.1137,-7.1579,-7.1846,-7.2031,-7.2266,-7.2922,-7.2981,-7.2471,-7.3011,-7.2413,-7.1542,-7.1375,-7.1237,-7.1108,-7.1036,-7.1325,-7.1585,-7.1785,-7.2067,-7.2252,-7.2379,-7.2445,-7.2235,-7.2026,-7.1787,-7.1487,-7.1188,-7.0889,-7.0585,-7.043,-6.9978,-6.962,-6.9227,-6.8233,-6.7453,-6.7152,-6.6793,-6.655,-6.6697,-6.6723,-6.6808,-6.7166,-6.7682,-6.8016,-6.8169,-6.8296,-6.8555,-6.8558,-6.829,-6.826,-6.8083,-6.8083,-6.7266,-6.6967,-6.658,-6.643,-6.6221,-6.6191,-6.634,-6.568,-6.5143,-6.4813,-6.4485,-6.4306,-6.4003,-6.3605,-6.3447,-6.3382,-6.3466,-6.3598,-6.382,-6.4241,-6.4532,-6.4382,-6.4777,-6.5368,-6.4918,-6.4498,-6.3364,-6.2027,-6.1343,-6.1123,-6.0838,-6.0661,-6.0743,-6.0471,-6.0308,-6.0104,-6.0104,-6.0294,-6.0321,-6.062,-6.1081,-6.1434,-6.1732,-6.1759,-6.1841,-6.2112,-6.2383,-6.2736,-6.3035,-6.3306,-6.3632,-6.3984,-6.4093,-6.4012,-6.4265,-6.4346,-6.4401,-6.4455,-6.4383,-6.431,-7.0806,-7.0977,-7.1815,-7.2468,-7.3061,-7.3408,-7.3655,-7.3675,-7.3753,-7.3407,-7.2906,-7.3201,-7.2788,-7.1933,-7.1922,-7.196,-7.1998,-7.1971,-7.2172,-7.2417,-7.285,-7.2767,-7.2924,-7.3133,-7.2864,-7.2654,-7.2325,-7.2026,-7.1667,-7.1218,-7.0889,-7.0859,-7.0919,-7.0709,-7.041,-7.0166,-6.9624,-6.8844,-6.8307,-6.8011,-6.7951,-6.7919,-6.8098,-6.8058,-6.8538,-6.9,-6.9396,-6.9396,-6.9712,-6.9994,-7.0056,-6.9812,-6.9845,-6.9846,-6.9663,-6.8902,-6.8717,-6.8357,-6.8054,-6.7509,-6.7629,-6.7627,-6.7537,-6.7117,-6.6758,-6.6456,-6.6338,-6.6127,-6.5731,-6.5456,-6.5453,-6.5509,-6.561,-6.567,-6.6138,-6.6635,-6.6828,-6.7078,-6.6831,-6.6359,-6.5497,-6.4272,-6.3359,-6.2692,-6.2474,-6.2799,-6.2927,-6.2958,-6.2247,-6.1411,-6.1137,-6.0918,-6.1271,-6.1542,-6.1841,-6.2004,-6.2166,-6.2302,-6.2221,-6.2383,-6.2736,-6.3008,-6.3225,-6.3605,-6.3984,-6.4174,-6.4229,-6.4256,-6.4256,-6.451,-6.4564,-6.4564,-6.4537,-6.46,-6.4455,-7.1547,-7.1123,-7.3013,-7.4023,-7.4809,-7.4749,-7.4719,-7.474,-7.4031,-7.3458,-7.2926,-7.2926,-7.264,-7.1969,-7.2052,-7.2454,-7.2581,-7.2693,-7.288,-7.3073,-7.3275,-7.3373,-7.3522,-7.3612,-7.3522,-7.2864,-7.2475,-7.2535,-7.1487,-7.1223,-7.1288,-7.1044,-7.1198,-7.1238,-7.1058,-7.1208,-7.0907,-7.0678,-7.029,-7.0021,-6.9539,-6.9695,-6.9972,-6.9692,-6.9998,-7.0397,-7.0821,-7.1036,-7.1099,-7.0973,-7.085,-7.0607,-7.0672,-7.0702,-7.058,-7.0488,-7.0298,-6.9901,-6.9446,-6.89,-6.8715,-6.8683,-6.859,-6.8533,-6.8325,-6.7929,-6.7657,-6.7597,-6.7198,-6.7046,-6.7076,-6.7046,-6.7093,-6.6997,-6.7186,-6.7664,-6.8067,-6.8324,-6.8425,-6.7838,-6.702,-6.5859,-6.4727,-6.4155,-6.3908,-6.4624,-6.4765,-6.4713,-6.4023,-6.2811,-6.2286,-6.1899,-6.1895,-6.2221,-6.2573,-6.2709,-6.279,-6.2818,-6.2916,-6.3079,-6.3629,-6.3721,-6.3686,-6.3957,-6.4201,-6.4256,-6.4283,-6.4419,-6.4554,-6.4681,-6.4709,-6.4654,-6.4673,-6.49,-6.4682,-7.1787,-7.1757,-7.2744,-7.3791,-7.4749,-7.433,-7.4121,-7.4121,-7.3985,-7.3491,-7.3044,-7.3282,-7.3014,-7.2053,-7.2186,-7.2641,-7.3358,-7.3335,-7.3612,-7.4031,-7.424,-7.4121,-7.433,-7.436,-7.427,-7.418,-7.3791,-7.3073,-7.2391,-7.2169,-7.2059,-7.2124,-7.2254,-7.2262,-7.1809,-7.2081,-7.2297,-7.2122,-7.2496,-7.1519,-7.03,-7.0456,-7.0732,-7.0852,-7.1159,-7.1433,-7.1737,-7.1767,-7.1893,-7.205,-7.205,-7.1991,-7.1899,-7.1832,-7.1706,-7.1582,-7.1552,-7.1092,-7.0668,-7.0088,-6.9905,-6.9814,-6.9816,-6.9846,-6.9631,-6.9106,-6.8827,-6.8797,-6.8734,-6.8645,-6.8525,-6.8495,-6.8375,-6.8226,-6.8076,-6.8605,-6.9159,-6.9481,-6.9743,-6.9175,-6.8452,-6.7479,-6.6384,-6.5879,-6.5631,-6.5603,-6.5565,-6.5401,-6.5005,-6.4124,-6.3569,-6.3109,-6.2454,-6.2655,-6.3089,-6.336,-6.3486,-6.3956,-6.4191,-6.4372,-6.4499,-6.4255,-6.4012,-6.4147,-6.4283,-6.4473,-6.4663,-6.4826,-6.4934,-6.4988,-6.5225,-6.5306,-6.5543,-6.5698,-6.5208,-7.1727,-7.1547,-7.2176,-7.3043,-7.3821,-7.3612,-7.3462,-7.3462,-7.3462,-7.3253,-7.2984,-7.3223,-7.3013,-7.2445,-7.2624,-7.3133,-7.4061,-7.3971,-7.421,-7.4689,-7.4869,-7.4809,-7.4869,-7.4869,-7.451,-7.439,-7.3791,-7.32,-7.3154,-7.3022,-7.2918,-7.3113,-7.3373,-7.3195,-7.2679,-7.3073,-7.3381,-7.3266,-7.413,-7.3361,-7.1582,-7.2048,-7.2328,-7.2544,-7.2389,-7.2542,-7.245,-7.242,-7.2546,-7.2671,-7.2672,-7.2547,-7.2423,-7.2391,-7.2452,-7.2359,-7.2235,-7.1926,-7.1408,-7.1103,-7.089,-7.0616,-7.0556,-7.0434,-7.0434,-7.0004,-7.0056,-7.0084,-7.019,-7.0097,-6.9643,-6.9493,-6.9067,-6.8764,-6.8704,-6.8907,-6.953,-7.0067,-7.0062,-6.9695,-6.9198,-6.8802,-6.8053,-6.8047,-6.7888,-6.7903,-6.7677,-6.6883,-6.6242,-6.5665,-6.507,-6.444,-6.3825,-6.3394,-6.3713,-6.4002,-6.4183,-6.4709,-6.52,-6.4981,-6.469,-6.45,-6.431,-6.4654,-6.4872,-6.4961,-6.5151,-6.5368,-6.5504,-6.5613,-6.5877,-6.6141,-6.6379,-6.6413,-6.5978,-7.1637,-7.1278,-7.1607,-7.2235,-7.2834,-7.2804,-7.2864,-7.2924,-7.2924,-7.2954,-7.2924,-7.2954,-7.2924,-7.3133,-7.3462,-7.4121,-7.442,-7.424,-7.4569,-7.4809,-7.4869,-7.4869,-7.4869,-7.4839,-7.4599,-7.4218,-7.3649,-7.3731,-7.3841,-7.3864,-7.4006,-7.4137,-7.4081,-7.3963,-7.3624,-7.3841,-7.4215,-7.4188,-7.4592,-7.4936,-7.4602,-7.4364,-7.3965,-7.369,-7.3476,-7.3106,-7.3045,-7.2983,-7.2983,-7.2983,-7.2921,-7.2796,-7.2734,-7.2796,-7.2921,-7.2921,-7.2796,-7.2335,-7.1844,-7.1722,-7.1261,-7.0924,-7.0953,-7.0983,-7.1015,-7.1169,-7.1228,-7.1252,-7.1362,-7.1168,-7.0712,-7.0284,-6.9826,-6.9396,-6.9366,-6.9333,-6.9991,-7.056,-7.0346,-7.0136,-6.9957,-6.9684,-6.9714,-6.9837,-6.9893,-6.9943,-6.9572,-6.8844,-6.8083,-6.7512,-6.689,-6.6159,-6.5474,-6.5088,-6.4663,-6.4609,-6.4836,-6.5098,-6.5407,-6.5153,-6.4981,-6.4972,-6.5145,-6.5453,-6.5644,-6.5531,-6.5775,-6.602,-6.6155,-6.6237,-6.6665,-6.6882,-6.6828,-6.6882,-6.6617,-7.2146,-7.2475,-7.1517,-7.1787,-7.2714,-7.2325,-7.2415,-7.2864,-7.2924,-7.2924,-7.2954,-7.2924,-7.2924,-7.2924,-7.2984,-7.3552,-7.43,-7.43,-7.454,-7.4779,-7.4869,-7.4869,-7.4937,-7.4937,-7.4877,-7.4556,-7.4331,-7.4533,-7.4777,-7.4927,-7.5068,-7.523,-7.5491,-7.528,-7.4789,-7.5065,-7.5399,-7.5372,-7.5709,-7.6204,-7.5993,-7.5443,-7.4553,-7.4184,-7.3876,-7.3445,-7.3168,-7.3014,-7.2983,-7.2983,-7.3045,-7.2983,-7.2983,-7.3045,-7.3231,-7.3355,-7.3231,-7.2922,-7.2519,-7.2395,-7.1992,-7.1616,-7.1645,-7.1744,-7.1932,-7.2182,-7.2152,-7.1998,-7.1994,-7.1676,-7.1307,-7.1059,-7.0661,-7.0257,-7.007,-7.0153,-7.0474,-7.0804,-7.0829,-7.0709,-7.062,-7.0465,-7.0435,-7.0495,-7.0495,-7.0455,-7.0325,-6.9612,-6.8876,-6.8673,-6.847,-6.7759,-6.6999,-6.6469,-6.5905,-6.5434,-6.5571,-6.5678,-6.5722,-6.576,-6.5754,-6.5701,-6.5929,-6.6173,-6.6188,-6.602,-6.6318,-6.6698,-6.6752,-6.6915,-6.7376,-6.7593,-6.7485,-6.7349,-6.7159]},{"header":{"parameterUnit":"m.s-1","parameterCategory":1,"la1":31.0,"la2":29.5877,"lo1":-88.7671,"lo2":-86.6584,"dy":0.0162,"dx":0.0185,"nx":115,"ny":88,"refTime":"2024-04-08T06:00:00:Z","depth":0,"parameterNumber":3,"parameterNumberName":"V-component_of_WINDS"},"data":[0.0,0.0,0.0,0.0,0.0,0.0,0.0,0.0,0.0,0.0,0.0,0.0,0.0,0.0,0.0,0.0,0.0,0.0,0.0,0.0,0.0,0.0,0.0,0.0,0.0,0.0,0.0,0.0,0.0,0.0,0.0,0.0,0.0,0.0,0.0,0.0,0.0,0.0,0.0,0.0,0.0,0.0,0.0,0.0,0.0,0.0,0.0,0.0,0.0,0.0,0.0,0.0,0.0,0.0,0.0,0.0,0.0,0.0,0.0,0.0,0.0,0.0,0.0,0.0,0.0,0.0,0.0,0.0,0.0,0.0,0.0,0.0,0.0,0.0,0.0,0.0,0.0,0.0,0.0,0.0,0.0,0.0,0.0,0.0,0.0,0.0,0.0,0.0,0.0,0.0,0.0,0.0,0.0,0.0,0.0,0.0,0.0,0.0,0.0,0.0,0.0,0.0,0.0,0.0,0.0,0.0,0.0,0.0,0.0,0.0,0.0,0.0,0.0,0.0,0.0,0.0,0.0,0.0,0.0,0.0,0.0,0.0,0.0,0.0,0.0,0.0,0.0,0.0,0.0,0.0,0.0,0.0,0.0,0.0,0.0,0.0,0.0,0.0,0.0,0.0,0.0,0.0,0.0,0.0,0.0,0.0,0.0,0.0,0.0,0.0,0.0,0.0,0.0,0.0,0.0,0.0,0.0,0.0,0.0,0.0,0.0,0.0,0.0,0.0,0.0,0.0,0.0,0.0,0.0,0.0,0.0,0.0,0.0,0.0,0.0,0.0,0.0,0.0,0.0,0.0,0.0,0.0,0.0,0.0,0.0,0.0,0.0,0.0,0.0,0.0,0.0,0.0,0.0,0.0,0.0,0.0,0.0,0.0,0.0,0.0,0.0,0.0,0.0,0.0,0.0,0.0,0.0,0.0,0.0,0.0,0.0,0.0,0.0,0.0,0.0,0.0,0.0,0.0,0.0,0.0,0.0,0.0,0.0,0.0,0.0,0.0,0.0,0.0,0.0,0.0,0.0,0.0,0.0,0.0,0.0,0.0,0.0,0.0,0.0,0.0,0.0,0.0,0.0,0.0,0.0,0.0,0.0,0.0,0.0,0.0,0.0,0.0,0.0,0.0,0.0,0.0,0.0,0.0,0.0,0.0,0.0,0.0,0.0,0.0,0.0,0.0,0.0,0.0,0.0,0.0,0.0,0.0,0.0,0.0,0.0,0.0,0.0,0.0,0.0,0.0,0.0,0.0,0.0,0.0,0.0,0.0,0.0,0.0,0.0,0.0,0.0,0.0,0.0,0.0,0.0,0.0,0.0,0.0,0.0,0.0,0.0,0.0,0.0,0.0,0.0,0.0,0.0,0.0,0.0,0.0,0.0,0.0,0.0,0.0,0.0,0.0,0.0,0.0,0.0,0.0,0.0,0.0,0.0,0.0,0.0,0.0,0.0,0.0,0.0,0.0,0.0,0.0,0.0,0.0,0.0,0.0,0.0,0.0,0.0,0.0,0.0,0.0,0.0,0.0,0.0,0.0,0.0,0.0,0.0,0.0,0.0,0.0,0.0,0.0,0.0,0.0,0.0,0.0,0.0,0.0,0.0,0.0,0.0,0.0,0.0,0.0,0.0,0.0,0.0,0.0,0.0,0.0,0.0,0.0,0.0,0.0,0.0,0.0,0.0,0.0,0.0,0.0,0.0,0.0,0.0,0.0,0.0,0.0,0.0,0.0,0.0,0.0,0.0,0.0,0.0,0.0,0.0,0.0,0.0,0.0,0.0,0.0,0.0,0.0,0.0,0.0,0.0,0.0,0.0,0.0,0.0,0.0,0.0,0.0,0.0,0.0,0.0,0.0,0.0,0.0,0.0,0.0,0.0,0.0,0.0,0.0,0.0,0.0,0.0,0.0,0.0,0.0,0.0,0.0,0.0,0.0,0.0,0.0,0.0,0.0,0.0,0.0,0.0,0.0,0.0,0.0,0.0,0.0,0.0,0.0,0.0,0.0,0.0,0.0,0.0,0.0,0.0,0.0,0.0,0.0,0.0,0.0,0.0,0.0,0.0,0.0,0.0,0.0,0.0,0.0,0.0,0.0,0.0,0.0,0.0,0.0,0.0,0.0,0.0,0.0,0.0,0.0,0.0,0.0,0.0,0.0,0.0,0.0,0.0,0.0,0.0,0.0,0.0,0.0,0.0,0.0,0.0,0.0,0.0,0.0,0.0,0.0,0.0,0.0,0.0,0.0,0.0,0.0,0.0,0.0,0.0,0.0,0.0,0.0,0.0,0.0,0.0,0.0,0.0,0.0,0.0,0.0,0.0,0.0,0.0,0.0,0.0,0.0,0.0,0.0,0.0,0.0,0.0,0.0,0.0,0.0,0.0,0.0,0.0,0.0,0.0,0.0,0.0,0.0,0.0,0.0,0.0,0.0,0.0,0.0,0.0,0.0,0.0,0.0,0.0,0.0,0.0,0.0,0.0,0.0,0.0,0.0,0.0,0.0,0.0,0.0,0.0,0.0,0.0,0.0,0.0,0.0,0.0,0.0,0.0,0.0,0.0,0.0,0.0,0.0,0.0,0.0,0.0,0.0,0.0,0.0,0.0,0.0,0.0,0.0,0.0,0.0,0.0,0.0,0.0,0.0,0.0,0.0,0.0,0.0,0.0,0.0,0.0,0.0,0.0,0.0,0.0,0.0,0.0,0.0,0.0,0.0,0.0,0.0,0.0,0.0,0.0,0.0,0.0,0.0,0.0,0.0,0.0,0.0,0.0,0.0,0.0,0.0,0.0,0.0,0.0,0.0,0.0,0.0,0.0,0.0,0.0,0.0,0.0,0.0,0.0,0.0,0.0,0.0,0.0,0.0,0.0,0.0,0.0,0.0,0.0,0.0,0.0,0.0,0.0,0.0,0.0,0.0,0.0,0.0,0.0,0.0,0.0,0.0,0.0,0.0,0.0,0.0,0.0,0.0,0.0,0.0,0.0,0.0,0.0,0.0,0.0,0.0,0.0,0.0,0.0,0.0,0.0,0.0,0.0,0.0,0.0,0.0,0.0,0.0,0.0,0.0,0.0,0.0,0.0,0.0,0.0,0.0,0.0,0.0,0.0,0.0,0.0,0.0,0.0,0.0,0.0,0.0,0.0,0.0,0.0,0.0,0.0,0.0,0.0,0.0,0.0,0.0,0.0,0.0,0.0,0.0,0.0,0.0,0.0,0.0,0.0,0.0,0.0,0.0,0.0,0.0,0.0,0.0,0.0,0.0,0.0,0.0,0.0,0.0,0.0,0.0,0.0,0.0,0.0,0.0,0.0,0.0,0.0,0.0,0.0,0.0,0.0,0.0,0.0,0.0,0.0,0.0,0.0,0.0,0.0,0.0,0.0,0.0,0.0,0.0,0.0,0.0,0.0,0.0,0.0,0.0,0.0,0.0,0.0,0.0,0.0,0.0,0.0,0.0,0.0,0.0,0.0,0.0,0.0,0.0,0.0,0.0,0.0,0.0,0.0,0.0,0.0,0.0,0.0,0.0,0.0,0.0,0.0,0.0,0.0,0.0,0.0,0.0,0.0,0.0,0.0,0.0,0.0,0.0,0.0,0.0,0.0,0.0,0.0,0.0,0.0,0.0,0.0,0.0,0.0,0.0,0.0,0.0,0.0,0.0,0.0,0.0,0.0,0.0,0.0,0.0,0.0,0.0,0.0,0.0,0.0,0.0,0.0,0.0,0.0,0.0,0.0,0.0,0.0,0.0,0.0,0.0,0.0,0.0,0.0,0.0,0.0,0.0,0.0,0.0,0.0,0.0,0.0,0.0,0.0,0.0,0.0,0.0,0.0,0.0,0.0,0.0,0.0,0.0,0.0,0.0,0.0,0.0,0.0,0.0,0.0,0.0,0.0,0.0,0.0,0.0,0.0,0.0,0.0,0.0,0.0,0.0,0.0,0.0,0.0,0.0,0.0,0.0,0.0,0.0,0.0,0.0,0.0,0.0,0.0,0.0,0.0,0.0,0.0,0.0,0.0,0.0,0.0,0.0,0.0,0.0,0.0,0.0,0.0,0.0,0.0,0.0,0.0,0.0,0.0,0.0,0.0,0.0,0.0,0.0,0.0,0.0,0.0,0.0,0.0,0.0,0.0,0.0,0.0,0.0,0.0,0.0,0.0,0.0,0.0,0.0,0.0,0.0,0.0,0.0,0.0,0.0,0.0,0.0,0.0,0.0,0.0,0.0,0.0,0.0,0.0,0.0,0.0,0.0,0.0,0.0,0.0,0.0,0.0,0.0,3.1609,0.0,0.0,0.0,0.0,0.0,0.0,0.0,0.0,0.0,0.0,0.0,0.0,0.0,0.0,0.0,0.0,0.0,0.0,0.0,0.0,0.0,0.0,0.0,0.0,0.0,0.0,0.0,0.0,0.0,0.0,0.0,0.0,0.0,0.0,0.0,0.0,0.0,0.0,0.0,0.0,0.0,0.0,0.0,0.0,0.0,0.0,0.0,0.0,0.0,0.0,0.0,0.0,0.0,0.0,0.0,0.0,0.0,0.0,0.0,0.0,0.0,0.0,0.0,0.0,0.0,0.0,0.0,0.0,0.0,0.0,0.0,0.0,0.0,0.0,0.0,0.0,0.0,0.0,0.0,0.0,0.0,0.0,0.0,0.0,0.0,0.0,0.0,0.0,0.0,0.0,0.0,0.0,0.0,0.0,0.0,0.0,0.0,0.0,0.0,0.0,0.0,0.0,0.0,0.0,0.0,0.0,0.0,0.0,0.0,0.0,3.18,3.18,3.18,3.1781,3.1673,0.0,0.0,0.0,0.0,0.0,0.0,0.0,0.0,0.0,0.0,0.0,0.0,0.0,0.0,0.0,0.0,0.0,0.0,0.0,0.0,0.0,0.0,0.0,0.0,0.0,0.0,0.0,0.0,0.0,0.0,0.0,0.0,0.0,0.0,0.0,0.0,0.0,0.0,0.0,0.0,0.0,0.0,0.0,0.0,0.0,0.0,0.0,0.0,0.0,0.0,0.0,0.0,0.0,0.0,0.0,0.0,0.0,0.0,0.0,0.0,0.0,0.0,0.0,0.0,0.0,0.0,0.0,0.0,0.0,0.0,0.0,0.0,0.0,0.0,0.0,0.0,0.0,0.0,0.0,0.0,0.0,0.0,0.0,0.0,0.0,0.0,0.0,0.0,0.0,0.0,0.0,0.0,0.0,0.0,0.0,0.0,0.0,0.0,0.0,0.0,0.0,0.0,0.0,0.0,0.0,0.0,0.0,0.0,0.0,0.0,0.0,0.0,3.2145,3.1901,3.1635,0.0,0.0,0.0,0.0,0.0,0.0,0.0,0.0,0.0,0.0,0.0,0.0,0.0,0.0,0.0,0.0,0.0,0.0,0.0,0.0,0.0,0.0,0.0,0.0,0.0,0.0,0.0,0.0,0.0,0.0,0.0,0.0,0.0,0.0,0.0,0.0,0.0,0.0,0.0,0.0,0.0,0.0,0.0,0.0,0.0,0.0,0.0,0.0,0.0,0.0,0.0,0.0,0.0,0.0,0.0,0.0,0.0,0.0,0.0,0.0,0.0,0.0,0.0,0.0,0.0,0.0,0.0,0.0,0.0,0.0,0.0,0.0,0.0,0.0,0.0,0.0,0.0,0.0,0.0,0.0,0.0,0.0,0.0,0.0,0.0,0.0,0.0,0.0,0.0,0.0,0.0,0.0,0.0,0.0,0.0,0.0,0.0,0.0,0.0,0.0,0.0,0.0,0.0,0.0,0.0,0.0,0.0,0.0,0.0,0.0,3.3889,3.3889,3.3179,0.0,3.185,0.0,0.0,0.0,0.0,0.0,0.0,0.0,0.0,0.0,0.0,0.0,0.0,0.0,0.0,0.0,0.0,0.0,0.0,0.0,0.0,0.0,0.0,0.0,0.0,0.0,0.0,0.0,0.0,0.0,0.0,0.0,0.0,0.0,0.0,0.0,0.0,0.0,0.0,0.0,0.0,0.0,0.0,0.0,0.0,0.0,0.0,0.0,0.0,0.0,0.0,0.0,0.0,0.0,0.0,0.0,0.0,0.0,0.0,0.0,0.0,0.0,0.0,0.0,0.0,0.0,0.0,0.0,0.0,0.0,0.0,0.0,0.0,0.0,0.0,0.0,0.0,0.0,0.0,0.0,0.0,0.0,0.0,0.0,0.0,0.0,0.0,0.0,0.0,0.0,0.0,0.0,0.0,0.0,0.0,0.0,0.0,0.0,0.0,0.0,0.0,0.0,0.0,0.0,0.0,0.0,0.0,0.0,0.0,0.0,0.0,3.4096,3.4096,3.3259,3.2724,0.0,0.0,0.0,0.0,0.0,0.0,0.0,0.0,0.0,0.0,0.0,0.0,0.0,0.0,0.0,0.0,0.0,0.0,0.0,0.0,0.0,0.0,0.0,0.0,0.0,0.0,0.0,0.0,0.0,0.0,0.0,0.0,0.0,0.0,0.0,0.0,0.0,0.0,0.0,0.0,0.0,0.0,0.0,0.0,0.0,0.0,0.0,0.0,0.0,0.0,0.0,0.0,0.0,0.0,0.0,0.0,0.0,0.0,0.0,0.0,0.0,0.0,0.0,0.0,0.0,0.0,0.0,0.0,0.0,0.0,0.0,0.0,0.0,0.0,0.0,0.0,0.0,0.0,0.0,0.0,0.0,0.0,0.0,0.0,0.0,0.0,0.0,0.0,0.0,0.0,0.0,0.0,0.0,0.0,0.0,0.0,0.0,0.0,0.0,0.0,0.0,0.0,0.0,0.0,0.0,0.0,0.0,0.0,0.0,0.0,3.4616,3.4547,3.4306,3.3505,3.2951,3.2745,0.0,0.0,0.0,0.0,0.0,0.0,0.0,0.0,0.0,0.0,0.0,0.0,0.0,0.0,0.0,0.0,0.0,0.0,0.0,0.0,0.0,0.0,0.0,0.0,0.0,0.0,0.0,0.0,0.0,0.0,0.0,0.0,0.0,0.0,0.0,0.0,0.0,0.0,0.0,0.0,0.0,0.0,0.0,0.0,0.0,0.0,0.0,0.0,0.0,0.0,0.0,0.0,0.0,0.0,0.0,0.0,0.0,0.0,0.0,0.0,0.0,0.0,0.0,0.0,0.0,0.0,0.0,0.0,0.0,0.0,0.0,0.0,0.0,0.0,0.0,0.0,0.0,0.0,0.0,0.0,0.0,0.0,0.0,0.0,0.0,0.0,0.0,0.0,0.0,0.0,0.0,0.0,0.0,0.0,0.0,0.0,0.0,0.0,0.0,0.0,0.0,0.0,0.0,0.0,0.0,0.0,0.0,0.0,3.5916,3.5916,3.5574,3.489,3.4062,3.3345,0.0,0.0,0.0,0.0,0.0,0.0,0.0,0.0,0.0,0.0,0.0,0.0,0.0,0.0,0.0,0.0,0.0,0.0,0.0,0.0,0.0,0.0,0.0,0.0,0.0,0.0,0.0,0.0,0.0,0.0,0.0,0.0,0.0,0.0,0.0,0.0,0.0,0.0,0.0,0.0,0.0,0.0,0.0,0.0,0.0,0.0,0.0,0.0,0.0,0.0,0.0,0.0,0.0,0.0,0.0,0.0,0.0,0.0,0.0,0.0,0.0,0.0,0.0,0.0,0.0,0.0,0.0,0.0,0.0,0.0,0.0,0.0,0.0,0.0,0.0,0.0,0.0,0.0,0.0,0.0,0.0,0.0,0.0,0.0,0.0,0.0,0.0,0.0,0.0,0.0,0.0,0.0,0.0,0.0,0.0,0.0,0.0,0.0,0.0,0.0,0.0,0.0,0.0,0.0,0.0,0.0,0.0,0.0,0.0,3.5997,3.5997,3.5851,3.5457,3.4742,3.3993,0.0,0.0,0.0,0.0,0.0,0.0,0.0,0.0,0.0,0.0,0.0,0.0,0.0,0.0,0.0,0.0,0.0,0.0,0.0,0.0,0.0,0.0,0.0,0.0,0.0,0.0,0.0,0.0,0.0,0.0,0.0,0.0,0.0,0.0,0.0,0.0,0.0,0.0,0.0,0.0,0.0,0.0,0.0,0.0,0.0,0.0,0.0,0.0,0.0,0.0,0.0,0.0,0.0,0.0,0.0,0.0,0.0,0.0,0.0,0.0,0.0,0.0,0.0,0.0,0.0,0.0,0.0,0.0,0.0,0.0,0.0,0.0,0.0,0.0,0.0,0.0,0.0,0.0,0.0,0.0,0.0,0.0,0.0,0.0,0.0,0.0,0.0,0.0,0.0,0.0,0.0,0.0,0.0,0.0,0.0,0.0,0.0,0.0,0.0,0.0,0.0,0.0,0.0,0.0,0.0,0.0,0.0,0.0,0.0,3.6503,0.0,3.6322,3.6039,3.5316,3.4592,0.0,0.0,0.0,0.0,0.0,0.0,0.0,0.0,0.0,0.0,0.0,0.0,0.0,0.0,0.0,0.0,0.0,0.0,0.0,0.0,0.0,0.0,0.0,0.0,0.0,0.0,0.0,0.0,0.0,0.0,0.0,0.0,0.0,0.0,0.0,0.0,0.0,0.0,0.0,0.0,0.0,0.0,0.0,0.0,0.0,0.0,0.0,0.0,0.0,0.0,0.0,0.0,0.0,0.0,0.0,0.0,0.0,0.0,0.0,0.0,0.0,0.0,0.0,0.0,0.0,0.0,0.0,0.0,0.0,0.0,0.0,0.0,0.0,0.0,0.0,0.0,0.0,0.0,0.0,0.0,0.0,0.0,0.0,0.0,0.0,0.0,0.0,0.0,0.0,0.0,0.0,0.0,0.0,0.0,0.0,0.0,0.0,0.0,0.0,0.0,0.0,0.0,0.0,0.0,0.0,0.0,0.0,0.0,3.7577,3.751,3.751,3.7248,3.6572,3.5889,3.5183,0.0,0.0,0.0,0.0,0.0,0.0,0.0,0.0,0.0,0.0,0.0,0.0,0.0,0.0,0.0,0.0,0.0,0.0,0.0,0.0,0.0,0.0,0.0,0.0,0.0,0.0,0.0,0.0,0.0,0.0,0.0,0.0,0.0,0.0,0.0,0.0,0.0,0.0,0.0,0.0,0.0,0.0,0.0,0.0,0.0,0.0,0.0,0.0,0.0,0.0,0.0,0.0,0.0,0.0,0.0,0.0,0.0,0.0,0.0,0.0,0.0,0.0,0.0,0.0,0.0,0.0,0.0,0.0,0.0,0.0,0.0,0.0,0.0,0.0,0.0,0.0,0.0,0.0,0.0,0.0,0.0,0.0,0.0,0.0,0.0,0.0,0.0,0.0,0.0,0.0,0.0,0.0,0.0,0.0,0.0,0.0,0.0,0.0,0.0,0.0,0.0,0.0,0.0,0.0,0.0,0.0,0.0,0.0,0.0,3.899,3.8923,3.9083,3.9343,3.8196,3.7004,0.0,0.0,0.0,0.0,0.0,0.0,0.0,0.0,0.0,0.0,0.0,0.0,0.0,0.0,0.0,0.0,0.0,0.0,0.0,0.0,0.0,0.0,0.0,0.0,0.0,0.0,0.0,0.0,0.0,0.0,0.0,0.0,0.0,0.0,0.0,0.0,0.0,0.0,0.0,0.0,0.0,0.0,0.0,0.0,0.0,0.0,0.0,0.0,0.0,0.0,0.0,0.0,0.0,0.0,0.0,0.0,0.0,0.0,0.0,0.0,0.0,0.0,0.0,0.0,0.0,0.0,0.0,0.0,0.0,0.0,0.0,0.0,0.0,0.0,0.0,0.0,0.0,0.0,0.0,0.0,0.0,0.0,0.0,0.0,0.0,0.0,0.0,0.0,0.0,0.0,0.0,0.0,0.0,0.0,0.0,0.0,0.0,0.0,0.0,0.0,0.0,0.0,0.0,0.0,0.0,0.0,0.0,0.0,0.0,4.2899,4.219,4.1915,4.2171,4.0821,3.9191,3.7412,0.0,0.0,0.0,0.0,0.0,0.0,0.0,0.0,0.0,0.0,0.0,0.0,0.0,0.0,0.0,0.0,0.0,0.0,0.0,0.0,0.0,0.0,0.0,0.0,0.0,0.0,0.0,0.0,0.0,0.0,0.0,0.0,0.0,0.0,0.0,0.0,0.0,0.0,0.0,0.0,0.0,0.0,0.0,0.0,0.0,0.0,0.0,0.0,0.0,0.0,0.0,0.0,0.0,0.0,0.0,0.0,0.0,0.0,0.0,0.0,0.0,0.0,0.0,0.0,0.0,0.0,0.0,0.0,0.0,0.0,0.0,0.0,0.0,0.0,0.0,0.0,0.0,0.0,0.0,0.0,0.0,0.0,0.0,0.0,0.0,0.0,0.0,0.0,0.0,0.0,0.0,0.0,0.0,0.0,0.0,0.0,0.0,0.0,0.0,0.0,0.0,0.0,0.0,0.0,0.0,0.0,0.0,0.0,4.8674,4.6979,4.5729,4.4962,4.3625,4.1655,0.0,0.0,0.0,0.0,0.0,0.0,0.0,0.0,0.0,0.0,0.0,0.0,0.0,0.0,0.0,0.0,0.0,0.0,0.0,0.0,0.0,0.0,0.0,0.0,0.0,0.0,0.0,0.0,0.0,0.0,0.0,0.0,0.0,0.0,0.0,0.0,0.0,0.0,0.0,0.0,0.0,0.0,0.0,0.0,0.0,0.0,0.0,0.0,0.0,0.0,0.0,0.0,0.0,0.0,0.0,0.0,0.0,0.0,0.0,0.0,0.0,0.0,0.0,0.0,0.0,0.0,0.0,0.0,0.0,0.0,0.0,0.0,0.0,0.0,0.0,0.0,0.0,0.0,0.0,0.0,0.0,0.0,0.0,0.0,0.0,0.0,0.0,0.0,0.0,0.0,0.0,0.0,0.0,0.0,0.0,0.0,0.0,0.0,0.0,0.0,0.0,0.0,0.0,0.0,0.0,0.0,0.0,0.0,0.0,5.1469,5.2519,5.1749,4.9112,4.6782,4.4296,0.0,0.0,0.0,0.0,0.0,0.0,0.0,0.0,0.0,0.0,0.0,0.0,0.0,0.0,0.0,0.0,0.0,0.0,0.0,0.0,0.0,0.0,0.0,0.0,0.0,0.0,0.0,0.0,0.0,0.0,0.0,0.0,0.0,0.0,0.0,0.0,0.0,0.0,0.0,0.0,0.0,0.0,0.0,0.0,0.0,0.0,0.0,0.0,0.0,0.0,0.0,0.0,0.0,0.0,0.0,0.0,0.0,0.0,0.0,0.0,0.0,0.0,0.0,0.0,0.0,0.0,0.0,0.0,0.0,0.0,0.0,0.0,0.0,0.0,0.0,0.0,0.0,0.0,0.0,0.0,0.0,0.0,0.0,0.0,0.0,0.0,0.0,0.0,0.0,0.0,0.0,0.0,0.0,0.0,0.0,0.0,0.0,0.0,0.0,0.0,0.0,0.0,0.0,0.0,0.0,0.0,0.0,0.0,5.1499,5.3907,5.6263,5.6337,5.3915,5.0246,4.7111,0.0,0.0,0.0,0.0,0.0,0.0,0.0,0.0,0.0,0.0,0.0,0.0,0.0,0.0,0.0,0.0,0.0,0.0,0.0,0.0,0.0,0.0,0.0,0.0,0.0,0.0,0.0,0.0,0.0,0.0,0.0,0.0,0.0,0.0,0.0,0.0,0.0,0.0,0.0,0.0,0.0,0.0,0.0,0.0,0.0,0.0,0.0,0.0,0.0,0.0,0.0,0.0,0.0,0.0,0.0,0.0,0.0,0.0,0.0,0.0,0.0,0.0,0.0,0.0,0.0,0.0,0.0,0.0,0.0,0.0,0.0,0.0,0.0,0.0,0.0,0.0,0.0,0.0,0.0,0.0,0.0,0.0,0.0,0.0,0.0,0.0,0.0,0.0,0.0,0.0,0.0,0.0,0.0,0.0,0.0,0.0,0.0,0.0,0.0,0.0,0.0,0.0,0.0,0.0,0.0,0.0,0.0,0.0,5.3408,5.6048,5.87,5.9632,5.8554,5.3721,4.9836,0.0,0.0,0.0,0.0,0.0,0.0,0.0,0.0,0.0,0.0,0.0,0.0,0.0,0.0,0.0,0.0,0.0,0.0,0.0,0.0,0.0,0.0,0.0,0.0,0.0,0.0,0.0,0.0,0.0,0.0,0.0,0.0,0.0,0.0,0.0,0.0,0.0,0.0,0.0,0.0,0.0,0.0,0.0,0.0,0.0,0.0,0.0,0.0,0.0,0.0,0.0,0.0,0.0,0.0,0.0,0.0,0.0,0.0,0.0,0.0,0.0,0.0,0.0,0.0,0.0,0.0,0.0,0.0,0.0,0.0,0.0,0.0,0.0,0.0,0.0,0.0,0.0,0.0,0.0,0.0,0.0,0.0,0.0,0.0,0.0,0.0,0.0,0.0,0.0,0.0,0.0,0.0,0.0,0.0,0.0,0.0,0.0,0.0,0.0,0.0,0.0,0.0,0.0,0.0,0.0,0.0,0.0,0.0,5.532,5.7887,6.0041,6.1102,6.0978,5.6111,5.1852,0.0,0.0,0.0,0.0,0.0,0.0,0.0,0.0,0.0,0.0,0.0,0.0,0.0,0.0,0.0,0.0,0.0,0.0,0.0,0.0,0.0,0.0,0.0,0.0,0.0,0.0,0.0,0.0,0.0,0.0,0.0,0.0,0.0,0.0,0.0,0.0,0.0,0.0,0.0,0.0,0.0,0.0,0.0,0.0,0.0,0.0,0.0,0.0,3.3717,0.0,0.0,0.0,0.0,0.0,0.0,0.0,0.0,0.0,0.0,0.0,0.0,0.0,0.0,0.0,0.0,0.0,0.0,0.0,0.0,0.0,0.0,0.0,0.0,0.0,0.0,0.0,0.0,0.0,0.0,0.0,0.0,0.0,0.0,0.0,0.0,0.0,0.0,0.0,0.0,0.0,0.0,0.0,0.0,0.0,0.0,0.0,0.0,0.0,0.0,0.0,0.0,0.0,0.0,0.0,0.0,0.0,0.0,0.0,5.6478,5.8723,6.0851,6.187,6.1551,5.7948,5.4253,0.0,0.0,0.0,0.0,0.0,0.0,0.0,0.0,0.0,0.0,0.0,0.0,0.0,0.0,0.0,0.0,0.0,0.0,0.0,0.0,0.0,0.0,0.0,0.0,0.0,0.0,0.0,0.0,0.0,0.0,0.0,0.0,0.0,0.0,0.0,0.0,0.0,0.0,0.0,0.0,0.0,0.0,0.0,0.0,0.0,0.0,0.0,0.0,0.0,0.0,0.0,0.0,0.0,0.0,0.0,0.0,0.0,0.0,0.0,0.0,0.0,0.0,0.0,0.0,0.0,0.0,0.0,0.0,0.0,0.0,0.0,0.0,0.0,0.0,0.0,0.0,0.0,0.0,0.0,0.0,0.0,0.0,0.0,0.0,0.0,0.0,0.0,0.0,0.0,0.0,0.0,0.0,0.0,0.0,0.0,0.0,0.0,0.0,0.0,0.0,0.0,0.0,0.0,0.0,0.0,0.0,0.0,5.4292,5.7355,5.9421,6.1527,6.2404,6.1837,5.9348,5.6337,5.2807,0.0,0.0,0.0,0.0,0.0,0.0,0.0,0.0,0.0,0.0,0.0,0.0,0.0,0.0,0.0,0.0,0.0,0.0,0.0,0.0,0.0,0.0,0.0,0.0,0.0,0.0,0.0,0.0,0.0,0.0,0.0,0.0,0.0,0.0,0.0,0.0,0.0,0.0,3.3583,3.5038,0.0,0.0,0.0,0.0,0.0,0.0,0.0,0.0,3.4852,0.0,0.0,0.0,0.0,0.0,0.0,0.0,0.0,0.0,0.0,0.0,0.0,0.0,0.0,0.0,0.0,0.0,0.0,0.0,0.0,0.0,0.0,0.0,0.0,0.0,0.0,0.0,0.0,0.0,0.0,0.0,0.0,0.0,0.0,0.0,0.0,0.0,0.0,0.0,0.0,0.0,0.0,0.0,0.0,0.0,0.0,0.0,0.0,0.0,0.0,0.0,0.0,0.0,0.0,0.0,0.0,5.0217,5.5093,5.8726,6.1006,6.277,6.3331,6.2585,5.9922,5.689,5.3376,0.0,0.0,0.0,0.0,0.0,0.0,0.0,0.0,0.0,0.0,0.0,0.0,0.0,0.0,0.0,0.0,0.0,0.0,0.0,0.0,0.0,0.0,0.0,0.0,0.0,0.0,0.0,0.0,0.0,0.0,0.0,0.0,0.0,0.0,0.0,0.0,0.0,0.0,0.0,3.646,3.7001,0.0,0.0,0.0,0.0,0.0,0.0,0.0,0.0,3.7538,0.0,0.0,0.0,0.0,0.0,0.0,0.0,0.0,0.0,0.0,0.0,0.0,0.0,0.0,0.0,0.0,0.0,0.0,0.0,0.0,0.0,0.0,0.0,0.0,0.0,0.0,0.0,0.0,0.0,0.0,0.0,0.0,0.0,0.0,0.0,0.0,0.0,0.0,0.0,0.0,0.0,0.0,0.0,0.0,0.0,0.0,0.0,0.0,0.0,0.0,0.0,0.0,0.0,0.0,0.0,5.1516,5.6011,5.9271,6.1096,6.2848,6.339,6.2776,5.985,5.6711,0.0,0.0,0.0,0.0,0.0,0.0,0.0,0.0,0.0,0.0,0.0,0.0,0.0,0.0,0.0,0.0,0.0,0.0,0.0,0.0,0.0,0.0,0.0,0.0,0.0,0.0,0.0,0.0,0.0,0.0,0.0,0.0,0.0,0.0,0.0,0.0,0.0,0.0,0.0,0.0,3.8019,3.8465,3.8778,0.0,0.0,0.0,0.0,0.0,0.0,3.8974,3.8917,0.0,0.0,0.0,0.0,0.0,0.0,0.0,0.0,0.0,0.0,0.0,0.0,0.0,0.0,0.0,0.0,0.0,0.0,0.0,0.0,0.0,0.0,0.0,0.0,0.0,0.0,0.0,0.0,0.0,0.0,0.0,0.0,0.0,0.0,0.0,0.0,0.0,0.0,0.0,0.0,0.0,0.0,0.0,0.0,0.0,0.0,0.0,0.0,0.0,0.0,0.0,0.0,0.0,0.0,0.0,5.2571,5.6837,5.9635,6.102,6.2788,6.3454,6.2731,5.9535,5.6359,0.0,0.0,0.0,0.0,0.0,0.0,0.0,0.0,0.0,0.0,0.0,0.0,0.0,0.0,0.0,0.0,0.0,0.0,0.0,0.0,0.0,0.0,0.0,0.0,0.0,0.0,0.0,0.0,0.0,0.0,0.0,0.0,0.0,0.0,0.0,0.0,0.0,0.0,0.0,0.0,0.0,4.0136,4.0073,4.0647,0.0,0.0,0.0,0.0,3.987,4.0407,0.0,0.0,0.0,0.0,0.0,0.0,0.0,0.0,0.0,0.0,0.0,0.0,0.0,0.0,0.0,0.0,0.0,0.0,0.0,0.0,0.0,0.0,0.0,0.0,0.0,0.0,0.0,0.0,0.0,0.0,0.0,0.0,0.0,0.0,0.0,0.0,0.0,0.0,0.0,0.0,0.0,0.0,0.0,0.0,0.0,0.0,0.0,0.0,0.0,0.0,0.0,0.0,0.0,0.0,0.0,0.0,5.2365,5.7247,6.028,6.1286,6.3535,6.4055,6.2584,5.929,5.5992,0.0,0.0,0.0,0.0,0.0,0.0,0.0,0.0,0.0,0.0,0.0,0.0,0.0,0.0,0.0,0.0,0.0,0.0,0.0,0.0,0.0,0.0,0.0,0.0,0.0,0.0,0.0,0.0,0.0,0.0,0.0,0.0,0.0,0.0,0.0,0.0,0.0,0.0,0.0,0.0,0.0,4.2002,4.2943,4.3168,4.2932,0.0,0.0,4.2332,4.2008,4.3871,0.0,0.0,0.0,0.0,0.0,0.0,0.0,0.0,0.0,0.0,0.0,0.0,0.0,0.0,0.0,0.0,0.0,0.0,0.0,0.0,0.0,0.0,0.0,0.0,0.0,0.0,0.0,0.0,0.0,0.0,0.0,0.0,0.0,0.0,0.0,0.0,0.0,0.0,0.0,0.0,0.0,0.0,0.0,0.0,0.0,0.0,0.0,0.0,0.0,0.0,0.0,0.0,0.0,0.0,0.0,5.0205,5.3958,5.7973,6.0844,6.2557,6.4106,6.4136,6.2535,5.9117,5.5813,0.0,0.0,0.0,0.0,0.0,0.0,0.0,0.0,0.0,0.0,0.0,0.0,0.0,0.0,0.0,0.0,0.0,0.0,0.0,0.0,0.0,0.0,0.0,0.0,0.0,0.0,0.0,0.0,0.0,0.0,0.0,0.0,0.0,0.0,0.0,0.0,0.0,0.0,0.0,0.0,0.0,0.0,4.4014,4.4861,0.0,0.0,0.0,4.4716,4.4997,0.0,0.0,0.0,0.0,0.0,0.0,0.0,0.0,0.0,0.0,0.0,0.0,0.0,0.0,0.0,0.0,0.0,0.0,0.0,0.0,0.0,0.0,0.0,0.0,0.0,0.0,0.0,0.0,0.0,0.0,0.0,0.0,0.0,0.0,0.0,0.0,0.0,0.0,0.0,0.0,0.0,0.0,0.0,0.0,0.0,0.0,0.0,0.0,0.0,0.0,0.0,0.0,0.0,0.0,0.0,0.0,0.0,5.5139,5.841,6.1092,6.3224,6.4273,6.4028,6.2339,5.9214,0.0,0.0,0.0,0.0,0.0,0.0,0.0,0.0,0.0,0.0,0.0,0.0,0.0,0.0,0.0,0.0,0.0,0.0,0.0,0.0,0.0,0.0,0.0,0.0,0.0,0.0,0.0,3.0748,0.0,0.0,0.0,0.0,0.0,0.0,0.0,0.0,0.0,0.0,0.0,0.0,0.0,0.0,4.544,4.5437,4.6879,4.7569,0.0,0.0,4.693,4.7421,4.7695,4.7329,0.0,0.0,0.0,0.0,0.0,0.0,0.0,0.0,0.0,0.0,0.0,0.0,0.0,0.0,0.0,0.0,0.0,0.0,0.0,0.0,0.0,0.0,0.0,0.0,0.0,0.0,0.0,0.0,0.0,0.0,0.0,0.0,0.0,0.0,0.0,0.0,0.0,0.0,0.0,0.0,0.0,0.0,0.0,0.0,0.0,0.0,0.0,0.0,0.0,0.0,0.0,0.0,0.0,0.0,5.1005,5.4931,5.8202,6.0676,6.2347,6.3834,6.3756,6.1905,5.9673,5.6534,0.0,0.0,0.0,0.0,0.0,0.0,0.0,0.0,0.0,0.0,0.0,0.0,0.0,0.0,0.0,0.0,0.0,0.0,0.0,0.0,0.0,0.0,0.0,0.0,0.0,0.0,0.0,0.0,0.0,0.0,0.0,0.0,0.0,0.0,0.0,0.0,0.0,0.0,0.0,0.0,0.0,4.7198,4.8191,4.9849,5.0717,0.0,4.9293,4.8861,4.8702,5.0636,5.0754,4.6652,0.0,0.0,0.0,0.0,0.0,0.0,0.0,0.0,0.0,0.0,0.0,0.0,0.0,0.0,0.0,0.0,0.0,0.0,0.0,0.0,0.0,0.0,0.0,0.0,0.0,0.0,0.0,0.0,0.0,0.0,0.0,0.0,0.0,0.0,0.0,0.0,0.0,0.0,0.0,0.0,0.0,0.0,0.0,0.0,0.0,0.0,0.0,0.0,0.0,0.0,0.0,0.0,0.0,5.2393,5.6121,5.8878,6.1283,6.3182,6.3432,6.278,6.1395,5.9021,5.6324,0.0,0.0,0.0,0.0,0.0,0.0,0.0,0.0,0.0,0.0,0.0,0.0,0.0,0.0,0.0,0.0,0.0,0.0,0.0,0.0,0.0,0.0,0.0,0.0,0.0,0.0,0.0,0.0,3.4513,3.4897,3.4553,0.0,0.0,0.0,0.0,0.0,0.0,0.0,0.0,0.0,0.0,4.887,4.9939,5.114,0.0,0.0,5.0916,5.0588,5.0993,5.109,5.0498,4.8615,4.771,0.0,0.0,0.0,0.0,0.0,0.0,0.0,0.0,0.0,0.0,0.0,0.0,0.0,0.0,0.0,0.0,0.0,0.0,0.0,0.0,0.0,0.0,0.0,0.0,0.0,0.0,0.0,0.0,0.0,0.0,0.0,0.0,0.0,0.0,0.0,0.0,0.0,0.0,0.0,0.0,0.0,0.0,0.0,0.0,0.0,0.0,0.0,0.0,0.0,0.0,0.0,0.0,5.3267,5.6884,5.9205,6.1474,6.3638,6.329,6.2572,6.153,5.9415,5.7205,0.0,0.0,0.0,0.0,0.0,0.0,0.0,0.0,0.0,0.0,0.0,0.0,0.0,0.0,0.0,0.0,0.0,0.0,0.0,0.0,0.0,0.0,0.0,0.0,0.0,0.0,0.0,0.0,3.6069,3.6343,3.6023,0.0,0.0,0.0,0.0,0.0,0.0,0.0,0.0,0.0,0.0,5.0451,5.1229,5.2299,5.2937,5.2705,5.204,5.1742,5.2307,5.1631,5.0781,4.998,0.0,0.0,0.0,0.0,0.0,0.0,0.0,0.0,0.0,0.0,0.0,0.0,0.0,0.0,0.0,0.0,0.0,0.0,0.0,0.0,0.0,0.0,0.0,0.0,0.0,0.0,0.0,3.9415,0.0,0.0,3.8922,0.0,0.0,0.0,0.0,0.0,0.0,0.0,0.0,0.0,0.0,0.0,0.0,0.0,0.0,0.0,0.0,0.0,0.0,0.0,0.0,0.0,0.0,5.3291,5.6849,5.897,6.1055,6.3148,6.3469,6.3146,6.2406,6.1329,5.9415,5.6702,0.0,0.0,0.0,0.0,0.0,0.0,0.0,0.0,0.0,0.0,0.0,0.0,0.0,0.0,0.0,0.0,0.0,0.0,0.0,0.0,0.0,0.0,0.0,0.0,0.0,0.0,3.6244,3.6902,3.7478,0.0,0.0,0.0,0.0,0.0,0.0,0.0,0.0,0.0,0.0,4.9678,5.1908,5.2053,5.3423,5.4092,5.3463,5.2623,5.2158,5.2407,5.2733,5.2337,0.0,0.0,0.0,0.0,0.0,0.0,0.0,0.0,0.0,0.0,0.0,0.0,0.0,0.0,0.0,0.0,0.0,0.0,0.0,0.0,0.0,0.0,0.0,0.0,0.0,0.0,0.0,4.256,4.4608,0.0,0.0,0.0,0.0,0.0,0.0,0.0,0.0,0.0,0.0,0.0,5.0948,5.0753,0.0,0.0,0.0,0.0,0.0,0.0,0.0,0.0,0.0,0.0,0.0,0.0,5.4284,5.6631,5.9139,6.1169,6.2629,6.2314,6.1886,6.1295,6.023,5.8044,5.4749,0.0,0.0,0.0,0.0,0.0,0.0,0.0,0.0,0.0,0.0,0.0,0.0,0.0,0.0,0.0,0.0,0.0,0.0,0.0,0.0,0.0,0.0,0.0,0.0,0.0,3.8792,0.0,0.0,0.0,0.0,0.0,0.0,0.0,0.0,0.0,0.0,0.0,4.6371,4.8267,5.0297,5.1884,5.2561,5.3095,5.3564,0.0,0.0,0.0,0.0,0.0,0.0,0.0,0.0,0.0,0.0,0.0,0.0,0.0,0.0,4.8855,4.6182,4.5857,4.5867,4.5279,0.0,0.0,0.0,0.0,0.0,0.0,0.0,0.0,0.0,0.0,0.0,0.0,0.0,0.0,4.662,0.0,4.7159,0.0,0.0,0.0,0.0,0.0,0.0,0.0,0.0,5.2885,5.4317,5.4429,5.4438,5.4406,0.0,5.2844,5.0703,0.0,0.0,0.0,0.0,0.0,0.0,0.0,0.0,5.4919,5.7013,5.9359,6.1137,6.2319,6.1848,6.155,6.1551,6.0358,5.8206,5.4933,5.3128,5.0844,0.0,0.0,0.0,0.0,0.0,0.0,0.0,0.0,0.0,0.0,0.0,0.0,0.0,0.0,0.0,0.0,0.0,0.0,0.0,0.0,0.0,0.0,0.0,4.0693,0.0,0.0,0.0,0.0,0.0,0.0,0.0,0.0,0.0,4.4249,4.6302,4.8304,4.9548,5.1096,5.2249,5.2777,0.0,0.0,0.0,0.0,0.0,0.0,0.0,5.3267,5.3989,5.4329,5.4831,5.5957,5.6166,5.6167,5.6167,0.0,0.0,4.9416,4.8689,4.8571,4.8188,4.8981,4.9932,5.0536,5.1214,5.2127,0.0,0.0,0.0,0.0,0.0,0.0,0.0,0.0,4.9824,5.0171,0.0,5.0879,0.0,0.0,0.0,0.0,4.8244,5.0833,0.0,0.0,5.7154,5.857,5.7773,5.8173,5.8054,5.7313,5.5108,5.3696,5.3053,5.1772,0.0,0.0,0.0,0.0,0.0,0.0,5.5122,5.7828,5.9488,6.0992,6.2302,6.2026,6.2284,6.3004,6.1744,5.9718,5.7184,5.5686,5.3738,5.113,4.9094,0.0,0.0,0.0,0.0,0.0,0.0,0.0,0.0,0.0,0.0,0.0,0.0,0.0,0.0,0.0,0.0,0.0,0.0,0.0,0.0,4.0829,0.0,0.0,0.0,0.0,0.0,0.0,0.0,0.0,0.0,0.0,4.6596,4.8326,4.9856,5.0395,0.0,0.0,0.0,0.0,5.4147,5.4022,5.3797,5.3836,5.4283,5.5231,5.5953,5.5957,0.0,0.0,5.8047,5.8359,5.8629,5.8629,5.8049,5.6712,5.3669,5.2475,5.2101,5.2424,5.2153,5.27,5.5007,5.5108,5.5447,5.5377,0.0,0.0,0.0,0.0,5.1383,5.3949,5.694,5.6389,5.6758,5.7561,5.5712,0.0,0.0,0.0,0.0,0.0,0.0,5.4929,5.6186,5.8961,6.0376,6.0591,6.0593,6.0561,6.0437,5.8634,5.7474,5.6967,5.6104,5.4042,5.094,0.0,0.0,0.0,0.0,5.6253,5.7936,5.9844,6.1361,6.2383,6.2697,6.2524,6.1991,6.0441,5.873,5.6947,5.6163,5.46,5.217,5.0558,0.0,0.0,0.0,0.0,0.0,0.0,0.0,0.0,0.0,0.0,0.0,0.0,0.0,0.0,0.0,0.0,0.0,0.0,0.0,4.304,4.3295,4.3388,0.0,0.0,0.0,0.0,0.0,0.0,0.0,0.0,0.0,4.9641,5.0334,5.1145,0.0,0.0,5.3213,5.3168,5.3948,5.4757,5.5398,5.5391,0.0,5.6624,5.6854,5.7171,5.7986,5.9794,6.1185,6.1185,6.1286,6.1353,6.1318,6.0179,5.8942,5.805,5.6336,5.5003,5.453,5.5315,5.6471,5.7426,5.8171,5.895,6.4878,6.0111,5.697,5.6103,5.6842,5.8112,6.0082,6.2367,6.1851,6.1687,6.1709,6.0036,5.8083,5.5866,5.4419,0.0,0.0,0.0,5.743,5.8765,6.0538,6.1847,6.2663,6.2816,6.2816,6.2631,6.1362,6.0295,5.949,5.8777,5.6964,5.4211,0.0,0.0,5.3681,5.556,5.7141,5.832,5.9855,6.0962,6.1561,6.2077,6.1818,6.0683,6.004,5.8928,5.7288,5.6996,5.5796,5.3601,5.2318,5.0769,0.0,0.0,0.0,0.0,0.0,0.0,0.0,0.0,0.0,0.0,0.0,4.0922,4.1048,0.0,0.0,0.0,4.2875,4.3938,4.5332,4.5516,0.0,0.0,0.0,0.0,0.0,0.0,0.0,4.8573,5.0467,5.1756,5.1823,5.2307,5.2687,5.2894,5.3361,5.385,5.4319,0.0,5.5752,5.6807,5.6978,5.719,5.7858,5.819,5.8752,5.9915,6.1408,6.2473,6.2544,6.269,6.2835,6.2695,6.1895,6.1094,6.1021,5.9822,5.8386,5.7053,5.7731,5.8783,5.9431,6.017,6.0846,7.2938,7.0613,6.3592,6.1974,6.3994,6.4528,6.5374,6.6234,6.6191,6.5262,6.3829,6.3708,6.2267,5.9862,5.8297,0.0,5.8613,5.9101,5.9957,6.1174,6.208,6.3075,6.4185,6.4721,6.4704,6.4088,6.3279,6.2242,6.0979,6.0235,5.949,5.8713,5.745,5.657,5.6019,5.6838,5.7848,5.8972,5.9676,6.0195,6.0503,6.0818,6.0504,5.9556,6.0263,5.9837,5.8069,5.7939,5.7086,5.5189,5.4215,5.2725,5.0459,0.0,0.0,0.0,0.0,0.0,0.0,0.0,0.0,0.0,0.0,0.0,0.0,0.0,0.0,0.0,4.5293,0.0,4.6989,4.7526,0.0,0.0,0.0,4.8413,4.8477,4.9088,4.9911,5.096,0.0,0.0,5.3298,5.4049,5.4323,5.3838,5.4093,5.4739,5.5889,5.6277,5.6915,5.8027,5.8355,5.8388,5.8486,5.9317,6.0336,6.1428,6.224,6.2595,6.2711,6.3011,6.3302,6.3268,6.3152,6.2893,6.2731,6.2455,6.2008,5.9868,5.9562,5.9929,6.1037,6.1332,6.1608,7.5213,7.4644,7.2787,7.0532,6.8327,6.95,6.9863,6.9571,6.8957,6.784,6.6416,6.5571,6.3934,6.1784,6.0528,6.0308,6.0987,6.1672,6.271,6.4024,6.4816,6.5335,6.5578,6.5222,6.4963,6.4704,6.3505,6.2696,6.2372,6.166,6.0777,5.974,5.9739,5.8918,5.7242,5.7754,5.8362,5.8972,5.9858,6.0959,6.221,6.0999,6.0564,6.1213,6.0384,5.9457,5.8464,5.8432,5.7729,5.6222,5.5523,5.4377,5.2624,5.1124,0.0,0.0,0.0,0.0,0.0,0.0,0.0,0.0,0.0,4.5173,4.495,0.0,4.6848,0.0,4.6985,4.7696,4.8447,4.8978,0.0,0.0,4.9801,5.0307,5.1006,5.1385,5.1888,5.2644,5.3512,5.4038,5.4114,5.4922,5.5433,5.5277,5.5324,5.5527,5.5854,5.6697,5.7442,5.8134,5.8831,5.944,5.9765,6.0331,6.1076,6.2206,6.2474,6.2745,6.3268,6.3417,6.3489,6.3302,6.3152,6.2923,6.2693,6.2576,6.2324,6.1782,6.1646,6.1748,6.2076,6.2144,6.2178,7.6271,7.6414,7.613,7.4613,7.2527,7.3001,7.2622,7.1667,7.1187,7.0081,6.8521,6.724,6.5722,6.411,6.3459,6.3182,6.3311,6.3991,6.4574,6.5012,6.5772,6.6258,6.655,6.5837,6.5513,6.5448,6.438,6.37,6.3376,6.2987,6.2256,6.1321,6.1575,6.0979,5.9522,5.9012,5.8843,5.8972,5.9343,6.0147,6.1388,6.0192,5.9968,6.0773,5.9814,5.8907,5.8194,5.7838,5.7158,5.6089,5.5759,5.5045,5.3855,5.2353,5.0784,0.0,0.0,0.0,0.0,0.0,0.0,0.0,0.0,0.0,0.0,0.0,4.89,4.8803,4.9451,5.0034,5.039,5.0957,5.1371,5.1371,5.1611,5.1997,5.2534,5.3233,5.3693,5.379,5.4777,5.5304,5.4924,5.5304,5.5604,5.5604,5.5986,5.6263,5.6482,5.724,5.8051,5.8617,5.938,5.9971,6.0259,6.0216,6.044,6.0995,6.1283,6.1649,6.2318,6.2625,6.2779,6.2962,6.2697,6.2347,6.215,6.211,6.207,6.1951,6.1911,6.203,6.2341,6.2415,6.2415,7.6557,7.6736,7.629,7.6066,7.594,7.5213,7.4107,7.278,7.2679,7.1647,6.9954,6.8376,6.7222,6.6468,6.6226,6.5805,6.5351,6.5967,6.5967,6.5481,6.6096,6.6647,6.7165,6.6452,6.6064,6.5934,6.5222,6.4574,6.4024,6.4024,6.3635,6.2923,6.289,6.2469,6.166,6.0161,5.9338,5.9049,5.855,5.8765,5.9758,5.9261,5.9261,5.9725,5.9025,5.8356,5.7741,5.7029,5.6284,5.5604,5.5539,5.5247,5.4535,5.3122,5.1972,0.0,4.9812,0.0,0.0,0.0,0.0,0.0,0.0,0.0,0.0,5.0343,5.0778,5.1426,5.2009,5.2365,5.2462,5.3142,5.3589,5.3725,5.3725,5.3686,5.379,5.4826,5.5312,5.4762,5.5733,5.6251,5.5668,5.5474,5.5442,5.5604,5.6222,5.6808,5.7209,5.7749,5.8412,5.9156,5.9834,6.0054,5.9946,5.9596,5.9375,5.9476,5.987,6.0259,6.0986,6.1358,6.1797,6.2229,6.1917,6.148,6.1235,6.1358,6.1399,6.1235,6.1193,6.1473,6.215,6.2263,6.2302,7.6177,7.587,7.6519,7.6477,7.594,7.5213,7.4107,7.2717,7.1925,7.0781,6.9489,6.7773,6.7507,6.8202,6.6775,6.6355,6.6776,6.6906,6.723,6.7586,6.7748,6.7586,6.7165,6.6452,6.5805,6.5222,6.4509,6.4153,6.4024,6.4024,6.3635,6.289,6.289,6.2242,6.1044,0.0,0.0,0.0,5.861,5.8942,6.0135,5.9396,5.9396,6.018,5.9164,0.0,5.8378,5.7741,5.7029,5.6349,5.6284,0.0,0.0,0.0,0.0,0.0,0.0,0.0,0.0,0.0,0.0,0.0,5.376,5.3251,5.1746,5.2249,5.2747,5.2916,5.3045,5.3337,5.3952,5.46,5.5247,5.583,5.5895,5.5895,5.5895,5.6122,5.6219,5.6154,5.6349,5.6446,5.6251,5.5798,5.5668,5.6154,5.6422,5.682,5.7488,5.7934,5.8418,5.8978,5.9394,5.952,5.9464,5.9241,5.9241,5.9696,5.9914,6.0184,6.0745,6.0953,6.0995,6.1078,6.0912,6.0745,6.0525,6.0525,6.0567,6.0482,6.0482,6.0861,6.2104,6.1951,6.1676,7.588,7.5556,7.6584,7.6604,0.0,7.5213,7.4107,7.2748,7.1875,7.0671,6.9223,6.8287,6.8248,6.8859,6.8068,6.7489,6.7197,6.7521,6.7489,6.7197,6.7521,6.7327,6.6647,6.5902,6.5384,6.4947,6.4347,6.3829,6.3473,6.3441,6.3084,6.234,6.234,6.1983,6.1303,6.0586,5.9949,5.9286,5.861,5.8801,5.9801,5.93,5.93,5.9813,5.9067,0.0,0.0,0.0,0.0,0.0,0.0,0.0,0.0,5.583,0.0,5.4729,5.4374,5.4301,5.4542,5.4688,5.502,5.5771,5.6242,5.5822,5.435,5.4948,5.5442,5.5409,5.5409,5.5571,5.5928,5.6284,5.664,5.6964,5.6705,5.6478,5.6478,5.6478,5.6349,5.6057,5.6284,5.6381,5.5992,5.6025,5.6089,5.6478,5.7126,5.7644,5.8,5.8268,5.857,5.9069,5.925,5.9286,5.9152,5.8972,5.8882,5.9209,5.9209,5.9431,6.0011,6.0108,6.0184,6.0322,6.0226,5.9925,5.9838,5.9827,5.9827,5.9827,5.9827,6.013,6.1144,6.135,6.1358,7.5225,7.4964,7.6086,7.6293,7.575,7.515,7.4012,7.2559,7.1674,0.0,0.0,6.888,6.8852,6.8981,6.9111,6.8489,6.7374,6.7892,6.7471,6.6355,6.6906,6.6744,6.5902,6.5319,6.4915,6.4785,6.4283,6.37,6.3084,6.2955,6.2599,6.2048,6.1886,6.1679,6.1504,6.0449,5.9717,5.9229,5.861,5.8596,5.9152,5.9062,5.9094,5.9241,5.883,5.8605,5.8572,5.7968,5.7589,5.7589,5.7589,5.7589,5.7589,5.7029,5.6672,5.6672,5.6251,5.6251,5.6834,5.6446,5.6672,5.7871,5.7838,5.745,5.6737,5.7223,5.7589,5.7589,5.7589,5.7654,5.7773,5.7773,5.7806,5.7935,5.7191,5.6705,5.6672,5.6543,5.6284,5.5798,5.6154,5.6284,5.5766,5.5992,5.6446,5.6728,5.7569,5.8572,5.8658,5.8723,5.883,5.917,5.9165,5.9107,5.8927,5.8701,5.8564,5.861,5.8459,5.8473,5.8927,5.9107,5.9343,5.9783,5.9476,5.9165,5.9062,5.903,5.903,5.8985,5.8985,5.9165,5.9794,6.0397,6.0778,7.3196,7.2538,7.4128,7.4837,7.5055,7.4929,7.3759,7.1832,6.9967,6.9468,6.9985,6.8702,6.8606,6.9393,6.8869,6.8319,6.7719,6.7816,6.758,6.7035,6.7132,6.6452,6.5141,6.5012,6.4736,6.4185,6.4056,6.3959,6.3797,6.3182,6.2825,6.2663,6.2113,6.1407,6.0567,5.962,5.9146,5.9049,5.855,5.8427,5.8701,5.8882,5.9004,5.9017,5.8742,5.8605,5.8572,5.7968,5.7589,5.7589,5.7589,5.7589,5.7621,5.7557,5.7459,5.745,5.7903,5.8184,5.8281,5.881,5.9198,5.936,5.8842,5.8194,5.7514,5.7557,5.7589,5.7621,5.7686,5.7838,5.8389,5.8443,5.8713,5.9166,5.8194,5.7417,5.732,5.6802,5.6413,5.6251,5.6413,5.6446,5.6219,5.5886,5.5998,5.684,5.7409,5.8076,5.8795,5.9214,5.9189,5.9062,5.8837,5.8701,5.861,5.8504,5.8367,5.8335,5.8321,5.8321,5.8504,5.8518,5.8564,5.861,5.8564,5.8381,5.8197,5.8104,5.8104,5.7933,5.7918,5.8026,5.8501,5.8863,5.9234,7.296,7.2523,7.3278,7.4067,7.4834,7.4075,7.3033,7.1674,6.9999,6.9508,6.984,6.94,6.9413,6.9743,6.9266,6.872,6.8203,6.7786,6.7066,6.622,6.6187,6.5398,6.4111,6.4015,6.3886,6.3564,6.3707,6.3609,6.3142,6.2571,6.2113,6.1724,6.1044,6.036,5.9813,5.93,5.8927,5.8792,5.8459,5.8381,5.8578,5.8837,5.8959,5.8792,5.9009,5.9111,5.898,5.882,5.8745,5.8745,5.8745,5.8745,5.8745,5.8745,5.8745,5.8745,5.9036,5.9231,5.9231,5.9522,5.9555,5.9166,5.9155,5.9101,5.8777,5.8745,5.8745,5.8745,5.8745,5.8842,5.9155,5.9187,5.9187,5.909,5.8033,5.729,5.6954,5.6224,5.5804,5.5854,5.5804,5.5762,5.5762,5.567,5.5738,5.6424,5.6831,5.7527,5.8236,5.8032,5.8064,5.8568,5.8414,5.8124,5.8194,5.8321,5.8228,5.8136,5.8228,5.8274,5.8321,5.8274,5.8274,5.8274,5.8182,5.8089,5.7871,5.7778,5.7637,5.7543,5.7495,5.7606,5.7793,5.7887,5.8272,7.2589,7.25,7.2319,7.3073,7.4162,7.3043,7.2211,7.1484,7.022,6.9683,6.9738,6.999,7.0044,6.9981,6.9658,6.9117,6.8403,6.7796,6.6825,6.5596,6.5372,6.4636,6.3468,6.3276,6.318,6.3228,6.3437,6.3275,6.2696,6.2266,6.1627,6.0818,6.019,5.9657,5.9241,5.9017,5.8792,5.8564,5.8413,5.8413,5.8518,5.8792,5.8792,5.8655,5.9197,5.9452,5.9241,5.9496,5.9628,5.9628,5.9673,5.9673,5.9673,5.9673,5.9673,5.9673,5.9673,5.9673,5.9673,5.9673,5.9414,5.8896,5.9393,5.9673,5.9673,5.9673,5.9673,5.9673,5.9652,5.964,5.9608,5.9434,5.9143,5.8561,5.7506,5.6755,5.6334,5.5606,5.5072,5.5237,5.5113,5.5063,5.5085,5.5345,5.5709,5.6093,5.6495,5.6988,5.7401,5.6867,5.6918,5.7489,5.7553,5.7336,5.743,5.7743,5.7774,5.7651,5.787,5.8026,5.8058,5.8089,5.8136,5.8089,5.7918,5.7778,5.7731,5.7543,5.7401,5.7306,5.7258,5.7306,5.7306,5.7353,5.7511,7.119,7.1325,7.0796,7.1298,7.2423,7.2033,7.1459,7.082,6.9999,6.9683,6.9675,6.9738,6.9738,6.9738,6.973,6.9133,6.8171,6.798,6.7289,6.6217,6.5564,6.4892,6.4043,6.3468,6.318,6.3228,6.3469,6.3404,6.3052,6.2851,6.2081,6.0902,6.0464,5.9884,5.9113,5.8824,5.855,5.8321,5.8321,5.8321,5.8367,5.8518,5.861,5.861,5.8882,5.9049,5.9049,5.9197,5.9331,5.9375,5.9584,5.9673,5.9673,5.9673,5.9673,5.9673,5.9673,5.9673,5.9673,5.9673,5.964,5.9619,5.9652,5.9673,5.9673,5.9673,5.9673,5.9673,5.9673,5.9673,5.964,5.8991,5.8484,5.8259,5.6905,5.5911,5.5826,5.5271,5.4854,5.4854,5.4854,5.4813,5.4813,5.4889,5.54,5.6411,5.6441,5.6658,5.7146,5.6555,5.5794,5.6091,5.6149,5.6257,5.6252,5.6552,5.69,5.6855,5.7215,5.7543,5.7684,5.7637,5.759,5.7731,5.759,5.7495,5.7306,5.7132,5.7115,5.6971,5.6954,5.6906,5.6858,5.6906,5.7115,7.0926,7.1162,6.9905,6.985,7.0451,7.0217,6.9786,6.922,6.8019,6.7859,6.8468,6.8806,6.9458,7.0283,6.9872,6.9445,6.8929,6.8191,6.7303,6.6425,6.5313,6.4456,6.3726,6.3059,6.2741,6.271,6.3002,6.3051,6.2859,6.2218,6.1299,6.0431,6.0211,5.99,5.9462,5.9292,5.9107,5.8875,5.8464,5.8321,5.8321,5.8473,5.8564,5.8473,5.8792,5.8914,5.8792,5.8972,5.9107,5.9107,5.9331,5.9419,5.9318,5.9407,5.9464,5.9464,5.9628,5.9673,5.9673,5.9673,5.9673,5.9673,5.9673,5.9673,5.9673,5.9673,5.9673,5.9673,5.9673,5.9673,5.9608,5.8818,5.8107,5.7581,5.6424,5.5506,5.5261,5.4846,5.4613,5.4771,5.4655,5.4528,5.4422,5.4494,5.4951,5.5834,5.5931,5.6088,5.6315,5.5897,5.5274,5.4648,5.4799,5.5368,5.578,5.634,5.6637,5.6871,5.7183,5.7495,5.7448,5.7495,5.7495,5.7495,5.7353,5.718,5.7132,5.6971,5.6906,5.6761,5.6761,5.681,5.681,5.681,5.6906,7.0721,7.0628,6.9462,6.9024,6.9035,6.8574,6.8201,6.7822,6.6369,6.6391,6.7465,6.7832,6.8847,7.0205,7.0077,6.9904,6.9556,6.839,6.7423,6.6595,6.4894,6.3891,6.359,6.2525,6.2166,6.2414,6.2661,6.2856,6.281,6.2045,6.1214,6.0654,6.0512,6.0323,5.9977,5.9725,5.96,5.9475,5.8717,5.8369,5.8542,5.8522,5.8427,5.8367,5.8642,5.8701,5.8518,5.8701,5.8792,5.8792,5.8927,5.8927,5.8792,5.8927,5.8985,5.8985,5.9197,5.9331,5.9375,5.9407,5.9452,5.9496,5.954,5.954,5.9584,5.9628,5.9596,5.9584,5.9584,5.9584,5.9487,5.8687,5.7868,5.7311,5.6164,5.5228,5.4943,5.4529,5.4401,5.4486,5.4316,5.4252,5.4246,5.4429,5.4954,5.57,5.5657,5.5579,5.5657,5.5657,5.5115,5.401,5.4168,5.462,5.5411,5.5752,5.6186,5.6555,5.6803,5.7019,5.7067,5.7067,5.7067,5.6779,5.6827,5.6779,5.6682,5.6616,5.6616,5.6616,5.6616,5.6664,5.6664,5.6713,5.6761,7.0337,6.9884,6.9493,6.8961,6.8288,6.7427,6.7072,6.7002,6.5582,6.5753,6.6987,6.698,6.7831,6.9379,7.0124,7.0346,6.9635,6.8633,6.7828,6.6972,6.4279,6.3295,6.3911,6.2186,6.1633,6.2266,6.2513,6.2808,6.3034,6.2778,6.2508,6.1965,6.1679,6.1329,6.063,5.9838,5.9633,6.0076,5.9001,5.8622,5.9096,5.8668,5.8415,5.8338,5.8321,5.8321,5.8321,5.8257,5.8257,5.8257,5.8257,5.8257,5.8257,5.8257,5.8257,5.8257,5.8303,5.8395,5.8655,5.8669,5.8792,5.9004,5.9017,5.9107,5.9241,5.9241,5.9286,5.9331,5.9286,5.9286,5.9222,5.8332,5.7682,5.7478,5.6081,5.5221,5.5051,5.4494,5.408,5.3982,5.399,5.4154,5.4402,5.4818,5.5425,5.5953,5.5984,5.5842,5.6062,5.5906,5.5362,5.4714,5.4375,5.4328,5.4267,5.4838,5.5159,5.5647,5.6207,5.6225,5.6077,5.6077,5.6157,5.6206,5.6317,5.6317,5.6157,5.6077,5.6127,5.6176,5.6274,5.6323,5.6323,5.6616,5.6616,6.9898,6.9147,6.9057,6.8371,6.7354,6.6622,6.5975,6.5318,6.3743,6.4066,6.5444,6.5467,6.6486,6.8386,6.8791,6.9143,6.9267,6.7997,6.7535,6.7423,6.4407,6.3299,6.3929,6.2146,6.1328,6.1582,6.1734,6.1834,6.1822,6.1346,6.1298,6.1629,6.1597,6.139,6.1073,6.0345,6.0297,6.0771,5.9633,5.9254,5.9807,5.9507,5.9144,5.8672,5.8263,5.8011,5.8043,5.784,5.7746,5.7746,5.7918,5.7933,5.7825,5.7887,5.8011,5.8011,5.8119,5.8257,5.8303,5.8349,5.8349,5.8441,5.8487,5.8518,5.8578,5.8578,5.8669,5.876,5.8669,5.8669,5.8664,5.8064,5.7592,5.7388,5.6164,5.509,5.4844,5.4328,5.3958,5.4178,5.4407,5.4708,5.4866,5.5194,5.5626,5.592,5.6084,5.605,5.5804,5.5765,5.5511,5.4609,5.447,5.4683,5.4643,5.4735,5.5036,5.5536,5.5956,5.6077,5.6009,5.6414,5.6586,5.6293,5.6293,5.6103,5.5992,5.575,5.575,5.583,5.5979,5.588,5.588,5.5998,5.5998,6.9022,6.8229,6.794,6.7313,6.6346,6.5267,6.4827,6.4452,6.2869,6.3116,6.4546,6.4394,6.5231,6.6763,6.6912,6.7306,6.8019,6.7122,6.6938,6.7031,6.4048,6.2902,6.3067,6.1477,6.0674,6.0884,6.0824,6.0815,6.0753,6.027,6.0493,6.1325,6.1325,6.1424,6.1446,6.0895,6.0895,6.1194,6.0185,5.9806,6.0374,6.0135,5.9627,5.9109,5.8592,5.8122,5.7793,5.7495,5.737,5.7401,5.7495,5.7448,5.7306,5.7448,5.7543,5.7543,5.7684,5.7793,5.784,5.784,5.7887,5.798,5.798,5.798,5.8072,5.8072,5.8197,5.8289,5.8211,5.8197,5.8148,5.78,5.7593,5.7634,5.6505,5.5537,5.5184,5.4687,5.451,5.466,5.4992,5.5225,5.5364,5.5701,5.5865,5.5958,5.6146,5.5999,5.5707,5.5663,5.5758,5.4952,5.5126,5.5469,5.564,5.5821,5.5436,5.58,5.6063,5.6113,5.6234,5.6637,5.6819,5.6516,5.6254,5.6063,5.5832,5.5541,5.5531,5.5561,5.5401,5.53,5.53,5.53,5.5401,6.7879,6.6861,6.6107,6.5859,6.5354,6.3884,6.3852,6.4772,6.3071,6.3278,6.459,6.3922,6.443,6.5207,6.5105,6.5128,6.5979,6.6034,6.589,6.5378,6.3117,6.1998,6.1945,6.0265,5.9721,6.0349,6.0069,5.9902,5.9933,5.9811,6.0172,6.0959,6.1133,6.1356,6.1935,6.1213,6.1263,6.1514,6.0523,6.0321,6.0823,6.0366,5.9875,5.9505,5.9278,5.8687,5.7635,5.732,5.7177,5.7115,5.6923,5.681,5.6858,5.6906,5.6858,5.6906,5.6858,5.6954,5.7084,5.7132,5.7275,5.7448,5.7464,5.7559,5.7731,5.7825,5.7825,5.7871,5.7871,5.7825,5.7637,5.7527,5.7684,5.8087,5.7115,5.6319,5.5865,5.5527,5.5299,5.5194,5.5456,5.5684,5.579,5.6015,5.6237,5.625,5.6206,5.61,5.6009,5.5962,5.6023,5.6224,5.6263,5.6191,5.6659,5.7027,5.638,5.5972,5.6221,5.632,5.647,5.6779,5.6907,5.6675,5.6346,5.6123,5.5833,5.5543,5.5232,5.5172,5.5002,5.4883,5.4794,5.4845,5.4997,6.7507,6.6861,6.6835,6.6251,6.5441,6.5029,6.4769,6.4385,6.3636,6.3786,6.4168,6.3946,6.4547,6.5241,6.4468,6.4246,6.4823,6.3998,6.405,6.4427,6.2162,6.1162,6.1292,6.006,5.953,5.9696,5.9474,5.9343,5.9254,5.8981,5.9255,6.0158,6.0503,6.0763,6.1144,6.0889,6.1027,6.1496,6.084,6.0715,6.1308,6.1033,6.054,6.0035,5.9723,5.924,5.8455,5.7881,5.7369,5.6968,5.6858,5.681,5.681,5.681,5.681,5.681,5.681,5.681,5.6906,5.6906,5.6923,5.6971,5.705,5.7019,5.7146,5.7194,5.7211,5.7353,5.7322,5.7401,5.7464,5.7495,5.759,5.7731,5.7043,5.6481,5.6077,5.5767,5.5611,5.5563,5.5896,5.6151,5.6164,5.6244,5.6218,5.6229,5.6304,5.6395,5.6405,5.6444,5.665,5.6899,5.6825,5.681,5.7063,5.7196,5.6862,5.6519,5.6639,5.6616,5.6713,5.6958,5.7083,5.6858,5.6479,5.616,5.587,5.564,5.5329,5.51,5.5122,5.4886,5.4399,5.4451,5.4783,6.7012,6.6412,6.6657,6.605,6.5011,6.5044,6.4627,6.4034,6.3746,6.3648,6.3757,6.375,6.3999,6.4248,6.3549,6.3216,6.3225,6.2102,6.2249,6.3085,6.1617,6.0761,6.081,5.9796,5.9043,5.8899,5.8841,5.8782,5.8782,5.846,5.8673,5.9374,6.018,6.054,6.0595,6.0979,6.1368,6.1399,6.1057,6.1025,6.1317,6.1257,6.0969,6.0495,6.028,5.9809,5.9193,5.8731,5.8208,5.7641,5.7333,5.721,5.7179,5.721,5.7303,5.7487,5.7333,5.721,5.7148,5.6964,5.681,5.681,5.681,5.681,5.681,5.681,5.6906,5.6971,5.7019,5.7067,5.7211,5.7258,5.7258,5.7258,5.6964,5.659,5.6244,5.579,5.5678,5.5796,5.6262,5.6518,5.6541,5.6666,5.6526,5.6567,5.6687,5.6753,5.6844,5.6929,5.7124,5.7258,5.7302,5.7262,5.7285,5.7291,5.7237,5.7167,5.7131,5.6989,5.6959,5.7463,5.7705,5.7016,5.6554,5.6182,5.5894,5.5806,5.5606,5.5488,5.5395,5.5195,5.4937,5.472,5.489,6.6411,6.5627,6.5668,6.5238,6.4377,6.3942,6.3883,6.4001,6.3429,6.3293,6.3496,6.3525,6.313,6.251,6.2543,6.2273,6.1614,6.1035,6.0864,6.1098,6.0879,6.0722,5.991,5.9456,5.8973,5.8405,5.8446,5.8422,5.8455,5.8284,5.8376,5.8748,5.9859,6.0551,6.0334,6.1397,6.167,6.134,6.1247,6.1247,6.1186,6.1155,6.1052,6.0784,6.0701,6.0424,5.9932,5.9747,5.9439,5.8793,5.8134,5.7888,5.7888,5.7888,5.8134,5.8547,5.8196,5.7949,5.7734,5.7303,5.6964,5.6964,5.6871,5.681,5.681,5.681,5.681,5.681,5.681,5.681,5.6858,5.6858,5.6858,5.681,5.6831,5.6704,5.6378,5.5791,5.5694,5.6047,5.6525,5.6869,5.69,5.716,5.7299,5.7316,5.7191,5.7206,5.7214,5.7288,5.7391,5.7523,5.7713,5.7616,5.7631,5.7551,5.7496,5.7298,5.7294,5.7261,5.7172,5.7584,5.7823,5.7218,5.6786,5.6384,5.6213,5.6322,5.6147,5.5859,5.58,5.5663,5.5463,5.5122,5.5093,6.5205,6.4291,6.5236,6.5005,6.4071,6.4283,6.4556,6.4565,6.3965,6.37,6.3806,6.3834,6.359,6.3362,6.2288,6.1955,6.1813,6.0843,6.0576,6.09,6.1041,6.066,6.0231,6.0343,6.0062,5.9504,5.9215,5.9115,5.8633,5.8235,5.8132,5.8375,5.8755,5.9411,6.0335,6.0808,6.1241,6.1563,6.1637,6.1308,6.0907,6.0845,6.0897,6.0794,6.0794,6.0701,6.0547,6.0517,5.9963,5.8885,5.8639,5.8566,5.8516,5.8516,5.8639,5.8793,5.872,5.8566,5.8393,5.7949,5.758,5.7487,5.7118,5.681,5.681,5.681,5.681,5.681,5.681,5.6761,5.6761,5.6761,5.6713,5.6567,5.6598,5.65,5.6176,5.5956,5.6047,5.6555,5.6708,5.697,5.726,5.7376,5.7318,5.7408,5.7543,5.7736,5.769,5.7851,5.8011,5.7942,5.8069,5.7963,5.7886,5.786,5.7719,5.7382,5.7409,5.7491,5.7403,5.752,5.7496,5.7183,5.726,5.6942,5.7143,5.7371,5.691,5.6307,5.6307,5.6194,5.5674,5.5329,5.5416,6.4768,6.4096,6.4875,6.4734,6.4003,6.4127,6.4282,6.4302,6.3791,6.3507,6.3507,6.3507,6.3431,6.3054,6.2179,6.1804,6.1739,6.0927,6.061,6.0582,6.0638,6.0441,6.0273,6.0554,6.0357,5.9767,5.9589,5.9284,5.8918,5.8523,5.839,5.8466,5.8772,5.9161,5.9327,6.0779,6.0826,6.0553,6.0798,6.0806,5.9827,6.0084,6.0241,6.0346,6.0534,6.0794,6.0794,6.0794,6.027,5.9439,5.9193,5.9193,5.9193,5.9193,5.9316,5.9562,5.9378,5.9193,5.9101,5.8577,5.8085,5.7826,5.7395,5.7118,5.6902,5.681,5.681,5.681,5.6713,5.6616,5.6616,5.6519,5.6323,5.6157,5.6321,5.6373,5.6254,5.6254,5.6506,5.6838,5.7157,5.7355,5.7753,5.7805,5.7902,5.7969,5.8214,5.8202,5.8213,5.8377,5.839,5.8169,5.8003,5.7892,5.781,5.7727,5.7873,5.7619,5.7795,5.7823,5.759,5.7561,5.7476,5.7476,5.753,5.7642,5.7671,5.7671,5.7324,5.6921,5.6837,5.6665,5.6258,5.5939,5.5968,6.4621,6.4398,6.4523,6.4304,6.3888,6.3456,6.3476,6.3566,6.31,6.2876,6.2914,6.2942,6.2755,6.2127,6.2108,6.1762,6.1369,6.1284,6.0919,6.0694,6.0554,6.0378,6.0061,6.023,5.9977,5.9445,5.922,5.9136,5.9058,5.903,5.8868,5.8687,5.9615,5.9468,5.9132,6.0694,6.0559,5.9466,6.0176,6.0027,5.9155,5.9411,5.9811,5.9736,6.0377,6.069,6.069,6.0659,6.0331,5.9829,5.985,5.9901,5.9901,5.9901,6.0116,6.0455,6.0147,5.987,5.9686,5.907,5.8473,5.7949,5.7685,5.7438,5.6867,5.6664,5.6616,5.6616,5.647,5.6372,5.6354,5.6188,5.6111,5.6033,5.6355,5.6636,5.6756,5.6696,5.6805,5.7146,5.7752,5.8052,5.8351,5.8626,5.8985,5.8399,5.8476,5.8288,5.8153,5.8191,5.8059,5.7781,5.7725,5.7698,5.7588,5.7534,5.7737,5.7826,5.8261,5.8348,5.7883,5.7766,5.7681,5.7737,5.7939,5.7881,5.7707,5.7563,5.7361,5.7301,5.7071,5.7158,5.7158,5.6868,5.6781,6.383,6.3046,6.3794,6.3496,6.2729,6.2811,6.2933,6.3014,6.2632,6.2515,6.2582,6.2715,6.2763,6.2623,6.223,6.2155,6.2258,6.1949,6.1734,6.1678,6.1621,6.0782,6.0086,6.0133,6.005,5.9548,5.9209,5.905,5.8906,5.8885,5.8899,5.9064,5.8941,5.8949,5.9414,5.9857,6.0267,5.9791,6.043,6.0048,5.9165,5.9513,5.9795,5.962,6.0197,6.0429,6.0429,6.0302,6.0136,6.0067,6.0236,6.0331,6.0413,6.0496,6.0557,6.065,6.0619,6.028,5.9839,5.9204,5.8516,5.7882,5.7334,5.6623,5.6531,5.6354,5.6256,5.6176,5.6127,5.6077,5.615,5.6345,5.6375,5.6404,5.6732,5.7198,5.7558,5.7318,5.7296,5.7752,5.7999,5.8268,5.8716,5.8619,5.8773,5.8719,5.8555,5.828,5.8114,5.7948,5.7781,5.7557,5.7705,5.7792,5.7939,5.7971,5.8146,5.8176,5.8523,5.8639,5.8176,5.8089,5.806,5.8205,5.8406,5.8203,5.7682,5.7509,5.7335,5.7334,5.7363,5.748,5.751,5.7422,5.7537,6.3794,6.3008,6.352,6.3324,6.2644,6.255,6.2619,6.2713,6.2296,6.2086,6.2153,6.2287,6.2354,6.2354,6.2274,6.2302,6.2225,6.1768,6.1629,6.1629,6.1351,6.0589,6.0033,5.9875,5.9699,5.9053,5.8795,5.8712,5.8868,5.8895,5.8987,5.915,5.8976,5.884,5.9091,5.9629,5.9616,5.9041,5.9653,5.9508,5.8436,5.8754,5.9425,5.9638,6.0167,6.0532,6.0228,6.0092,5.9773,5.9583,5.9606,5.9978,6.0355,6.0407,6.046,6.046,6.0407,6.0285,5.9796,5.9572,5.894,5.7981,5.7647,5.7231,5.6846,5.6453,5.6434,5.6343,5.6122,5.5901,5.6053,5.6224,5.6432,5.6757,5.7109,5.7457,5.7589,5.757,5.7789,5.822,5.8375,5.8446,5.8545,5.8525,5.85,5.8445,5.8225,5.7948,5.7892,5.7781,5.7528,5.7503,5.7737,5.7942,5.8232,5.8436,5.8726,5.8726,5.8696,5.8637,5.829,5.8348,5.8552,5.8436,5.8234,5.7858,5.7425,5.7339,5.7369,5.7456,5.7513,5.7657,5.7772,5.7859,5.7974,6.3957,6.3415,6.3415,6.3204,6.2844,6.2353,6.2301,6.2398,6.1999,6.1807,6.1764,6.1804,6.1951,6.1856,6.2153,6.2086,6.1678,6.1335,6.128,6.1118,6.0618,6.0083,5.9731,5.9583,5.9243,5.8365,5.8439,5.8696,5.9036,5.9183,5.9248,5.9312,5.9478,5.9066,5.8591,5.9323,5.9371,5.801,5.8653,5.8592,5.7543,5.7796,5.858,5.9347,5.9691,6.006,5.9669,5.9381,5.9015,5.855,5.8356,5.8714,5.9291,5.9841,6.0046,6.0076,6.0334,6.0434,6.0305,6.0069,5.9583,5.8316,5.8477,5.8152,5.7304,5.6799,5.6748,5.6637,5.6415,5.6092,5.6256,5.6534,5.6616,5.6852,5.7422,5.7587,5.7508,5.7832,5.8154,5.8426,5.8431,5.8436,5.8331,5.8195,5.814,5.8114,5.7921,5.7783,5.7727,5.7732,5.7678,5.7854,5.8145,5.8552,5.8813,5.8871,5.9159,5.8897,5.8808,5.8546,5.8369,5.8688,5.8692,5.8089,5.7773,5.7628,5.7571,5.7656,5.7683,5.7594,5.7738,5.7941,5.8112,5.828,5.8398,6.3957,6.3415,6.3415,6.2919,6.2192,6.1986,6.1861,6.1666,6.1635,6.16,6.1656,6.1766,6.1777,6.1872,6.1816,6.1709,6.152,6.1247,6.0865,6.0511,6.0115,5.9909,5.93,5.9515,5.9269,5.8973,5.8958,5.9172,5.9331,5.9424,5.9555,5.979,5.9921,5.9285,5.8712,5.8876,5.8934,5.782,5.8168,5.8015,5.757,5.7992,5.8469,5.8958,5.8868,5.8889,5.885,5.7876,5.7247,5.7722,5.7162,5.6964,5.7392,5.8585,5.9555,6.0045,6.0601,6.0603,6.0385,6.0546,5.9993,5.9092,5.8662,5.8316,5.751,5.6813,5.6792,5.6809,5.6817,5.6743,5.6608,5.6935,5.7244,5.7385,5.7631,5.8018,5.8048,5.8132,5.8246,5.846,5.8401,5.8283,5.8206,5.8182,5.8214,5.8246,5.8165,5.8023,5.7938,5.8056,5.8231,5.8435,5.8755,5.9131,5.9504,5.9416,5.9414,5.8918,5.8684,5.8367,5.8363,5.8911,5.8799,5.8198,5.8026,5.814,5.808,5.8049,5.8104,5.8156,5.8215,5.8334,5.8443,5.8551,5.8617,6.3465,6.3223,6.3223,6.2802,6.2175,6.2023,6.179,6.1406,6.147,6.1592,6.1615,6.1557,6.1587,6.1765,6.1754,6.1629,6.1542,6.102,6.0639,6.0204,5.995,5.9561,5.8994,5.9494,5.9508,5.9413,5.9657,5.9764,5.9748,5.9721,5.9855,5.9894,6.0093,5.9759,5.9219,5.9349,5.899,5.841,5.8283,5.8109,5.7622,5.8202,5.8518,5.8313,5.8394,5.852,5.8263,5.7974,5.7078,5.6791,5.6356,5.5945,5.6061,5.6702,5.7917,5.846,5.9365,5.9717,5.9444,5.9572,5.9446,5.8693,5.8647,5.8398,5.7812,5.7265,5.6921,5.6756,5.668,5.6746,5.6912,5.7266,5.7424,5.7559,5.7856,5.8094,5.8217,5.8249,5.8424,5.8568,5.8358,5.8273,5.828,5.8255,5.8286,5.8345,5.8318,5.8289,5.8174,5.8493,5.8813,5.89,5.9131,5.9273,5.941,5.9264,5.926,5.8788,5.844,5.8124,5.8093,5.8462,5.8572,5.8313,5.8285,5.8608,5.8462,5.8373,5.8512,5.871,5.8706,5.8762,5.8791,5.8791,5.8912,6.3111,6.3111,6.3111,6.2771,6.2326,6.2299,6.1987,6.1589,6.1502,6.1638,6.1747,6.1434,6.1451,6.1639,6.1619,6.1609,6.1613,6.074,6.0306,6.0076,5.9694,5.9189,5.9195,5.9483,5.9839,5.9544,5.9896,6.0401,6.0226,6.0145,6.005,6.0185,6.0388,6.0155,5.973,5.9725,5.9539,5.9143,5.8821,5.839,5.8053,5.8071,5.8111,5.764,5.8216,5.8188,5.8033,5.745,5.6845,5.6181,5.5682,5.5172,5.4569,5.4968,5.55,5.5872,5.7138,5.7905,5.8414,5.9059,5.9434,5.8776,5.8877,5.8535,5.81,5.7665,5.7463,5.6745,5.675,5.6957,5.7315,5.7319,5.7419,5.7605,5.7786,5.8049,5.8287,5.8492,5.8812,5.8724,5.8371,5.843,5.8636,5.8637,5.8754,5.8812,5.8841,5.8842,5.8842,5.919,5.9422,5.9391,5.9446,5.9353,5.9231,5.8677,5.8611,5.8455,5.8107,5.7853,5.7789,5.7865,5.803,5.8513,5.8941,5.9239,5.8946,5.8856,5.911,5.9307,5.9267,5.9233,5.9301,5.9476,5.9623,6.3111,6.3111,6.3111,6.2863,6.254,6.2513,6.229,6.1883,6.1706,6.1668,6.1761,6.1449,6.1425,6.1505,6.1531,6.1236,6.0914,6.0453,6.0019,5.977,5.9386,5.9184,5.9122,5.9429,5.9595,5.9504,5.9707,6.0177,6.036,6.0497,6.062,6.0661,6.0579,6.0444,5.9968,6.0048,5.9587,5.9125,5.8922,5.8624,5.8026,5.7639,5.7394,5.7186,5.705,5.7099,5.7404,5.6727,5.5895,5.5866,5.5093,5.4243,5.347,5.3335,5.3247,5.4408,5.6578,5.939,5.9099,5.9377,5.9704,5.9054,5.9177,5.8804,5.825,5.7959,5.7698,5.7252,5.7492,5.7676,5.7599,5.769,5.7611,5.7761,5.8027,5.8288,5.8493,5.9016,5.9306,5.951,5.9393,5.9277,5.9365,5.9248,5.9219,5.9277,5.9335,5.9393,5.948,5.9857,5.9911,5.9877,5.9408,5.9254,5.9019,5.8466,5.8313,5.8151,5.7978,5.7781,5.803,5.825,5.8615,5.9098,5.9583,6.0005,5.997,5.9999,5.9964,5.9964,5.9964,5.9964,5.9935,6.0076,6.0132,6.247,6.247,6.247,6.2396,6.2273,6.2273,6.2198,6.1996,6.1935,6.1953,6.207,6.1715,6.1549,6.1576,6.1721,6.1685,6.138,6.0781,6.0289,5.9823,5.9496,5.9121,5.8929,5.9088,5.9298,5.9368,5.9508,5.9718,6.0135,6.0342,6.0549,6.0782,6.0755,6.0742,6.028,6.0375,6.0023,5.9561,5.8954,5.8334,5.7821,5.7339,5.6912,5.6616,5.6348,5.6536,5.653,5.632,5.5643,5.5564,5.4988,5.4593,5.3905,5.3521,5.3245,5.3369,5.5017,5.6496,5.7138,5.8088,5.851,5.8896,5.8693,5.8375,5.8033,5.7836,5.7666,5.726,5.752,5.764,5.7674,5.7907,5.7939,5.8115,5.8464,5.8929,5.9219,5.9539,5.9916,6.0148,6.0322,6.0118,5.9973,5.9798,5.9856,6.0118,6.0205,6.0263,6.032,6.0403,6.0425,6.0237,5.9622,5.8977,5.8657,5.8309,5.8217,5.8114,5.8283,5.8255,5.8615,5.8952,5.9289,5.9795,6.0449,6.075,6.1003,6.0919,6.0694,6.0694,6.0694,6.0554,6.0413,6.0245,6.0413,6.2048,6.2048,6.2048,6.2048,6.2048,6.2048,6.2048,6.2048,6.2022,6.2198,6.2242,6.1948,6.1764,6.1843,6.1935,6.1917,6.1943,6.1398,6.0901,6.0352,5.9725,5.9222,5.8979,5.8963,5.8947,5.8973,5.8947,5.9158,5.9342,5.9482,5.9761,6.048,6.0342,6.0411,6.048,6.033,6.0114,5.9695,5.8899,5.8349,5.7879,5.7438,5.6944,5.6531,5.6318,5.6265,5.6132,5.6078,5.5785,5.537,5.5184,5.48,5.414,5.3704,5.3482,5.3492,5.4267,5.4691,5.5583,5.6416,5.6993,5.7557,5.8124,5.8246,5.8076,5.7765,5.7652,5.765,5.765,5.765,5.7652,5.8029,5.829,5.8639,5.9132,5.9655,6.0148,6.035,6.0466,6.0582,6.0756,6.0752,6.0547,6.0345,6.0461,6.0928,6.1073,6.1013,6.0863,6.0652,6.0377,6.0043,5.9371,5.8843,5.881,5.8461,5.8311,5.825,5.8418,5.8755,5.9205,5.9542,5.9823,6.0441,6.1116,6.1397,6.1537,6.1453,6.134,6.1088,6.0919,6.0919,6.0807,6.0666,6.075,6.2048,6.2048,6.2048,6.2048,6.2048,6.2048,6.2048,6.2048,6.2048,6.2048,6.2123,6.1969,6.1992,6.1969,6.1969,6.2048,6.1947,6.1372,6.111,6.0666,5.9986,5.9542,5.9202,5.8915,5.8627,5.8556,5.8433,5.8381,5.8452,5.8381,5.8876,5.9508,5.9718,5.9718,5.9787,5.99,5.983,5.9563,5.8998,5.8636,5.8343,5.7955,5.7382,5.6997,5.6811,5.6691,5.6119,5.608,5.5775,5.5217,5.5191,5.494,5.4296,5.3915,5.3772,5.3629,5.3497,5.3947,5.4724,5.5607,5.6335,5.6852,5.7484,5.8175,5.806,5.8813,5.8784,5.8319,5.8261,5.8175,5.8232,5.8377,5.89,5.9335,5.9943,6.0524,6.093,6.1044,6.116,6.1162,6.1128,6.112,6.0825,6.0534,6.0362,6.071,6.0681,6.0681,6.0377,6.0132,5.9948,5.9617,5.8946,5.8738,5.9042,5.8896,5.8643,5.8755,5.9008,5.9373,5.9823,6.0132,6.0385,6.0919,6.1509,6.179,6.2043,6.1987,6.179,6.1312,6.1172,6.1397,6.1565,6.1565,6.1593,6.2048,6.2048,6.2048,6.2048,6.2048,6.2048,6.2048,6.2048,6.2048,6.2048,6.1999,6.2048,6.2048,6.2048,6.2048,6.2048,6.2022,6.179,6.145,6.111,6.064,6.0248,5.9809,5.9221,5.8843,5.8848,5.8249,5.7827,5.8229,5.7878,5.7836,5.831,5.8955,5.9368,5.9508,5.9508,5.9578,5.9455,5.9103,5.8822,5.8302,5.8006,5.7446,5.6946,5.6867,5.6551,5.6103,5.5998,5.5656,5.5314,5.5182,5.4906,5.4603,5.4249,5.4027,5.3844,5.3596,5.3698,5.4043,5.4921,5.5629,5.6413,5.7234,5.7996,5.8083,5.8782,5.9132,5.8987,5.8871,5.8668,5.8639,5.9274,5.9966,6.0372,6.0718,6.1273,6.1505,6.153,6.1498,6.1293,6.1311,6.1294,6.0974,6.066,6.0488,6.0463,6.0406,6.0255,5.9948,5.9763,5.964,5.9544,5.8992,5.8783,5.9121,5.9064,5.8952,5.9261,5.9542,5.9992,6.0385,6.0638,6.0947,6.1453,6.1846,6.2043,6.2268,6.2436,6.2296,6.2015,6.2015,6.2155,6.2296,6.2464,6.2408,6.2048,6.2048,6.2048,6.2048,6.2048,6.2048,6.2048,6.2048,6.2048,6.2077,6.2234,6.2365,6.2365,6.2287,6.2234,6.2077,6.2025,6.1894,6.1711,6.135,6.0988,6.0727,6.0111,5.9502,5.8976,5.9083,5.8456,5.7955,5.8283,5.7779,5.7801,5.8016,5.8264,5.8687,5.9017,5.9228,5.9298,5.9228,5.9035,5.8789,5.8271,5.8105,5.7704,5.7233,5.7128,5.6814,5.6421,5.6238,5.6107,5.5767,5.5558,5.536,5.5125,5.4797,5.4391,5.4143,5.3895,5.3635,5.3818,5.4315,5.5311,5.6486,5.7093,5.772,5.8164,5.8643,5.8817,5.9185,5.9097,5.8979,5.8801,5.9494,6.0011,6.0272,6.0646,6.111,6.1311,6.1426,6.1451,6.1389,6.1427,6.1377,6.0916,6.0512,6.0375,6.0176,5.9853,5.9763,5.964,5.9454,5.9454,5.9329,5.9149,5.9149,5.9205,5.9373,5.957,5.9711,6.0048,6.0526,6.0919,6.1172,6.1706,6.2464,6.2661,6.2464,6.2661,6.3054,6.3026,6.2858,6.2998,6.3223,6.3392,6.3504,6.3111,6.2048,6.2048,6.2048,6.2048,6.2048,6.2048,6.1999,6.2077,6.213,6.2365,6.2862,6.3254,6.3175,6.2835,6.2679,6.2417,6.2025,6.1973,6.1819,6.1614,6.0976,6.0567,6.016,5.9627,5.9173,5.8922,5.8421,5.8196,5.8375,5.7998,5.8024,5.8046,5.806,5.8037,5.8005,5.8381,5.8523,5.8523,5.8523,5.8444,5.8392,5.8366,5.8052,5.7791,5.7634,5.7346,5.6764,5.6634,5.6503,5.6226,5.5862,5.5731,5.5627,5.5008,5.4588,5.4459,5.419,5.4029,5.4045,5.4508,5.5337,5.6332,5.6639,5.7307,5.8342,5.8578,5.8327,5.8616,5.8649,5.8649,5.8888,5.9273,5.9668,6.0332,6.0698,6.1154,6.1411,6.1485,6.1557,6.1782,6.1564,6.1345,6.0822,6.0391,6.0166,5.9877,5.947,5.9323,5.9436,5.9633,5.9774,5.9802,5.9767,5.9767,5.9879,6.002,6.016,6.0301,6.0582,6.1088,6.1481,6.1818,6.2492,6.3364,6.3364,6.3054,6.3392,6.3813,6.3841,6.3926,6.4178,6.4375,6.4612,6.4499,6.3954,6.2048,6.2048,6.2048,6.2048,6.2048,6.2048,6.2182,6.2574,6.2914,6.3227,6.3384,6.362,6.3358,6.2966,6.2707,6.2446,6.2051,6.1646,6.1571,6.1469,6.0859,6.0733,6.0377,5.9767,5.9438,5.9338,5.8807,5.8454,5.858,5.8202,5.8026,5.8,5.8198,5.8031,5.7971,5.807,5.807,5.807,5.807,5.807,5.8141,5.8355,5.8347,5.8183,5.8183,5.7781,5.7102,5.7102,5.6833,5.6408,5.5977,5.5848,5.5796,5.5254,5.5031,5.48,5.456,5.4355,5.4167,5.4204,5.4417,5.5169,5.5759,5.6332,5.6677,5.7258,5.7478,5.7867,5.8126,5.8251,5.8466,5.8885,5.9451,6.0568,6.1139,6.1638,6.1911,6.1753,6.1733,6.2191,6.2236,6.2022,6.1582,6.1019,6.0681,6.0681,6.0477,6.002,5.9992,6.0385,6.061,6.0638,6.0638,6.0554,6.0582,6.0666,6.075,6.0863,6.1172,6.165,6.2043,6.2436,6.3026,6.3785,6.3729,6.3673,6.4122,6.4544,6.4853,6.5078,6.5134,6.505,6.5034,6.4893,6.464,6.1597,6.1597,6.1804,6.1908,6.1882,6.2185,6.26,6.3149,6.3724,6.3985,6.3985,6.3959,6.3672,6.3151,6.2709,6.2294,6.1773,6.1344,6.1193,6.1117,6.0711,6.0457,6.0202,5.9972,5.9692,5.9665,5.931,5.893,5.8981,5.8629,5.8403,5.8353,5.8504,5.8421,5.8225,5.811,5.7919,5.7842,5.7739,5.7784,5.7856,5.7999,5.8141,5.8115,5.8115,5.7895,5.7578,5.7403,5.7158,5.6585,5.6284,5.6104,5.5976,5.5555,5.5427,5.5223,5.5032,5.4733,5.4352,5.392,5.4125,5.4474,5.477,5.5255,5.5587,5.616,5.6622,5.7,5.752,5.7677,5.7823,5.8222,5.8838,5.9928,6.0155,6.0611,6.1453,6.1296,6.1451,6.1891,6.2452,6.2302,6.2342,6.1874,6.134,6.1453,6.1565,6.1116,6.0666,6.0975,6.1284,6.1256,6.12,6.1031,6.1088,6.1256,6.134,6.1425,6.1874,6.2408,6.2717,6.3139,6.3673,6.415,6.4235,6.4431,6.4909,6.5302,6.5471,6.564,6.5752,6.5612,6.5484,6.5371,6.5287,6.0737,6.0839,6.1377,6.1608,6.1788,6.2455,6.3151,6.3673,6.4221,6.4378,6.443,6.4352,6.3935,6.3465,6.2637,6.2043,6.1553,6.1069,6.0942,6.0789,6.0634,6.0378,6.035,6.0294,6.0191,6.0013,5.9784,5.9633,5.9533,5.9257,5.9006,5.8906,5.9034,5.8832,5.8499,5.8215,5.7951,5.7691,5.7559,5.7554,5.7621,5.7698,5.7893,5.7945,5.7924,5.8011,5.7969,5.7998,5.7951,5.7699,5.7444,5.7031,5.6448,5.57,5.5685,5.5669,5.5631,5.5156,5.4804,5.4351,5.4376,5.4744,5.4599,5.5246,5.5598,5.5503,5.5689,5.6112,5.6583,5.6743,5.6916,5.7237,5.7584,5.7931,5.8062,5.8951,6.0185,6.0593,6.0804,6.1286,6.1946,6.2246,6.2704,6.2492,6.1781,6.2099,6.2155,6.2015,6.1621,6.1453,6.165,6.1621,6.1537,6.1397,6.1565,6.2071,6.2408,6.2661,6.2858,6.3307,6.3588,6.3841,6.4319,6.4684,6.4881,6.519,6.5612,6.5836,6.5949,6.6117,6.6104,6.6104,6.5907,6.6117,6.6117,6.0891,6.1377,6.1557,6.1839,6.2223,6.2868,6.3309,6.3515,6.3951,6.4003,6.3696,6.4029,6.3644,6.2741,6.2457,6.2199,6.1813,6.1479,6.1322,6.1139,6.0905,6.0874,6.0896,6.0867,6.0788,6.0613,6.0437,6.0236,5.9985,5.9734,5.9483,5.9359,5.936,5.911,5.8807,5.8605,5.8147,5.7737,5.7607,5.7426,5.7469,5.7597,5.7747,5.7947,5.813,5.819,5.822,5.8222,5.8073,5.7524,5.7399,5.7049,5.7024,5.6749,5.6749,5.6568,5.6317,5.5867,5.5742,5.5566,5.5541,5.5666,5.5602,5.5148,5.5234,5.5197,5.5166,5.5637,5.615,5.6505,5.6695,5.6894,5.739,5.7843,5.7843,5.8104,5.9255,5.9749,6.003,6.0802,6.1474,6.1862,6.2434,6.256,6.2064,6.2452,6.2679,6.2491,6.2483,6.2314,6.224,6.224,6.2436,6.2464,6.2773,6.3251,6.3616,6.3926,6.3954,6.4038,6.4319,6.46,6.4965,6.5274,6.5555,6.5892,6.6258,6.637,6.6286,6.6258,6.6342,6.6398,6.6455,6.6525,6.6595,6.0608,6.0888,6.1471,6.203,6.2538,6.2974,6.3046,6.3203,6.383,6.3812,6.3376,6.3632,6.3274,6.253,6.2246,6.2142,6.2038,6.1469,6.1233,6.1306,6.14,6.1194,6.119,6.1366,6.114,6.0964,6.0688,6.0437,6.0136,5.9759,5.9483,5.9458,5.9508,5.9332,5.9081,5.9007,5.8681,5.8152,5.7698,5.7321,5.7271,5.737,5.7522,5.7871,5.815,5.8026,5.8102,5.8102,5.7722,5.7442,5.7366,5.7294,5.7193,5.7067,5.7044,5.6925,5.7025,5.6725,5.66,5.6522,5.6622,5.6746,5.6671,5.6443,5.6141,5.6135,5.5912,5.598,5.6264,5.6525,5.6647,5.6821,5.7538,5.8355,5.8002,5.767,5.8221,5.8826,5.9518,6.0276,6.0811,6.1259,6.1587,6.1877,6.1931,6.1713,6.1973,6.2275,6.2656,6.304,6.3034,6.3083,6.3448,6.3729,6.4038,6.4207,6.4375,6.4516,6.4431,6.46,6.4965,6.5246,6.5471,6.5864,6.6258,6.6454,6.6511,6.6539,6.6539,6.6511,6.6567,6.6567,6.6539,6.6314,6.6455,6.0035,5.9812,6.1266,6.225,6.2772,6.2722,6.2697,6.2854,6.3508,6.3575,6.3115,6.3115,6.2729,6.2012,6.1675,6.1745,6.1717,6.1403,6.1425,6.1316,6.1622,6.1567,6.1692,6.1768,6.1692,6.114,6.0814,6.0864,5.9985,5.9631,5.9553,5.9481,5.9478,5.9248,5.9098,5.9223,5.8973,5.8392,5.7943,5.7593,5.7196,5.6943,5.6789,5.7194,5.719,5.7133,5.7478,5.7524,5.7446,5.7601,5.7629,5.7432,5.7229,5.7253,5.7155,5.7207,5.7564,5.7494,5.7247,5.7049,5.715,5.725,5.73,5.7125,5.6825,5.6873,5.6771,5.6721,5.7013,5.701,5.7036,5.701,5.7557,5.7728,5.7509,5.7791,5.8521,5.9001,5.9481,6.015,6.0478,6.088,6.129,6.155,6.1581,6.1058,6.1192,6.1814,6.2641,6.3362,6.366,6.3819,6.4094,6.4431,6.4797,6.4937,6.5021,6.505,6.5009,6.5177,6.546,6.5697,6.5949,6.623,6.6483,6.6539,6.6567,6.6707,6.6848,6.6834,6.6862,6.6805,6.6679,6.6622,6.6398,6.0236,6.0211,6.104,6.1918,6.2722,6.237,6.2195,6.2195,6.2356,6.2215,6.1836,6.2038,6.1811,6.1132,6.0975,6.1223,6.1827,6.1672,6.1768,6.2119,6.2295,6.2195,6.237,6.2395,6.232,6.2245,6.1918,6.1316,6.0609,6.0022,5.9665,5.9587,5.9429,5.9172,5.8801,5.9024,5.9069,5.8664,5.8575,5.8044,5.7438,5.7309,5.7278,5.7503,5.7495,5.7716,5.7962,5.7986,5.783,5.7697,5.7697,5.7521,5.7448,5.7781,5.7937,5.7966,5.7942,5.7826,5.7481,5.7265,5.7242,5.7168,5.7042,5.7067,5.7145,5.7474,5.7625,5.76,5.7675,5.76,5.7499,5.7474,5.7374,5.7248,5.7123,5.795,5.8807,5.9212,5.9566,5.9868,6.0163,6.0493,6.0829,6.1031,6.1068,6.1042,6.114,6.1657,6.2638,6.3429,6.3986,6.422,6.4532,6.4881,6.5331,6.5612,6.5598,6.5796,6.5894,6.5936,6.5921,6.6104,6.6286,6.6426,6.6567,6.6764,6.696,6.7129,6.7241,6.7297,6.7395,6.7479,6.7576,6.7589,6.7084,6.0186,6.0035,6.0563,6.1291,6.1943,6.1768,6.1642,6.1642,6.1642,6.1466,6.124,6.1441,6.1266,6.0788,6.0939,6.1366,6.2144,6.2069,6.227,6.2672,6.2822,6.2772,6.2822,6.2822,6.2521,6.2421,6.1918,6.1286,6.0976,6.0463,5.9975,5.9736,5.9417,5.914,5.8723,5.9042,5.9158,5.8802,5.9098,5.8747,5.7966,5.7824,5.7661,5.7704,5.771,5.7832,5.7759,5.7734,5.7576,5.7418,5.729,5.7449,5.7479,5.7582,5.7631,5.7686,5.7716,5.7727,5.7311,5.7066,5.6895,5.6675,5.6375,5.6277,5.6403,5.6688,5.7366,5.7517,5.8247,5.8299,5.805,5.7925,5.7826,5.77,5.765,5.8077,5.8731,5.9185,5.9312,5.9262,5.9362,5.9284,5.955,5.9676,5.9798,6.0076,6.0272,6.1556,6.2587,6.3136,6.3805,6.444,6.4666,6.5361,6.5977,6.6132,6.6174,6.6426,6.6492,6.6269,6.6117,6.6356,6.6595,6.6805,6.703,6.7269,6.7466,6.7691,6.7831,6.7944,6.8069,6.8193,6.8289,6.8473,6.8025,6.0111,5.9809,6.0085,6.0613,6.1115,6.109,6.114,6.119,6.119,6.1215,6.119,6.1215,6.119,6.1366,6.1642,6.2195,6.2446,6.2295,6.2571,6.2772,6.2822,6.2822,6.2822,6.2797,6.2596,6.2139,6.1662,6.1321,6.1005,6.0484,6.0063,5.9901,5.9722,5.9494,5.9354,5.9396,5.9431,5.9276,5.9333,5.934,5.8944,5.8361,5.8048,5.7702,5.7405,5.7117,5.7069,5.7021,5.7021,5.7021,5.71,5.7259,5.7339,5.7259,5.71,5.71,5.7259,5.7024,5.6637,5.6414,5.6178,5.5912,5.5559,5.5583,5.5733,5.6231,5.6911,5.7442,5.8175,5.8536,5.829,5.8195,5.8074,5.8102,5.8076,5.8177,5.873,5.9207,5.9158,5.8982,5.8831,5.8731,5.8756,5.873,5.8907,5.9211,5.9947,6.1311,6.2386,6.2544,6.2924,6.3749,6.4341,6.523,6.6089,6.6468,6.6411,6.61,6.6124,6.6155,6.6269,6.6551,6.6873,6.7337,6.7533,6.7859,6.8112,6.8365,6.8506,6.859,6.8883,6.9107,6.9051,6.9107,6.8983,6.0537,6.0814,6.001,6.0236,6.1014,6.0688,6.0763,6.114,6.119,6.119,6.1215,6.119,6.119,6.119,6.124,6.1718,6.2345,6.2345,6.2546,6.2747,6.2822,6.2822,6.2741,6.2741,6.269,6.2283,6.1821,6.1577,6.1095,6.0539,6.0114,5.9975,5.9646,5.9346,5.8959,5.9177,5.9573,5.9418,5.9684,5.994,5.964,5.9075,5.8247,5.7959,5.7718,5.7381,5.7165,5.7045,5.7021,5.7021,5.6941,5.7021,5.7021,5.6941,5.6702,5.6542,5.6702,5.6208,5.5898,5.5676,5.5366,5.4829,5.4727,5.5176,5.5445,5.6015,5.6498,5.6631,5.7266,5.7913,5.7872,5.7929,5.7861,5.8044,5.8147,5.8475,5.9004,5.928,5.9433,5.9332,5.9257,5.9258,5.9233,5.9284,5.9284,5.9513,5.9666,6.0913,6.1744,6.1969,6.2194,6.291,6.3719,6.4328,6.4906,6.6152,6.6291,6.5965,6.5866,6.6048,6.633,6.6712,6.709,6.7781,6.8093,6.8365,6.8674,6.9068,6.9124,6.9292,6.977,6.9995,6.9883,6.9742,6.9545]}]]